<?xml version="1.0" encoding="UTF-8" standalone="no" ?>
<gpx xmlns="http://www.topografix.com/GPX/1/1" xmlns:xsi="http://www.w3.org/2001/XMLSchema-instance" xsi:schemaLocation="http://www.topografix.com/GPX/1/1 http://www.topografix.com/GPX/1/1/gpx.xsd" version="1.1" creator="VisuGPX - https://www.visugpx.com">
  <metadata>
    <name>GR20 Sud | Lac de Bastani</name>
    <desc><![CDATA[Sur la route du GR20 Sud.
Entre Vizzavona et Conca.

Avant de prendre la route pour le refuge de Prati, au départ de la Bergerie de E Capanelle, sur la variante du GR20 par le Monte Renoso (2352m) non praticable ce jour.]]></desc>
  </metadata>
  <trk>
    <name><![CDATA[GR20 Sud | Lac de Bastani]]></name>
    <desc><![CDATA[Variante GR20 non praticable du fait de l'enneigement trop important sur la partie "Monte Renoso"]]></desc>
    <trkseg>
      <trkpt lat="42.07706" lon="9.15032">
        <ele>1601.4000244141</ele>
        <time>2014-05-15T06:42:04.000Z</time>
      </trkpt>
      <trkpt lat="42.07702" lon="9.15035">
        <ele>1600.8000488281</ele>
        <time>2014-05-15T06:42:10.000Z</time>
      </trkpt>
      <trkpt lat="42.07698" lon="9.15039">
        <ele>1600.1999511719</ele>
        <time>2014-05-15T06:42:15.000Z</time>
      </trkpt>
      <trkpt lat="42.07696" lon="9.1504">
        <ele>1600</ele>
        <time>2014-05-15T06:42:17.000Z</time>
      </trkpt>
      <trkpt lat="42.07696" lon="9.1504">
        <ele>1600</ele>
        <time>2014-05-15T06:42:18.000Z</time>
      </trkpt>
      <trkpt lat="42.07693" lon="9.15041">
        <ele>1599.5999755859</ele>
        <time>2014-05-15T06:42:22.000Z</time>
      </trkpt>
      <trkpt lat="42.07692" lon="9.15041">
        <ele>1599.5999755859</ele>
        <time>2014-05-15T06:42:23.000Z</time>
      </trkpt>
      <trkpt lat="42.07689" lon="9.15038">
        <ele>1599.8000488281</ele>
        <time>2014-05-15T06:42:29.000Z</time>
      </trkpt>
      <trkpt lat="42.07685" lon="9.15032">
        <ele>1600</ele>
        <time>2014-05-15T06:42:36.000Z</time>
      </trkpt>
      <trkpt lat="42.07679" lon="9.15029">
        <ele>1600</ele>
        <time>2014-05-15T06:42:43.000Z</time>
      </trkpt>
      <trkpt lat="42.07675" lon="9.1503">
        <ele>1599.8000488281</ele>
        <time>2014-05-15T06:42:49.000Z</time>
      </trkpt>
      <trkpt lat="42.07675" lon="9.15034">
        <ele>1599.1999511719</ele>
        <time>2014-05-15T06:42:56.000Z</time>
      </trkpt>
      <trkpt lat="42.07675" lon="9.15034">
        <ele>1599.1999511719</ele>
        <time>2014-05-15T06:43:01.000Z</time>
      </trkpt>
      <trkpt lat="42.07674" lon="9.15035">
        <ele>1599.1999511719</ele>
        <time>2014-05-15T06:43:08.000Z</time>
      </trkpt>
      <trkpt lat="42.07674" lon="9.15042">
        <ele>1598.4000244141</ele>
        <time>2014-05-15T06:43:18.000Z</time>
      </trkpt>
      <trkpt lat="42.07673" lon="9.15045">
        <ele>1598.1999511719</ele>
        <time>2014-05-15T06:43:20.000Z</time>
      </trkpt>
      <trkpt lat="42.07672" lon="9.15048">
        <ele>1597.8000488281</ele>
        <time>2014-05-15T06:43:23.000Z</time>
      </trkpt>
      <trkpt lat="42.07672" lon="9.15049">
        <ele>1597.5999755859</ele>
        <time>2014-05-15T06:43:24.000Z</time>
      </trkpt>
      <trkpt lat="42.07672" lon="9.15055">
        <ele>1596.8000488281</ele>
        <time>2014-05-15T06:43:29.000Z</time>
      </trkpt>
      <trkpt lat="42.0767" lon="9.15055">
        <ele>1596.8000488281</ele>
        <time>2014-05-15T06:43:34.000Z</time>
      </trkpt>
      <trkpt lat="42.07667" lon="9.15053">
        <ele>1596.8000488281</ele>
        <time>2014-05-15T06:43:40.000Z</time>
      </trkpt>
      <trkpt lat="42.07664" lon="9.15051">
        <ele>1596.8000488281</ele>
        <time>2014-05-15T06:43:46.000Z</time>
      </trkpt>
      <trkpt lat="42.07659" lon="9.1505">
        <ele>1596.8000488281</ele>
        <time>2014-05-15T06:43:57.000Z</time>
      </trkpt>
      <trkpt lat="42.07653" lon="9.15046">
        <ele>1599.4000244141</ele>
        <time>2014-05-15T06:44:06.000Z</time>
      </trkpt>
      <trkpt lat="42.0765" lon="9.15044">
        <ele>1600.8000488281</ele>
        <time>2014-05-15T06:44:18.000Z</time>
      </trkpt>
      <trkpt lat="42.07646" lon="9.15042">
        <ele>1602.4000244141</ele>
        <time>2014-05-15T06:44:24.000Z</time>
      </trkpt>
      <trkpt lat="42.07642" lon="9.15038">
        <ele>1604</ele>
        <time>2014-05-15T06:44:31.000Z</time>
      </trkpt>
      <trkpt lat="42.07641" lon="9.15037">
        <ele>1604.8000488281</ele>
        <time>2014-05-15T06:44:39.000Z</time>
      </trkpt>
      <trkpt lat="42.07639" lon="9.15033">
        <ele>1605.8000488281</ele>
        <time>2014-05-15T06:44:58.000Z</time>
      </trkpt>
      <trkpt lat="42.07635" lon="9.15029">
        <ele>1607.5999755859</ele>
        <time>2014-05-15T06:45:04.000Z</time>
      </trkpt>
      <trkpt lat="42.07631" lon="9.15023">
        <ele>1609.5999755859</ele>
        <time>2014-05-15T06:45:09.000Z</time>
      </trkpt>
      <trkpt lat="42.07627" lon="9.15014">
        <ele>1611.4000244141</ele>
        <time>2014-05-15T06:45:16.000Z</time>
      </trkpt>
      <trkpt lat="42.07625" lon="9.15012">
        <ele>1612</ele>
        <time>2014-05-15T06:45:18.000Z</time>
      </trkpt>
      <trkpt lat="42.07622" lon="9.15012">
        <ele>1613</ele>
        <time>2014-05-15T06:45:21.000Z</time>
      </trkpt>
      <trkpt lat="42.07621" lon="9.15019">
        <ele>1613</ele>
        <time>2014-05-15T06:45:25.000Z</time>
      </trkpt>
      <trkpt lat="42.07618" lon="9.15017">
        <ele>1614.4000244141</ele>
        <time>2014-05-15T06:45:28.000Z</time>
      </trkpt>
      <trkpt lat="42.07616" lon="9.15016">
        <ele>1615.1999511719</ele>
        <time>2014-05-15T06:45:29.000Z</time>
      </trkpt>
      <trkpt lat="42.07611" lon="9.15012">
        <ele>1617.1999511719</ele>
        <time>2014-05-15T06:45:34.000Z</time>
      </trkpt>
      <trkpt lat="42.07608" lon="9.15011">
        <ele>1618.4000244141</ele>
        <time>2014-05-15T06:45:40.000Z</time>
      </trkpt>
      <trkpt lat="42.07606" lon="9.15013">
        <ele>1618.8000488281</ele>
        <time>2014-05-15T06:45:45.000Z</time>
      </trkpt>
      <trkpt lat="42.07602" lon="9.15019">
        <ele>1620</ele>
        <time>2014-05-15T06:45:51.000Z</time>
      </trkpt>
      <trkpt lat="42.07599" lon="9.15021">
        <ele>1621</ele>
        <time>2014-05-15T06:45:57.000Z</time>
      </trkpt>
      <trkpt lat="42.07597" lon="9.15018">
        <ele>1622</ele>
        <time>2014-05-15T06:46:02.000Z</time>
      </trkpt>
      <trkpt lat="42.07594" lon="9.15013">
        <ele>1623.1999511719</ele>
        <time>2014-05-15T06:46:10.000Z</time>
      </trkpt>
      <trkpt lat="42.07591" lon="9.15017">
        <ele>1624</ele>
        <time>2014-05-15T06:46:16.000Z</time>
      </trkpt>
      <trkpt lat="42.07589" lon="9.15016">
        <ele>1624.8000488281</ele>
        <time>2014-05-15T06:46:21.000Z</time>
      </trkpt>
      <trkpt lat="42.07587" lon="9.15016">
        <ele>1625.5999755859</ele>
        <time>2014-05-15T06:46:27.000Z</time>
      </trkpt>
      <trkpt lat="42.07584" lon="9.15014">
        <ele>1626.5999755859</ele>
        <time>2014-05-15T06:46:33.000Z</time>
      </trkpt>
      <trkpt lat="42.07581" lon="9.15015">
        <ele>1627.8000488281</ele>
        <time>2014-05-15T06:46:41.000Z</time>
      </trkpt>
      <trkpt lat="42.07578" lon="9.15022">
        <ele>1628.4000244141</ele>
        <time>2014-05-15T06:46:49.000Z</time>
      </trkpt>
      <trkpt lat="42.07577" lon="9.15027">
        <ele>1628.8000488281</ele>
        <time>2014-05-15T06:46:56.000Z</time>
      </trkpt>
      <trkpt lat="42.07574" lon="9.15031">
        <ele>1630.1999511719</ele>
        <time>2014-05-15T06:47:03.000Z</time>
      </trkpt>
      <trkpt lat="42.07572" lon="9.15034">
        <ele>1631.4000244141</ele>
        <time>2014-05-15T06:47:09.000Z</time>
      </trkpt>
      <trkpt lat="42.0757" lon="9.15034">
        <ele>1632.8000488281</ele>
        <time>2014-05-15T06:47:15.000Z</time>
      </trkpt>
      <trkpt lat="42.07568" lon="9.15029">
        <ele>1633.8000488281</ele>
        <time>2014-05-15T06:47:23.000Z</time>
      </trkpt>
      <trkpt lat="42.07564" lon="9.15024">
        <ele>1636.4000244141</ele>
        <time>2014-05-15T06:47:34.000Z</time>
      </trkpt>
      <trkpt lat="42.07562" lon="9.15021">
        <ele>1637.1999511719</ele>
        <time>2014-05-15T06:47:36.000Z</time>
      </trkpt>
      <trkpt lat="42.07559" lon="9.15016">
        <ele>1639.1999511719</ele>
        <time>2014-05-15T06:47:41.000Z</time>
      </trkpt>
      <trkpt lat="42.07554" lon="9.15011">
        <ele>1641.5999755859</ele>
        <time>2014-05-15T06:47:46.000Z</time>
      </trkpt>
      <trkpt lat="42.07554" lon="9.15009">
        <ele>1642</ele>
        <time>2014-05-15T06:47:47.000Z</time>
      </trkpt>
      <trkpt lat="42.0755" lon="9.15001">
        <ele>1644.1999511719</ele>
        <time>2014-05-15T06:47:51.000Z</time>
      </trkpt>
      <trkpt lat="42.07549" lon="9.14995">
        <ele>1645</ele>
        <time>2014-05-15T06:47:54.000Z</time>
      </trkpt>
      <trkpt lat="42.07549" lon="9.14993">
        <ele>1644.8000488281</ele>
        <time>2014-05-15T06:47:56.000Z</time>
      </trkpt>
      <trkpt lat="42.07546" lon="9.14991">
        <ele>1646.4000244141</ele>
        <time>2014-05-15T06:48:01.000Z</time>
      </trkpt>
      <trkpt lat="42.07545" lon="9.14991">
        <ele>1647</ele>
        <time>2014-05-15T06:48:02.000Z</time>
      </trkpt>
      <trkpt lat="42.0754" lon="9.14988">
        <ele>1650.1999511719</ele>
        <time>2014-05-15T06:48:06.000Z</time>
      </trkpt>
      <trkpt lat="42.07537" lon="9.14981">
        <ele>1651.5999755859</ele>
        <time>2014-05-15T06:48:10.000Z</time>
      </trkpt>
      <trkpt lat="42.07537" lon="9.1498">
        <ele>1652</ele>
        <time>2014-05-15T06:48:11.000Z</time>
      </trkpt>
      <trkpt lat="42.07537" lon="9.1497">
        <ele>1652.1999511719</ele>
        <time>2014-05-15T06:48:16.000Z</time>
      </trkpt>
      <trkpt lat="42.07537" lon="9.14963">
        <ele>1652.4000244141</ele>
        <time>2014-05-15T06:48:20.000Z</time>
      </trkpt>
      <trkpt lat="42.07537" lon="9.14961">
        <ele>1652.5999755859</ele>
        <time>2014-05-15T06:48:22.000Z</time>
      </trkpt>
      <trkpt lat="42.07537" lon="9.14956">
        <ele>1652.8000488281</ele>
        <time>2014-05-15T06:48:25.000Z</time>
      </trkpt>
      <trkpt lat="42.07537" lon="9.14953">
        <ele>1652.8000488281</ele>
        <time>2014-05-15T06:48:27.000Z</time>
      </trkpt>
      <trkpt lat="42.07537" lon="9.14947">
        <ele>1652.8000488281</ele>
        <time>2014-05-15T06:48:31.000Z</time>
      </trkpt>
      <trkpt lat="42.07537" lon="9.14947">
        <ele>1652.8000488281</ele>
        <time>2014-05-15T06:48:32.000Z</time>
      </trkpt>
      <trkpt lat="42.07536" lon="9.14943">
        <ele>1653.5999755859</ele>
        <time>2014-05-15T06:48:37.000Z</time>
      </trkpt>
      <trkpt lat="42.07535" lon="9.14937">
        <ele>1654.5999755859</ele>
        <time>2014-05-15T06:48:43.000Z</time>
      </trkpt>
      <trkpt lat="42.07534" lon="9.14936">
        <ele>1654.8000488281</ele>
        <time>2014-05-15T06:48:48.000Z</time>
      </trkpt>
      <trkpt lat="42.07534" lon="9.14927">
        <ele>1655.4000244141</ele>
        <time>2014-05-15T06:48:58.000Z</time>
      </trkpt>
      <trkpt lat="42.07532" lon="9.14914">
        <ele>1656.8000488281</ele>
        <time>2014-05-15T06:49:07.000Z</time>
      </trkpt>
      <trkpt lat="42.07532" lon="9.14907">
        <ele>1657</ele>
        <time>2014-05-15T06:49:14.000Z</time>
      </trkpt>
      <trkpt lat="42.07532" lon="9.14904">
        <ele>1657</ele>
        <time>2014-05-15T06:49:16.000Z</time>
      </trkpt>
      <trkpt lat="42.07532" lon="9.14899">
        <ele>1657</ele>
        <time>2014-05-15T06:49:20.000Z</time>
      </trkpt>
      <trkpt lat="42.07532" lon="9.14897">
        <ele>1657.5999755859</ele>
        <time>2014-05-15T06:49:22.000Z</time>
      </trkpt>
      <trkpt lat="42.07533" lon="9.14889">
        <ele>1658.8000488281</ele>
        <time>2014-05-15T06:49:27.000Z</time>
      </trkpt>
      <trkpt lat="42.07534" lon="9.14879">
        <ele>1660.5999755859</ele>
        <time>2014-05-15T06:49:34.000Z</time>
      </trkpt>
      <trkpt lat="42.07532" lon="9.14874">
        <ele>1662.1999511719</ele>
        <time>2014-05-15T06:49:38.000Z</time>
      </trkpt>
      <trkpt lat="42.07532" lon="9.14873">
        <ele>1662.4000244141</ele>
        <time>2014-05-15T06:49:40.000Z</time>
      </trkpt>
      <trkpt lat="42.07531" lon="9.14867">
        <ele>1664.1999511719</ele>
        <time>2014-05-15T06:50:09.000Z</time>
      </trkpt>
      <trkpt lat="42.07529" lon="9.14864">
        <ele>1665.1999511719</ele>
        <time>2014-05-15T06:50:14.000Z</time>
      </trkpt>
      <trkpt lat="42.07528" lon="9.14856">
        <ele>1667.4000244141</ele>
        <time>2014-05-15T06:50:21.000Z</time>
      </trkpt>
      <trkpt lat="42.07526" lon="9.14845">
        <ele>1669.8000488281</ele>
        <time>2014-05-15T06:50:29.000Z</time>
      </trkpt>
      <trkpt lat="42.07525" lon="9.14843">
        <ele>1670.4000244141</ele>
        <time>2014-05-15T06:50:36.000Z</time>
      </trkpt>
      <trkpt lat="42.0752" lon="9.14834">
        <ele>1673.5999755859</ele>
        <time>2014-05-15T06:50:45.000Z</time>
      </trkpt>
      <trkpt lat="42.07518" lon="9.14828">
        <ele>1675</ele>
        <time>2014-05-15T06:50:52.000Z</time>
      </trkpt>
      <trkpt lat="42.07516" lon="9.1482">
        <ele>1677</ele>
        <time>2014-05-15T06:51:00.000Z</time>
      </trkpt>
      <trkpt lat="42.07515" lon="9.14818">
        <ele>1677.5999755859</ele>
        <time>2014-05-15T06:51:08.000Z</time>
      </trkpt>
      <trkpt lat="42.07513" lon="9.14813">
        <ele>1679.1999511719</ele>
        <time>2014-05-15T06:51:25.000Z</time>
      </trkpt>
      <trkpt lat="42.07509" lon="9.14807">
        <ele>1681.4000244141</ele>
        <time>2014-05-15T06:51:32.000Z</time>
      </trkpt>
      <trkpt lat="42.07508" lon="9.14801">
        <ele>1683</ele>
        <time>2014-05-15T06:51:38.000Z</time>
      </trkpt>
      <trkpt lat="42.07505" lon="9.14796">
        <ele>1684.8000488281</ele>
        <time>2014-05-15T06:51:44.000Z</time>
      </trkpt>
      <trkpt lat="42.07504" lon="9.14794">
        <ele>1685.4000244141</ele>
        <time>2014-05-15T06:51:46.000Z</time>
      </trkpt>
      <trkpt lat="42.07503" lon="9.14791">
        <ele>1686.4000244141</ele>
        <time>2014-05-15T06:51:50.000Z</time>
      </trkpt>
      <trkpt lat="42.07499" lon="9.14784">
        <ele>1688.8000488281</ele>
        <time>2014-05-15T06:51:58.000Z</time>
      </trkpt>
      <trkpt lat="42.07497" lon="9.14779">
        <ele>1690.1999511719</ele>
        <time>2014-05-15T06:52:03.000Z</time>
      </trkpt>
      <trkpt lat="42.07497" lon="9.14779">
        <ele>1690.5999755859</ele>
        <time>2014-05-15T06:52:04.000Z</time>
      </trkpt>
      <trkpt lat="42.07493" lon="9.14773">
        <ele>1692.8000488281</ele>
        <time>2014-05-15T06:52:11.000Z</time>
      </trkpt>
      <trkpt lat="42.07492" lon="9.14771">
        <ele>1693.1999511719</ele>
        <time>2014-05-15T06:52:15.000Z</time>
      </trkpt>
      <trkpt lat="42.07491" lon="9.14769">
        <ele>1694.1999511719</ele>
        <time>2014-05-15T06:52:35.000Z</time>
      </trkpt>
      <trkpt lat="42.07488" lon="9.14763">
        <ele>1696.5999755859</ele>
        <time>2014-05-15T06:52:42.000Z</time>
      </trkpt>
      <trkpt lat="42.07488" lon="9.14762">
        <ele>1696.8000488281</ele>
        <time>2014-05-15T06:52:43.000Z</time>
      </trkpt>
      <trkpt lat="42.07485" lon="9.1476">
        <ele>1698.5999755859</ele>
        <time>2014-05-15T06:52:49.000Z</time>
      </trkpt>
      <trkpt lat="42.07483" lon="9.14764">
        <ele>1699</ele>
        <time>2014-05-15T06:52:54.000Z</time>
      </trkpt>
      <trkpt lat="42.07482" lon="9.14765">
        <ele>1699.1999511719</ele>
        <time>2014-05-15T06:53:02.000Z</time>
      </trkpt>
      <trkpt lat="42.07481" lon="9.14763">
        <ele>1700.1999511719</ele>
        <time>2014-05-15T06:53:07.000Z</time>
      </trkpt>
      <trkpt lat="42.07478" lon="9.14762">
        <ele>1701.5999755859</ele>
        <time>2014-05-15T06:53:12.000Z</time>
      </trkpt>
      <trkpt lat="42.07475" lon="9.14762">
        <ele>1703.1999511719</ele>
        <time>2014-05-15T06:53:19.000Z</time>
      </trkpt>
      <trkpt lat="42.07473" lon="9.14764">
        <ele>1703.8000488281</ele>
        <time>2014-05-15T06:53:24.000Z</time>
      </trkpt>
      <trkpt lat="42.07471" lon="9.14768">
        <ele>1703.8000488281</ele>
        <time>2014-05-15T06:53:45.000Z</time>
      </trkpt>
      <trkpt lat="42.07467" lon="9.14777">
        <ele>1704.1999511719</ele>
        <time>2014-05-15T06:53:54.000Z</time>
      </trkpt>
      <trkpt lat="42.07463" lon="9.1478">
        <ele>1705.1999511719</ele>
        <time>2014-05-15T06:54:00.000Z</time>
      </trkpt>
      <trkpt lat="42.07463" lon="9.1478">
        <ele>1705.4000244141</ele>
        <time>2014-05-15T06:54:05.000Z</time>
      </trkpt>
      <trkpt lat="42.0746" lon="9.14785">
        <ele>1705.8000488281</ele>
        <time>2014-05-15T06:54:16.000Z</time>
      </trkpt>
      <trkpt lat="42.07457" lon="9.14788">
        <ele>1706.5999755859</ele>
        <time>2014-05-15T06:54:22.000Z</time>
      </trkpt>
      <trkpt lat="42.07454" lon="9.14789">
        <ele>1708.1999511719</ele>
        <time>2014-05-15T06:54:29.000Z</time>
      </trkpt>
      <trkpt lat="42.07451" lon="9.14795">
        <ele>1708.1999511719</ele>
        <time>2014-05-15T06:54:36.000Z</time>
      </trkpt>
      <trkpt lat="42.07447" lon="9.14797">
        <ele>1710</ele>
        <time>2014-05-15T06:54:42.000Z</time>
      </trkpt>
      <trkpt lat="42.07447" lon="9.14797">
        <ele>1710</ele>
        <time>2014-05-15T06:54:50.000Z</time>
      </trkpt>
      <trkpt lat="42.07448" lon="9.14797">
        <ele>1709.5999755859</ele>
        <time>2014-05-15T06:54:58.000Z</time>
      </trkpt>
      <trkpt lat="42.07447" lon="9.14797">
        <ele>1709.8000488281</ele>
        <time>2014-05-15T06:55:08.000Z</time>
      </trkpt>
      <trkpt lat="42.07447" lon="9.14797">
        <ele>1710</ele>
        <time>2014-05-15T06:55:25.000Z</time>
      </trkpt>
      <trkpt lat="42.07447" lon="9.14796">
        <ele>1710.1999511719</ele>
        <time>2014-05-15T06:55:44.000Z</time>
      </trkpt>
      <trkpt lat="42.07447" lon="9.14796">
        <ele>1710</ele>
        <time>2014-05-15T06:55:48.000Z</time>
      </trkpt>
      <trkpt lat="42.07448" lon="9.14797">
        <ele>1709.5999755859</ele>
        <time>2014-05-15T06:55:54.000Z</time>
      </trkpt>
      <trkpt lat="42.07448" lon="9.14795">
        <ele>1710</ele>
        <time>2014-05-15T06:56:00.000Z</time>
      </trkpt>
      <trkpt lat="42.07448" lon="9.14795">
        <ele>1709.8000488281</ele>
        <time>2014-05-15T06:56:07.000Z</time>
      </trkpt>
      <trkpt lat="42.0745" lon="9.14793">
        <ele>1709.1999511719</ele>
        <time>2014-05-15T06:56:24.000Z</time>
      </trkpt>
      <trkpt lat="42.0745" lon="9.14793">
        <ele>1709.4000244141</ele>
        <time>2014-05-15T06:56:25.000Z</time>
      </trkpt>
      <trkpt lat="42.0745" lon="9.14794">
        <ele>1709</ele>
        <time>2014-05-15T06:56:36.000Z</time>
      </trkpt>
      <trkpt lat="42.07452" lon="9.14794">
        <ele>1708.1999511719</ele>
        <time>2014-05-15T06:56:41.000Z</time>
      </trkpt>
      <trkpt lat="42.07452" lon="9.14794">
        <ele>1708.1999511719</ele>
        <time>2014-05-15T06:56:42.000Z</time>
      </trkpt>
      <trkpt lat="42.07453" lon="9.14795">
        <ele>1707.8000488281</ele>
        <time>2014-05-15T06:56:48.000Z</time>
      </trkpt>
      <trkpt lat="42.07449" lon="9.14795">
        <ele>1709.4000244141</ele>
        <time>2014-05-15T06:57:19.000Z</time>
      </trkpt>
      <trkpt lat="42.07447" lon="9.14796">
        <ele>1710.1999511719</ele>
        <time>2014-05-15T06:57:23.000Z</time>
      </trkpt>
      <trkpt lat="42.07448" lon="9.14798">
        <ele>1709.4000244141</ele>
        <time>2014-05-15T06:57:29.000Z</time>
      </trkpt>
      <trkpt lat="42.07447" lon="9.14811">
        <ele>1708</ele>
        <time>2014-05-15T06:57:36.000Z</time>
      </trkpt>
      <trkpt lat="42.07447" lon="9.14815">
        <ele>1707.1999511719</ele>
        <time>2014-05-15T06:57:41.000Z</time>
      </trkpt>
      <trkpt lat="42.07446" lon="9.14824">
        <ele>1706.1999511719</ele>
        <time>2014-05-15T06:57:47.000Z</time>
      </trkpt>
      <trkpt lat="42.07444" lon="9.14834">
        <ele>1705.4000244141</ele>
        <time>2014-05-15T06:57:54.000Z</time>
      </trkpt>
      <trkpt lat="42.07442" lon="9.14846">
        <ele>1704.5999755859</ele>
        <time>2014-05-15T06:58:02.000Z</time>
      </trkpt>
      <trkpt lat="42.07439" lon="9.14856">
        <ele>1704</ele>
        <time>2014-05-15T06:58:10.000Z</time>
      </trkpt>
      <trkpt lat="42.07436" lon="9.14871">
        <ele>1705</ele>
        <time>2014-05-15T06:58:19.000Z</time>
      </trkpt>
      <trkpt lat="42.07433" lon="9.14882">
        <ele>1705.5999755859</ele>
        <time>2014-05-15T06:58:26.000Z</time>
      </trkpt>
      <trkpt lat="42.07433" lon="9.14883">
        <ele>1705.8000488281</ele>
        <time>2014-05-15T06:58:31.000Z</time>
      </trkpt>
      <trkpt lat="42.07434" lon="9.14883">
        <ele>1705.1999511719</ele>
        <time>2014-05-15T06:58:36.000Z</time>
      </trkpt>
      <trkpt lat="42.07432" lon="9.14883">
        <ele>1706.1999511719</ele>
        <time>2014-05-15T07:00:07.000Z</time>
      </trkpt>
      <trkpt lat="42.07428" lon="9.14888">
        <ele>1707</ele>
        <time>2014-05-15T07:00:12.000Z</time>
      </trkpt>
      <trkpt lat="42.07425" lon="9.14891">
        <ele>1708</ele>
        <time>2014-05-15T07:00:16.000Z</time>
      </trkpt>
      <trkpt lat="42.07423" lon="9.1489">
        <ele>1709</ele>
        <time>2014-05-15T07:00:18.000Z</time>
      </trkpt>
      <trkpt lat="42.0742" lon="9.14888">
        <ele>1710.4000244141</ele>
        <time>2014-05-15T07:00:21.000Z</time>
      </trkpt>
      <trkpt lat="42.07419" lon="9.14887">
        <ele>1710.5999755859</ele>
        <time>2014-05-15T07:00:22.000Z</time>
      </trkpt>
      <trkpt lat="42.07417" lon="9.14884">
        <ele>1711.8000488281</ele>
        <time>2014-05-15T07:00:25.000Z</time>
      </trkpt>
      <trkpt lat="42.07417" lon="9.14882">
        <ele>1712</ele>
        <time>2014-05-15T07:00:27.000Z</time>
      </trkpt>
      <trkpt lat="42.07416" lon="9.1488">
        <ele>1712.4000244141</ele>
        <time>2014-05-15T07:00:28.000Z</time>
      </trkpt>
      <trkpt lat="42.07415" lon="9.14879">
        <ele>1713</ele>
        <time>2014-05-15T07:00:30.000Z</time>
      </trkpt>
      <trkpt lat="42.07414" lon="9.14874">
        <ele>1714</ele>
        <time>2014-05-15T07:00:35.000Z</time>
      </trkpt>
      <trkpt lat="42.07413" lon="9.1487">
        <ele>1714.8000488281</ele>
        <time>2014-05-15T07:00:38.000Z</time>
      </trkpt>
      <trkpt lat="42.07412" lon="9.14866">
        <ele>1715.4000244141</ele>
        <time>2014-05-15T07:00:41.000Z</time>
      </trkpt>
      <trkpt lat="42.07413" lon="9.14866">
        <ele>1715.4000244141</ele>
        <time>2014-05-15T07:00:42.000Z</time>
      </trkpt>
      <trkpt lat="42.07413" lon="9.14864">
        <ele>1715.5999755859</ele>
        <time>2014-05-15T07:00:43.000Z</time>
      </trkpt>
      <trkpt lat="42.07414" lon="9.14858">
        <ele>1715.4000244141</ele>
        <time>2014-05-15T07:00:49.000Z</time>
      </trkpt>
      <trkpt lat="42.07413" lon="9.1485">
        <ele>1717.4000244141</ele>
        <time>2014-05-15T07:00:56.000Z</time>
      </trkpt>
      <trkpt lat="42.07412" lon="9.14843">
        <ele>1718.8000488281</ele>
        <time>2014-05-15T07:01:01.000Z</time>
      </trkpt>
      <trkpt lat="42.07411" lon="9.14843">
        <ele>1719</ele>
        <time>2014-05-15T07:01:02.000Z</time>
      </trkpt>
      <trkpt lat="42.07408" lon="9.14838">
        <ele>1720.4000244141</ele>
        <time>2014-05-15T07:01:06.000Z</time>
      </trkpt>
      <trkpt lat="42.07408" lon="9.14833">
        <ele>1721.4000244141</ele>
        <time>2014-05-15T07:01:10.000Z</time>
      </trkpt>
      <trkpt lat="42.07408" lon="9.14828">
        <ele>1722</ele>
        <time>2014-05-15T07:01:14.000Z</time>
      </trkpt>
      <trkpt lat="42.07407" lon="9.14825">
        <ele>1722.4000244141</ele>
        <time>2014-05-15T07:01:17.000Z</time>
      </trkpt>
      <trkpt lat="42.07407" lon="9.14823">
        <ele>1722.8000488281</ele>
        <time>2014-05-15T07:01:20.000Z</time>
      </trkpt>
      <trkpt lat="42.07407" lon="9.1482">
        <ele>1723.4000244141</ele>
        <time>2014-05-15T07:01:27.000Z</time>
      </trkpt>
      <trkpt lat="42.07406" lon="9.14812">
        <ele>1724.5999755859</ele>
        <time>2014-05-15T07:01:33.000Z</time>
      </trkpt>
      <trkpt lat="42.07406" lon="9.14809">
        <ele>1725</ele>
        <time>2014-05-15T07:01:35.000Z</time>
      </trkpt>
      <trkpt lat="42.07403" lon="9.14807">
        <ele>1725.1999511719</ele>
        <time>2014-05-15T07:01:38.000Z</time>
      </trkpt>
      <trkpt lat="42.07401" lon="9.14804">
        <ele>1725.5999755859</ele>
        <time>2014-05-15T07:01:41.000Z</time>
      </trkpt>
      <trkpt lat="42.07399" lon="9.14801">
        <ele>1726</ele>
        <time>2014-05-15T07:01:44.000Z</time>
      </trkpt>
      <trkpt lat="42.07398" lon="9.14798">
        <ele>1726.4000244141</ele>
        <time>2014-05-15T07:01:46.000Z</time>
      </trkpt>
      <trkpt lat="42.07399" lon="9.14794">
        <ele>1727.1999511719</ele>
        <time>2014-05-15T07:01:50.000Z</time>
      </trkpt>
      <trkpt lat="42.074" lon="9.1479">
        <ele>1727.8000488281</ele>
        <time>2014-05-15T07:01:54.000Z</time>
      </trkpt>
      <trkpt lat="42.07401" lon="9.14788">
        <ele>1728.1999511719</ele>
        <time>2014-05-15T07:01:56.000Z</time>
      </trkpt>
      <trkpt lat="42.07402" lon="9.14787">
        <ele>1728.4000244141</ele>
        <time>2014-05-15T07:01:58.000Z</time>
      </trkpt>
      <trkpt lat="42.07402" lon="9.14783">
        <ele>1729</ele>
        <time>2014-05-15T07:02:02.000Z</time>
      </trkpt>
      <trkpt lat="42.07401" lon="9.14779">
        <ele>1729.4000244141</ele>
        <time>2014-05-15T07:02:05.000Z</time>
      </trkpt>
      <trkpt lat="42.074" lon="9.14776">
        <ele>1730.4000244141</ele>
        <time>2014-05-15T07:02:08.000Z</time>
      </trkpt>
      <trkpt lat="42.074" lon="9.14774">
        <ele>1731.1999511719</ele>
        <time>2014-05-15T07:02:10.000Z</time>
      </trkpt>
      <trkpt lat="42.07401" lon="9.14769">
        <ele>1732.8000488281</ele>
        <time>2014-05-15T07:02:14.000Z</time>
      </trkpt>
      <trkpt lat="42.07401" lon="9.14764">
        <ele>1733.5999755859</ele>
        <time>2014-05-15T07:02:18.000Z</time>
      </trkpt>
      <trkpt lat="42.07401" lon="9.1476">
        <ele>1734.4000244141</ele>
        <time>2014-05-15T07:02:21.000Z</time>
      </trkpt>
      <trkpt lat="42.074" lon="9.1476">
        <ele>1734.8000488281</ele>
        <time>2014-05-15T07:02:22.000Z</time>
      </trkpt>
      <trkpt lat="42.07396" lon="9.14752">
        <ele>1736.8000488281</ele>
        <time>2014-05-15T07:02:29.000Z</time>
      </trkpt>
      <trkpt lat="42.07395" lon="9.14747">
        <ele>1737.5999755859</ele>
        <time>2014-05-15T07:02:33.000Z</time>
      </trkpt>
      <trkpt lat="42.07394" lon="9.14744">
        <ele>1738.4000244141</ele>
        <time>2014-05-15T07:02:36.000Z</time>
      </trkpt>
      <trkpt lat="42.07391" lon="9.14739">
        <ele>1739.8000488281</ele>
        <time>2014-05-15T07:02:42.000Z</time>
      </trkpt>
      <trkpt lat="42.0739" lon="9.14737">
        <ele>1740.4000244141</ele>
        <time>2014-05-15T07:02:44.000Z</time>
      </trkpt>
      <trkpt lat="42.07389" lon="9.14736">
        <ele>1740.5999755859</ele>
        <time>2014-05-15T07:02:45.000Z</time>
      </trkpt>
      <trkpt lat="42.07387" lon="9.14736">
        <ele>1740.8000488281</ele>
        <time>2014-05-15T07:02:47.000Z</time>
      </trkpt>
      <trkpt lat="42.07385" lon="9.14736">
        <ele>1741.1999511719</ele>
        <time>2014-05-15T07:02:50.000Z</time>
      </trkpt>
      <trkpt lat="42.07383" lon="9.14736">
        <ele>1741.4000244141</ele>
        <time>2014-05-15T07:02:52.000Z</time>
      </trkpt>
      <trkpt lat="42.07382" lon="9.14736">
        <ele>1741.5999755859</ele>
        <time>2014-05-15T07:02:53.000Z</time>
      </trkpt>
      <trkpt lat="42.0738" lon="9.14735">
        <ele>1742</ele>
        <time>2014-05-15T07:02:59.000Z</time>
      </trkpt>
      <trkpt lat="42.07379" lon="9.14729">
        <ele>1743.4000244141</ele>
        <time>2014-05-15T07:03:06.000Z</time>
      </trkpt>
      <trkpt lat="42.07378" lon="9.14722">
        <ele>1745</ele>
        <time>2014-05-15T07:03:17.000Z</time>
      </trkpt>
      <trkpt lat="42.07377" lon="9.1472">
        <ele>1745.4000244141</ele>
        <time>2014-05-15T07:03:19.000Z</time>
      </trkpt>
      <trkpt lat="42.07374" lon="9.14718">
        <ele>1746.1999511719</ele>
        <time>2014-05-15T07:03:23.000Z</time>
      </trkpt>
      <trkpt lat="42.07372" lon="9.14718">
        <ele>1746.4000244141</ele>
        <time>2014-05-15T07:03:25.000Z</time>
      </trkpt>
      <trkpt lat="42.07368" lon="9.14716">
        <ele>1747.4000244141</ele>
        <time>2014-05-15T07:03:30.000Z</time>
      </trkpt>
      <trkpt lat="42.07365" lon="9.1471">
        <ele>1748.8000488281</ele>
        <time>2014-05-15T07:03:36.000Z</time>
      </trkpt>
      <trkpt lat="42.07365" lon="9.1471">
        <ele>1748.8000488281</ele>
        <time>2014-05-15T07:03:37.000Z</time>
      </trkpt>
      <trkpt lat="42.07365" lon="9.14709">
        <ele>1749</ele>
        <time>2014-05-15T07:03:38.000Z</time>
      </trkpt>
      <trkpt lat="42.07361" lon="9.14707">
        <ele>1749.8000488281</ele>
        <time>2014-05-15T07:03:43.000Z</time>
      </trkpt>
      <trkpt lat="42.07357" lon="9.14704">
        <ele>1751.1999511719</ele>
        <time>2014-05-15T07:03:51.000Z</time>
      </trkpt>
      <trkpt lat="42.07353" lon="9.14702">
        <ele>1751.8000488281</ele>
        <time>2014-05-15T07:03:57.000Z</time>
      </trkpt>
      <trkpt lat="42.07353" lon="9.14701">
        <ele>1752.1999511719</ele>
        <time>2014-05-15T07:03:58.000Z</time>
      </trkpt>
      <trkpt lat="42.07354" lon="9.147">
        <ele>1752.1999511719</ele>
        <time>2014-05-15T07:04:01.000Z</time>
      </trkpt>
      <trkpt lat="42.07353" lon="9.14695">
        <ele>1753.4000244141</ele>
        <time>2014-05-15T07:04:06.000Z</time>
      </trkpt>
      <trkpt lat="42.0735" lon="9.1469">
        <ele>1755.5999755859</ele>
        <time>2014-05-15T07:04:12.000Z</time>
      </trkpt>
      <trkpt lat="42.07347" lon="9.14685">
        <ele>1758</ele>
        <time>2014-05-15T07:04:20.000Z</time>
      </trkpt>
      <trkpt lat="42.07342" lon="9.14685">
        <ele>1758.5999755859</ele>
        <time>2014-05-15T07:04:28.000Z</time>
      </trkpt>
      <trkpt lat="42.07341" lon="9.14685">
        <ele>1758.8000488281</ele>
        <time>2014-05-15T07:04:29.000Z</time>
      </trkpt>
      <trkpt lat="42.07338" lon="9.14681">
        <ele>1761</ele>
        <time>2014-05-15T07:04:33.000Z</time>
      </trkpt>
      <trkpt lat="42.07336" lon="9.14679">
        <ele>1762</ele>
        <time>2014-05-15T07:04:35.000Z</time>
      </trkpt>
      <trkpt lat="42.07337" lon="9.14676">
        <ele>1763</ele>
        <time>2014-05-15T07:04:38.000Z</time>
      </trkpt>
      <trkpt lat="42.07331" lon="9.14673">
        <ele>1765</ele>
        <time>2014-05-15T07:04:44.000Z</time>
      </trkpt>
      <trkpt lat="42.07328" lon="9.14668">
        <ele>1767.4000244141</ele>
        <time>2014-05-15T07:04:49.000Z</time>
      </trkpt>
      <trkpt lat="42.07327" lon="9.14667">
        <ele>1767.8000488281</ele>
        <time>2014-05-15T07:04:50.000Z</time>
      </trkpt>
      <trkpt lat="42.07325" lon="9.14662">
        <ele>1769.8000488281</ele>
        <time>2014-05-15T07:04:55.000Z</time>
      </trkpt>
      <trkpt lat="42.07325" lon="9.14662">
        <ele>1770</ele>
        <time>2014-05-15T07:04:56.000Z</time>
      </trkpt>
      <trkpt lat="42.07324" lon="9.14658">
        <ele>1771.1999511719</ele>
        <time>2014-05-15T07:05:00.000Z</time>
      </trkpt>
      <trkpt lat="42.07322" lon="9.14656">
        <ele>1771.4000244141</ele>
        <time>2014-05-15T07:05:07.000Z</time>
      </trkpt>
      <trkpt lat="42.07319" lon="9.14653">
        <ele>1772</ele>
        <time>2014-05-15T07:05:50.000Z</time>
      </trkpt>
      <trkpt lat="42.07316" lon="9.14648">
        <ele>1773.5999755859</ele>
        <time>2014-05-15T07:05:55.000Z</time>
      </trkpt>
      <trkpt lat="42.07316" lon="9.14647">
        <ele>1774</ele>
        <time>2014-05-15T07:05:56.000Z</time>
      </trkpt>
      <trkpt lat="42.07314" lon="9.14643">
        <ele>1775.1999511719</ele>
        <time>2014-05-15T07:06:01.000Z</time>
      </trkpt>
      <trkpt lat="42.07313" lon="9.14641">
        <ele>1775.5999755859</ele>
        <time>2014-05-15T07:06:02.000Z</time>
      </trkpt>
      <trkpt lat="42.07312" lon="9.14638">
        <ele>1776.8000488281</ele>
        <time>2014-05-15T07:06:05.000Z</time>
      </trkpt>
      <trkpt lat="42.07311" lon="9.14636">
        <ele>1777.4000244141</ele>
        <time>2014-05-15T07:06:07.000Z</time>
      </trkpt>
      <trkpt lat="42.0731" lon="9.14629">
        <ele>1780</ele>
        <time>2014-05-15T07:06:14.000Z</time>
      </trkpt>
      <trkpt lat="42.0731" lon="9.14624">
        <ele>1781.8000488281</ele>
        <time>2014-05-15T07:06:19.000Z</time>
      </trkpt>
      <trkpt lat="42.07312" lon="9.1462">
        <ele>1783.8000488281</ele>
        <time>2014-05-15T07:06:25.000Z</time>
      </trkpt>
      <trkpt lat="42.07309" lon="9.14616">
        <ele>1785.1999511719</ele>
        <time>2014-05-15T07:06:31.000Z</time>
      </trkpt>
      <trkpt lat="42.07309" lon="9.1461">
        <ele>1787.1999511719</ele>
        <time>2014-05-15T07:06:38.000Z</time>
      </trkpt>
      <trkpt lat="42.0731" lon="9.14609">
        <ele>1788</ele>
        <time>2014-05-15T07:06:43.000Z</time>
      </trkpt>
      <trkpt lat="42.07313" lon="9.1461">
        <ele>1788.4000244141</ele>
        <time>2014-05-15T07:06:51.000Z</time>
      </trkpt>
      <trkpt lat="42.07315" lon="9.14609">
        <ele>1789.1999511719</ele>
        <time>2014-05-15T07:06:56.000Z</time>
      </trkpt>
      <trkpt lat="42.07317" lon="9.14607">
        <ele>1790.4000244141</ele>
        <time>2014-05-15T07:07:01.000Z</time>
      </trkpt>
      <trkpt lat="42.07318" lon="9.14605">
        <ele>1791.4000244141</ele>
        <time>2014-05-15T07:07:06.000Z</time>
      </trkpt>
      <trkpt lat="42.0732" lon="9.14604">
        <ele>1792</ele>
        <time>2014-05-15T07:07:12.000Z</time>
      </trkpt>
      <trkpt lat="42.07318" lon="9.14601">
        <ele>1793</ele>
        <time>2014-05-15T07:07:16.000Z</time>
      </trkpt>
      <trkpt lat="42.07317" lon="9.14599">
        <ele>1793.5999755859</ele>
        <time>2014-05-15T07:07:18.000Z</time>
      </trkpt>
      <trkpt lat="42.07319" lon="9.14595">
        <ele>1795</ele>
        <time>2014-05-15T07:07:24.000Z</time>
      </trkpt>
      <trkpt lat="42.0732" lon="9.14593">
        <ele>1796</ele>
        <time>2014-05-15T07:07:30.000Z</time>
      </trkpt>
      <trkpt lat="42.07322" lon="9.14593">
        <ele>1796</ele>
        <time>2014-05-15T07:07:36.000Z</time>
      </trkpt>
      <trkpt lat="42.0732" lon="9.14589">
        <ele>1797.4000244141</ele>
        <time>2014-05-15T07:07:42.000Z</time>
      </trkpt>
      <trkpt lat="42.07321" lon="9.14588">
        <ele>1797.4000244141</ele>
        <time>2014-05-15T07:07:43.000Z</time>
      </trkpt>
      <trkpt lat="42.07322" lon="9.14585">
        <ele>1798.5999755859</ele>
        <time>2014-05-15T07:07:48.000Z</time>
      </trkpt>
      <trkpt lat="42.07325" lon="9.14582">
        <ele>1800</ele>
        <time>2014-05-15T07:07:54.000Z</time>
      </trkpt>
      <trkpt lat="42.07328" lon="9.1458">
        <ele>1800.8000488281</ele>
        <time>2014-05-15T07:08:01.000Z</time>
      </trkpt>
      <trkpt lat="42.07324" lon="9.14577">
        <ele>1801.5999755859</ele>
        <time>2014-05-15T07:08:06.000Z</time>
      </trkpt>
      <trkpt lat="42.07323" lon="9.14573">
        <ele>1802.5999755859</ele>
        <time>2014-05-15T07:08:10.000Z</time>
      </trkpt>
      <trkpt lat="42.07324" lon="9.1457">
        <ele>1803.8000488281</ele>
        <time>2014-05-15T07:08:16.000Z</time>
      </trkpt>
      <trkpt lat="42.07325" lon="9.1457">
        <ele>1804</ele>
        <time>2014-05-15T07:08:22.000Z</time>
      </trkpt>
      <trkpt lat="42.07327" lon="9.14567">
        <ele>1805</ele>
        <time>2014-05-15T07:08:28.000Z</time>
      </trkpt>
      <trkpt lat="42.07328" lon="9.14564">
        <ele>1805.5999755859</ele>
        <time>2014-05-15T07:08:33.000Z</time>
      </trkpt>
      <trkpt lat="42.07328" lon="9.14564">
        <ele>1805.8000488281</ele>
        <time>2014-05-15T07:08:39.000Z</time>
      </trkpt>
      <trkpt lat="42.07328" lon="9.14562">
        <ele>1806.4000244141</ele>
        <time>2014-05-15T07:08:45.000Z</time>
      </trkpt>
      <trkpt lat="42.07329" lon="9.1456">
        <ele>1806.8000488281</ele>
        <time>2014-05-15T07:08:52.000Z</time>
      </trkpt>
      <trkpt lat="42.07327" lon="9.14558">
        <ele>1807.8000488281</ele>
        <time>2014-05-15T07:08:57.000Z</time>
      </trkpt>
      <trkpt lat="42.07329" lon="9.14557">
        <ele>1808</ele>
        <time>2014-05-15T07:09:04.000Z</time>
      </trkpt>
      <trkpt lat="42.07329" lon="9.14554">
        <ele>1808.8000488281</ele>
        <time>2014-05-15T07:09:16.000Z</time>
      </trkpt>
      <trkpt lat="42.0733" lon="9.14552">
        <ele>1809.1999511719</ele>
        <time>2014-05-15T07:09:20.000Z</time>
      </trkpt>
      <trkpt lat="42.0733" lon="9.14548">
        <ele>1810.5999755859</ele>
        <time>2014-05-15T07:09:25.000Z</time>
      </trkpt>
      <trkpt lat="42.07332" lon="9.14546">
        <ele>1810.8000488281</ele>
        <time>2014-05-15T07:09:30.000Z</time>
      </trkpt>
      <trkpt lat="42.07332" lon="9.14544">
        <ele>1811.4000244141</ele>
        <time>2014-05-15T07:09:35.000Z</time>
      </trkpt>
      <trkpt lat="42.0733" lon="9.14542">
        <ele>1812.5999755859</ele>
        <time>2014-05-15T07:09:44.000Z</time>
      </trkpt>
      <trkpt lat="42.0733" lon="9.14539">
        <ele>1813.4000244141</ele>
        <time>2014-05-15T07:09:48.000Z</time>
      </trkpt>
      <trkpt lat="42.07331" lon="9.14538">
        <ele>1813.5999755859</ele>
        <time>2014-05-15T07:09:54.000Z</time>
      </trkpt>
      <trkpt lat="42.07333" lon="9.14536">
        <ele>1813.8000488281</ele>
        <time>2014-05-15T07:10:00.000Z</time>
      </trkpt>
      <trkpt lat="42.07336" lon="9.14534">
        <ele>1813.5999755859</ele>
        <time>2014-05-15T07:10:05.000Z</time>
      </trkpt>
      <trkpt lat="42.07339" lon="9.14531">
        <ele>1813.1999511719</ele>
        <time>2014-05-15T07:10:10.000Z</time>
      </trkpt>
      <trkpt lat="42.07339" lon="9.14531">
        <ele>1813.1999511719</ele>
        <time>2014-05-15T07:10:19.000Z</time>
      </trkpt>
      <trkpt lat="42.07339" lon="9.14526">
        <ele>1814.1999511719</ele>
        <time>2014-05-15T07:10:25.000Z</time>
      </trkpt>
      <trkpt lat="42.07341" lon="9.14522">
        <ele>1815</ele>
        <time>2014-05-15T07:10:30.000Z</time>
      </trkpt>
      <trkpt lat="42.07339" lon="9.14517">
        <ele>1817.1999511719</ele>
        <time>2014-05-15T07:10:43.000Z</time>
      </trkpt>
      <trkpt lat="42.07336" lon="9.14511">
        <ele>1820</ele>
        <time>2014-05-15T07:10:50.000Z</time>
      </trkpt>
      <trkpt lat="42.07335" lon="9.14507">
        <ele>1821.4000244141</ele>
        <time>2014-05-15T07:10:56.000Z</time>
      </trkpt>
      <trkpt lat="42.07333" lon="9.14508">
        <ele>1821.8000488281</ele>
        <time>2014-05-15T07:11:01.000Z</time>
      </trkpt>
      <trkpt lat="42.07332" lon="9.14508">
        <ele>1822.4000244141</ele>
        <time>2014-05-15T07:11:03.000Z</time>
      </trkpt>
      <trkpt lat="42.07331" lon="9.14508">
        <ele>1822.8000488281</ele>
        <time>2014-05-15T07:11:06.000Z</time>
      </trkpt>
      <trkpt lat="42.07329" lon="9.14504">
        <ele>1824.4000244141</ele>
        <time>2014-05-15T07:11:11.000Z</time>
      </trkpt>
      <trkpt lat="42.07329" lon="9.14499">
        <ele>1826</ele>
        <time>2014-05-15T07:11:18.000Z</time>
      </trkpt>
      <trkpt lat="42.07328" lon="9.14494">
        <ele>1827.8000488281</ele>
        <time>2014-05-15T07:11:24.000Z</time>
      </trkpt>
      <trkpt lat="42.07325" lon="9.14493">
        <ele>1828.8000488281</ele>
        <time>2014-05-15T07:11:30.000Z</time>
      </trkpt>
      <trkpt lat="42.07323" lon="9.1449">
        <ele>1829.4000244141</ele>
        <time>2014-05-15T07:11:35.000Z</time>
      </trkpt>
      <trkpt lat="42.07321" lon="9.14485">
        <ele>1830.8000488281</ele>
        <time>2014-05-15T07:11:41.000Z</time>
      </trkpt>
      <trkpt lat="42.0732" lon="9.1448">
        <ele>1832.5999755859</ele>
        <time>2014-05-15T07:11:48.000Z</time>
      </trkpt>
      <trkpt lat="42.07319" lon="9.14475">
        <ele>1834.1999511719</ele>
        <time>2014-05-15T07:11:59.000Z</time>
      </trkpt>
      <trkpt lat="42.0732" lon="9.14469">
        <ele>1836</ele>
        <time>2014-05-15T07:12:06.000Z</time>
      </trkpt>
      <trkpt lat="42.07317" lon="9.14465">
        <ele>1837</ele>
        <time>2014-05-15T07:12:12.000Z</time>
      </trkpt>
      <trkpt lat="42.07312" lon="9.14464">
        <ele>1837</ele>
        <time>2014-05-15T07:12:18.000Z</time>
      </trkpt>
      <trkpt lat="42.0731" lon="9.14463">
        <ele>1837.4000244141</ele>
        <time>2014-05-15T07:12:21.000Z</time>
      </trkpt>
      <trkpt lat="42.0731" lon="9.14461">
        <ele>1838</ele>
        <time>2014-05-15T07:12:23.000Z</time>
      </trkpt>
      <trkpt lat="42.07311" lon="9.14459">
        <ele>1838.8000488281</ele>
        <time>2014-05-15T07:12:30.000Z</time>
      </trkpt>
      <trkpt lat="42.07311" lon="9.14455">
        <ele>1839.8000488281</ele>
        <time>2014-05-15T07:12:35.000Z</time>
      </trkpt>
      <trkpt lat="42.07309" lon="9.14454">
        <ele>1840.1999511719</ele>
        <time>2014-05-15T07:12:41.000Z</time>
      </trkpt>
      <trkpt lat="42.07308" lon="9.14451">
        <ele>1841.1999511719</ele>
        <time>2014-05-15T07:12:47.000Z</time>
      </trkpt>
      <trkpt lat="42.07304" lon="9.14451">
        <ele>1840.8000488281</ele>
        <time>2014-05-15T07:12:53.000Z</time>
      </trkpt>
      <trkpt lat="42.07304" lon="9.1445">
        <ele>1841</ele>
        <time>2014-05-15T07:12:55.000Z</time>
      </trkpt>
      <trkpt lat="42.07303" lon="9.14446">
        <ele>1842.1999511719</ele>
        <time>2014-05-15T07:13:01.000Z</time>
      </trkpt>
      <trkpt lat="42.07302" lon="9.1444">
        <ele>1844.4000244141</ele>
        <time>2014-05-15T07:13:07.000Z</time>
      </trkpt>
      <trkpt lat="42.07302" lon="9.14437">
        <ele>1846</ele>
        <time>2014-05-15T07:13:11.000Z</time>
      </trkpt>
      <trkpt lat="42.07305" lon="9.14433">
        <ele>1847.8000488281</ele>
        <time>2014-05-15T07:13:17.000Z</time>
      </trkpt>
      <trkpt lat="42.07305" lon="9.14427">
        <ele>1850.4000244141</ele>
        <time>2014-05-15T07:13:24.000Z</time>
      </trkpt>
      <trkpt lat="42.07305" lon="9.14423">
        <ele>1852.1999511719</ele>
        <time>2014-05-15T07:13:30.000Z</time>
      </trkpt>
      <trkpt lat="42.07306" lon="9.14418">
        <ele>1853.1999511719</ele>
        <time>2014-05-15T07:13:36.000Z</time>
      </trkpt>
      <trkpt lat="42.07307" lon="9.14415">
        <ele>1853.8000488281</ele>
        <time>2014-05-15T07:13:41.000Z</time>
      </trkpt>
      <trkpt lat="42.07306" lon="9.14411">
        <ele>1855</ele>
        <time>2014-05-15T07:13:51.000Z</time>
      </trkpt>
      <trkpt lat="42.07305" lon="9.14407">
        <ele>1856</ele>
        <time>2014-05-15T07:13:56.000Z</time>
      </trkpt>
      <trkpt lat="42.07306" lon="9.14401">
        <ele>1857.1999511719</ele>
        <time>2014-05-15T07:14:02.000Z</time>
      </trkpt>
      <trkpt lat="42.07305" lon="9.14398">
        <ele>1858.1999511719</ele>
        <time>2014-05-15T07:14:08.000Z</time>
      </trkpt>
      <trkpt lat="42.07304" lon="9.14398">
        <ele>1858.1999511719</ele>
        <time>2014-05-15T07:14:19.000Z</time>
      </trkpt>
      <trkpt lat="42.07302" lon="9.14396">
        <ele>1859</ele>
        <time>2014-05-15T07:14:31.000Z</time>
      </trkpt>
      <trkpt lat="42.073" lon="9.14392">
        <ele>1860.4000244141</ele>
        <time>2014-05-15T07:14:36.000Z</time>
      </trkpt>
      <trkpt lat="42.073" lon="9.14384">
        <ele>1862.1999511719</ele>
        <time>2014-05-15T07:14:43.000Z</time>
      </trkpt>
      <trkpt lat="42.07301" lon="9.14381">
        <ele>1862.8000488281</ele>
        <time>2014-05-15T07:14:46.000Z</time>
      </trkpt>
      <trkpt lat="42.073" lon="9.1438">
        <ele>1863.1999511719</ele>
        <time>2014-05-15T07:14:49.000Z</time>
      </trkpt>
      <trkpt lat="42.07297" lon="9.14376">
        <ele>1864.4000244141</ele>
        <time>2014-05-15T07:14:55.000Z</time>
      </trkpt>
      <trkpt lat="42.07298" lon="9.14372">
        <ele>1865.1999511719</ele>
        <time>2014-05-15T07:15:00.000Z</time>
      </trkpt>
      <trkpt lat="42.07297" lon="9.14369">
        <ele>1866.1999511719</ele>
        <time>2014-05-15T07:15:04.000Z</time>
      </trkpt>
      <trkpt lat="42.07293" lon="9.14367">
        <ele>1867.1999511719</ele>
        <time>2014-05-15T07:15:09.000Z</time>
      </trkpt>
      <trkpt lat="42.07289" lon="9.14366">
        <ele>1868</ele>
        <time>2014-05-15T07:15:15.000Z</time>
      </trkpt>
      <trkpt lat="42.07286" lon="9.14364">
        <ele>1868.8000488281</ele>
        <time>2014-05-15T07:15:21.000Z</time>
      </trkpt>
      <trkpt lat="42.07282" lon="9.14361">
        <ele>1870.1999511719</ele>
        <time>2014-05-15T07:15:27.000Z</time>
      </trkpt>
      <trkpt lat="42.07277" lon="9.1436">
        <ele>1871.1999511719</ele>
        <time>2014-05-15T07:15:33.000Z</time>
      </trkpt>
      <trkpt lat="42.07271" lon="9.14358">
        <ele>1872.4000244141</ele>
        <time>2014-05-15T07:15:40.000Z</time>
      </trkpt>
      <trkpt lat="42.07263" lon="9.14358">
        <ele>1873.5999755859</ele>
        <time>2014-05-15T07:15:47.000Z</time>
      </trkpt>
      <trkpt lat="42.07261" lon="9.14357">
        <ele>1874</ele>
        <time>2014-05-15T07:15:51.000Z</time>
      </trkpt>
      <trkpt lat="42.0726" lon="9.14357">
        <ele>1874.1999511719</ele>
        <time>2014-05-15T07:15:52.000Z</time>
      </trkpt>
      <trkpt lat="42.07254" lon="9.14353">
        <ele>1875.5999755859</ele>
        <time>2014-05-15T07:15:58.000Z</time>
      </trkpt>
      <trkpt lat="42.07253" lon="9.14352">
        <ele>1876</ele>
        <time>2014-05-15T07:15:59.000Z</time>
      </trkpt>
      <trkpt lat="42.07251" lon="9.14353">
        <ele>1876.1999511719</ele>
        <time>2014-05-15T07:16:05.000Z</time>
      </trkpt>
      <trkpt lat="42.07252" lon="9.1435">
        <ele>1876.5999755859</ele>
        <time>2014-05-15T07:16:51.000Z</time>
      </trkpt>
      <trkpt lat="42.07252" lon="9.14347">
        <ele>1877</ele>
        <time>2014-05-15T07:16:53.000Z</time>
      </trkpt>
      <trkpt lat="42.07252" lon="9.14343">
        <ele>1877.8000488281</ele>
        <time>2014-05-15T07:16:56.000Z</time>
      </trkpt>
      <trkpt lat="42.0725" lon="9.14341">
        <ele>1878.1999511719</ele>
        <time>2014-05-15T07:16:58.000Z</time>
      </trkpt>
      <trkpt lat="42.07249" lon="9.14339">
        <ele>1878.8000488281</ele>
        <time>2014-05-15T07:17:00.000Z</time>
      </trkpt>
      <trkpt lat="42.07246" lon="9.14339">
        <ele>1879.1999511719</ele>
        <time>2014-05-15T07:17:03.000Z</time>
      </trkpt>
      <trkpt lat="42.07243" lon="9.14335">
        <ele>1880.1999511719</ele>
        <time>2014-05-15T07:17:07.000Z</time>
      </trkpt>
      <trkpt lat="42.07244" lon="9.14332">
        <ele>1880.5999755859</ele>
        <time>2014-05-15T07:17:09.000Z</time>
      </trkpt>
      <trkpt lat="42.07245" lon="9.14329">
        <ele>1881</ele>
        <time>2014-05-15T07:17:12.000Z</time>
      </trkpt>
      <trkpt lat="42.07243" lon="9.14323">
        <ele>1882.4000244141</ele>
        <time>2014-05-15T07:17:18.000Z</time>
      </trkpt>
      <trkpt lat="42.07243" lon="9.14322">
        <ele>1882.4000244141</ele>
        <time>2014-05-15T07:17:19.000Z</time>
      </trkpt>
      <trkpt lat="42.07239" lon="9.14317">
        <ele>1883.1999511719</ele>
        <time>2014-05-15T07:17:25.000Z</time>
      </trkpt>
      <trkpt lat="42.07239" lon="9.14312">
        <ele>1884</ele>
        <time>2014-05-15T07:17:30.000Z</time>
      </trkpt>
      <trkpt lat="42.07238" lon="9.14308">
        <ele>1884.5999755859</ele>
        <time>2014-05-15T07:17:35.000Z</time>
      </trkpt>
      <trkpt lat="42.07237" lon="9.14308">
        <ele>1884.5999755859</ele>
        <time>2014-05-15T07:17:51.000Z</time>
      </trkpt>
      <trkpt lat="42.07237" lon="9.14308">
        <ele>1884.5999755859</ele>
        <time>2014-05-15T07:17:58.000Z</time>
      </trkpt>
      <trkpt lat="42.07234" lon="9.14307">
        <ele>1884.5999755859</ele>
        <time>2014-05-15T07:18:10.000Z</time>
      </trkpt>
      <trkpt lat="42.07233" lon="9.14304">
        <ele>1885</ele>
        <time>2014-05-15T07:18:30.000Z</time>
      </trkpt>
      <trkpt lat="42.07232" lon="9.14303">
        <ele>1885.1999511719</ele>
        <time>2014-05-15T07:18:31.000Z</time>
      </trkpt>
      <trkpt lat="42.07228" lon="9.14298">
        <ele>1886</ele>
        <time>2014-05-15T07:18:38.000Z</time>
      </trkpt>
      <trkpt lat="42.07223" lon="9.14294">
        <ele>1886.4000244141</ele>
        <time>2014-05-15T07:18:45.000Z</time>
      </trkpt>
      <trkpt lat="42.07222" lon="9.14293">
        <ele>1886.4000244141</ele>
        <time>2014-05-15T07:18:46.000Z</time>
      </trkpt>
      <trkpt lat="42.07222" lon="9.14293">
        <ele>1886.1999511719</ele>
        <time>2014-05-15T07:18:47.000Z</time>
      </trkpt>
      <trkpt lat="42.0722" lon="9.14295">
        <ele>1885.8000488281</ele>
        <time>2014-05-15T07:18:50.000Z</time>
      </trkpt>
      <trkpt lat="42.07217" lon="9.14297">
        <ele>1885.5999755859</ele>
        <time>2014-05-15T07:18:53.000Z</time>
      </trkpt>
      <trkpt lat="42.07215" lon="9.14294">
        <ele>1885.8000488281</ele>
        <time>2014-05-15T07:18:56.000Z</time>
      </trkpt>
      <trkpt lat="42.07211" lon="9.1429">
        <ele>1886.4000244141</ele>
        <time>2014-05-15T07:19:01.000Z</time>
      </trkpt>
      <trkpt lat="42.07209" lon="9.14289">
        <ele>1886.4000244141</ele>
        <time>2014-05-15T07:19:03.000Z</time>
      </trkpt>
      <trkpt lat="42.07207" lon="9.14286">
        <ele>1886.8000488281</ele>
        <time>2014-05-15T07:19:07.000Z</time>
      </trkpt>
      <trkpt lat="42.07207" lon="9.14285">
        <ele>1887</ele>
        <time>2014-05-15T07:19:09.000Z</time>
      </trkpt>
      <trkpt lat="42.07208" lon="9.14285">
        <ele>1887</ele>
        <time>2014-05-15T07:19:16.000Z</time>
      </trkpt>
      <trkpt lat="42.07208" lon="9.14289">
        <ele>1886.4000244141</ele>
        <time>2014-05-15T07:19:21.000Z</time>
      </trkpt>
      <trkpt lat="42.07208" lon="9.14292">
        <ele>1885.8000488281</ele>
        <time>2014-05-15T07:19:27.000Z</time>
      </trkpt>
      <trkpt lat="42.07208" lon="9.14293">
        <ele>1885.8000488281</ele>
        <time>2014-05-15T07:19:33.000Z</time>
      </trkpt>
      <trkpt lat="42.07207" lon="9.14289">
        <ele>1886.4000244141</ele>
        <time>2014-05-15T07:19:43.000Z</time>
      </trkpt>
      <trkpt lat="42.07208" lon="9.1428">
        <ele>1887.8000488281</ele>
        <time>2014-05-15T07:19:57.000Z</time>
      </trkpt>
      <trkpt lat="42.07206" lon="9.14275">
        <ele>1888.4000244141</ele>
        <time>2014-05-15T07:20:01.000Z</time>
      </trkpt>
      <trkpt lat="42.07208" lon="9.14273">
        <ele>1888.8000488281</ele>
        <time>2014-05-15T07:20:03.000Z</time>
      </trkpt>
      <trkpt lat="42.07209" lon="9.14271">
        <ele>1888.8000488281</ele>
        <time>2014-05-15T07:20:08.000Z</time>
      </trkpt>
      <trkpt lat="42.07207" lon="9.14275">
        <ele>1888.4000244141</ele>
        <time>2014-05-15T07:20:19.000Z</time>
      </trkpt>
      <trkpt lat="42.07208" lon="9.14277">
        <ele>1888.4000244141</ele>
        <time>2014-05-15T07:20:26.000Z</time>
      </trkpt>
      <trkpt lat="42.07208" lon="9.1428">
        <ele>1888</ele>
        <time>2014-05-15T07:20:31.000Z</time>
      </trkpt>
      <trkpt lat="42.07208" lon="9.14283">
        <ele>1887.4000244141</ele>
        <time>2014-05-15T07:20:50.000Z</time>
      </trkpt>
      <trkpt lat="42.07208" lon="9.14285">
        <ele>1887</ele>
        <time>2014-05-15T07:20:52.000Z</time>
      </trkpt>
      <trkpt lat="42.07207" lon="9.14291">
        <ele>1886</ele>
        <time>2014-05-15T07:20:55.000Z</time>
      </trkpt>
      <trkpt lat="42.07204" lon="9.14291">
        <ele>1885.8000488281</ele>
        <time>2014-05-15T07:20:57.000Z</time>
      </trkpt>
      <trkpt lat="42.07202" lon="9.14291">
        <ele>1885.5999755859</ele>
        <time>2014-05-15T07:21:01.000Z</time>
      </trkpt>
      <trkpt lat="42.07202" lon="9.14291">
        <ele>1885.5999755859</ele>
        <time>2014-05-15T07:21:03.000Z</time>
      </trkpt>
      <trkpt lat="42.07202" lon="9.14287">
        <ele>1886.4000244141</ele>
        <time>2014-05-15T07:21:17.000Z</time>
      </trkpt>
      <trkpt lat="42.072" lon="9.14288">
        <ele>1886.1999511719</ele>
        <time>2014-05-15T07:21:20.000Z</time>
      </trkpt>
      <trkpt lat="42.07198" lon="9.14288">
        <ele>1886</ele>
        <time>2014-05-15T07:21:22.000Z</time>
      </trkpt>
      <trkpt lat="42.07197" lon="9.14291">
        <ele>1885.5999755859</ele>
        <time>2014-05-15T07:21:26.000Z</time>
      </trkpt>
      <trkpt lat="42.07197" lon="9.14291">
        <ele>1885.4000244141</ele>
        <time>2014-05-15T07:21:27.000Z</time>
      </trkpt>
      <trkpt lat="42.07194" lon="9.1429">
        <ele>1885.5999755859</ele>
        <time>2014-05-15T07:21:36.000Z</time>
      </trkpt>
      <trkpt lat="42.07192" lon="9.14296">
        <ele>1884.5999755859</ele>
        <time>2014-05-15T07:21:41.000Z</time>
      </trkpt>
      <trkpt lat="42.07185" lon="9.14301">
        <ele>1883.1999511719</ele>
        <time>2014-05-15T07:21:48.000Z</time>
      </trkpt>
      <trkpt lat="42.0718" lon="9.14305">
        <ele>1882.1999511719</ele>
        <time>2014-05-15T07:21:53.000Z</time>
      </trkpt>
      <trkpt lat="42.0718" lon="9.14305">
        <ele>1882.1999511719</ele>
        <time>2014-05-15T07:21:54.000Z</time>
      </trkpt>
      <trkpt lat="42.07179" lon="9.14304">
        <ele>1882.1999511719</ele>
        <time>2014-05-15T07:22:02.000Z</time>
      </trkpt>
      <trkpt lat="42.07179" lon="9.14296">
        <ele>1883.8000488281</ele>
        <time>2014-05-15T07:22:10.000Z</time>
      </trkpt>
      <trkpt lat="42.0718" lon="9.1429">
        <ele>1884.8000488281</ele>
        <time>2014-05-15T07:22:16.000Z</time>
      </trkpt>
      <trkpt lat="42.07179" lon="9.14289">
        <ele>1885</ele>
        <time>2014-05-15T07:22:17.000Z</time>
      </trkpt>
      <trkpt lat="42.0718" lon="9.14284">
        <ele>1885.8000488281</ele>
        <time>2014-05-15T07:22:22.000Z</time>
      </trkpt>
      <trkpt lat="42.07182" lon="9.14279">
        <ele>1886.8000488281</ele>
        <time>2014-05-15T07:22:26.000Z</time>
      </trkpt>
      <trkpt lat="42.07181" lon="9.14273">
        <ele>1887.4000244141</ele>
        <time>2014-05-15T07:22:31.000Z</time>
      </trkpt>
      <trkpt lat="42.0718" lon="9.14272">
        <ele>1887.4000244141</ele>
        <time>2014-05-15T07:22:36.000Z</time>
      </trkpt>
      <trkpt lat="42.07179" lon="9.14266">
        <ele>1888</ele>
        <time>2014-05-15T07:22:41.000Z</time>
      </trkpt>
      <trkpt lat="42.07181" lon="9.14259">
        <ele>1888.5999755859</ele>
        <time>2014-05-15T07:22:47.000Z</time>
      </trkpt>
      <trkpt lat="42.07179" lon="9.14257">
        <ele>1888.5999755859</ele>
        <time>2014-05-15T07:22:51.000Z</time>
      </trkpt>
      <trkpt lat="42.07175" lon="9.14253">
        <ele>1888.8000488281</ele>
        <time>2014-05-15T07:22:56.000Z</time>
      </trkpt>
      <trkpt lat="42.07175" lon="9.14252">
        <ele>1888.8000488281</ele>
        <time>2014-05-15T07:22:57.000Z</time>
      </trkpt>
      <trkpt lat="42.07172" lon="9.14244">
        <ele>1889.4000244141</ele>
        <time>2014-05-15T07:23:04.000Z</time>
      </trkpt>
      <trkpt lat="42.07168" lon="9.14238">
        <ele>1889.5999755859</ele>
        <time>2014-05-15T07:23:11.000Z</time>
      </trkpt>
      <trkpt lat="42.07165" lon="9.14236">
        <ele>1889.8000488281</ele>
        <time>2014-05-15T07:23:14.000Z</time>
      </trkpt>
      <trkpt lat="42.07164" lon="9.14235">
        <ele>1889.8000488281</ele>
        <time>2014-05-15T07:23:16.000Z</time>
      </trkpt>
      <trkpt lat="42.07163" lon="9.14233">
        <ele>1889.8000488281</ele>
        <time>2014-05-15T07:23:18.000Z</time>
      </trkpt>
      <trkpt lat="42.07161" lon="9.14231">
        <ele>1890</ele>
        <time>2014-05-15T07:23:21.000Z</time>
      </trkpt>
      <trkpt lat="42.07159" lon="9.14231">
        <ele>1890</ele>
        <time>2014-05-15T07:23:23.000Z</time>
      </trkpt>
      <trkpt lat="42.07158" lon="9.1423">
        <ele>1890</ele>
        <time>2014-05-15T07:23:29.000Z</time>
      </trkpt>
      <trkpt lat="42.07155" lon="9.14227">
        <ele>1890.5999755859</ele>
        <time>2014-05-15T07:23:33.000Z</time>
      </trkpt>
      <trkpt lat="42.07155" lon="9.14225">
        <ele>1890.8000488281</ele>
        <time>2014-05-15T07:23:34.000Z</time>
      </trkpt>
      <trkpt lat="42.07156" lon="9.14219">
        <ele>1891.1999511719</ele>
        <time>2014-05-15T07:23:39.000Z</time>
      </trkpt>
      <trkpt lat="42.07156" lon="9.14217">
        <ele>1891.4000244141</ele>
        <time>2014-05-15T07:23:41.000Z</time>
      </trkpt>
      <trkpt lat="42.07157" lon="9.14215">
        <ele>1891.4000244141</ele>
        <time>2014-05-15T07:23:43.000Z</time>
      </trkpt>
      <trkpt lat="42.07158" lon="9.14213">
        <ele>1891.4000244141</ele>
        <time>2014-05-15T07:23:45.000Z</time>
      </trkpt>
      <trkpt lat="42.07158" lon="9.14208">
        <ele>1892</ele>
        <time>2014-05-15T07:23:49.000Z</time>
      </trkpt>
      <trkpt lat="42.07158" lon="9.14207">
        <ele>1892</ele>
        <time>2014-05-15T07:23:50.000Z</time>
      </trkpt>
      <trkpt lat="42.07156" lon="9.14202">
        <ele>1892.5999755859</ele>
        <time>2014-05-15T07:23:54.000Z</time>
      </trkpt>
      <trkpt lat="42.07156" lon="9.14199">
        <ele>1892.8000488281</ele>
        <time>2014-05-15T07:23:56.000Z</time>
      </trkpt>
      <trkpt lat="42.07157" lon="9.14195">
        <ele>1893.1999511719</ele>
        <time>2014-05-15T07:24:01.000Z</time>
      </trkpt>
      <trkpt lat="42.07155" lon="9.14191">
        <ele>1893.8000488281</ele>
        <time>2014-05-15T07:24:07.000Z</time>
      </trkpt>
      <trkpt lat="42.07151" lon="9.14191">
        <ele>1894.1999511719</ele>
        <time>2014-05-15T07:24:14.000Z</time>
      </trkpt>
      <trkpt lat="42.0715" lon="9.1419">
        <ele>1894.4000244141</ele>
        <time>2014-05-15T07:24:15.000Z</time>
      </trkpt>
      <trkpt lat="42.07145" lon="9.14189">
        <ele>1894.8000488281</ele>
        <time>2014-05-15T07:24:20.000Z</time>
      </trkpt>
      <trkpt lat="42.07144" lon="9.14189">
        <ele>1894.8000488281</ele>
        <time>2014-05-15T07:24:21.000Z</time>
      </trkpt>
      <trkpt lat="42.07138" lon="9.14185">
        <ele>1896</ele>
        <time>2014-05-15T07:24:28.000Z</time>
      </trkpt>
      <trkpt lat="42.07138" lon="9.14184">
        <ele>1896</ele>
        <time>2014-05-15T07:24:29.000Z</time>
      </trkpt>
      <trkpt lat="42.07136" lon="9.14182">
        <ele>1896.5999755859</ele>
        <time>2014-05-15T07:24:34.000Z</time>
      </trkpt>
      <trkpt lat="42.07129" lon="9.14177">
        <ele>1897.8000488281</ele>
        <time>2014-05-15T07:24:41.000Z</time>
      </trkpt>
      <trkpt lat="42.07124" lon="9.14172">
        <ele>1899</ele>
        <time>2014-05-15T07:24:47.000Z</time>
      </trkpt>
      <trkpt lat="42.07123" lon="9.1417">
        <ele>1899.4000244141</ele>
        <time>2014-05-15T07:24:49.000Z</time>
      </trkpt>
      <trkpt lat="42.07121" lon="9.14166">
        <ele>1900.1999511719</ele>
        <time>2014-05-15T07:24:53.000Z</time>
      </trkpt>
      <trkpt lat="42.0712" lon="9.14166">
        <ele>1900.1999511719</ele>
        <time>2014-05-15T07:24:54.000Z</time>
      </trkpt>
      <trkpt lat="42.07112" lon="9.14171">
        <ele>1900</ele>
        <time>2014-05-15T07:25:01.000Z</time>
      </trkpt>
      <trkpt lat="42.07108" lon="9.14168">
        <ele>1900.8000488281</ele>
        <time>2014-05-15T07:25:06.000Z</time>
      </trkpt>
      <trkpt lat="42.07107" lon="9.14167">
        <ele>1901</ele>
        <time>2014-05-15T07:25:07.000Z</time>
      </trkpt>
      <trkpt lat="42.07107" lon="9.14166">
        <ele>1901.1999511719</ele>
        <time>2014-05-15T07:25:08.000Z</time>
      </trkpt>
      <trkpt lat="42.07108" lon="9.14166">
        <ele>1901</ele>
        <time>2014-05-15T07:25:13.000Z</time>
      </trkpt>
      <trkpt lat="42.07106" lon="9.14162">
        <ele>1901.8000488281</ele>
        <time>2014-05-15T07:25:18.000Z</time>
      </trkpt>
      <trkpt lat="42.07103" lon="9.1416">
        <ele>1902.4000244141</ele>
        <time>2014-05-15T07:25:21.000Z</time>
      </trkpt>
      <trkpt lat="42.071" lon="9.14159">
        <ele>1902.8000488281</ele>
        <time>2014-05-15T07:25:25.000Z</time>
      </trkpt>
      <trkpt lat="42.07099" lon="9.14158">
        <ele>1903</ele>
        <time>2014-05-15T07:25:26.000Z</time>
      </trkpt>
      <trkpt lat="42.07095" lon="9.14159">
        <ele>1903.1999511719</ele>
        <time>2014-05-15T07:25:31.000Z</time>
      </trkpt>
      <trkpt lat="42.07094" lon="9.14158">
        <ele>1903.1999511719</ele>
        <time>2014-05-15T07:25:32.000Z</time>
      </trkpt>
      <trkpt lat="42.07091" lon="9.14155">
        <ele>1904</ele>
        <time>2014-05-15T07:25:36.000Z</time>
      </trkpt>
      <trkpt lat="42.07086" lon="9.14152">
        <ele>1904.8000488281</ele>
        <time>2014-05-15T07:25:41.000Z</time>
      </trkpt>
      <trkpt lat="42.07083" lon="9.14152">
        <ele>1905.1999511719</ele>
        <time>2014-05-15T07:25:43.000Z</time>
      </trkpt>
      <trkpt lat="42.07079" lon="9.14146">
        <ele>1906.4000244141</ele>
        <time>2014-05-15T07:25:50.000Z</time>
      </trkpt>
      <trkpt lat="42.07079" lon="9.14145">
        <ele>1906.4000244141</ele>
        <time>2014-05-15T07:25:51.000Z</time>
      </trkpt>
      <trkpt lat="42.07076" lon="9.14143">
        <ele>1907</ele>
        <time>2014-05-15T07:25:55.000Z</time>
      </trkpt>
      <trkpt lat="42.07072" lon="9.1414">
        <ele>1907.5999755859</ele>
        <time>2014-05-15T07:26:01.000Z</time>
      </trkpt>
      <trkpt lat="42.07069" lon="9.14141">
        <ele>1907.5999755859</ele>
        <time>2014-05-15T07:26:05.000Z</time>
      </trkpt>
      <trkpt lat="42.07068" lon="9.14142">
        <ele>1907.5999755859</ele>
        <time>2014-05-15T07:26:10.000Z</time>
      </trkpt>
      <trkpt lat="42.07066" lon="9.14139">
        <ele>1908.1999511719</ele>
        <time>2014-05-15T07:26:16.000Z</time>
      </trkpt>
      <trkpt lat="42.07061" lon="9.14139">
        <ele>1908.5999755859</ele>
        <time>2014-05-15T07:26:22.000Z</time>
      </trkpt>
      <trkpt lat="42.07056" lon="9.1414">
        <ele>1908.5999755859</ele>
        <time>2014-05-15T07:26:29.000Z</time>
      </trkpt>
      <trkpt lat="42.07052" lon="9.14139">
        <ele>1909</ele>
        <time>2014-05-15T07:26:35.000Z</time>
      </trkpt>
      <trkpt lat="42.07047" lon="9.14136">
        <ele>1909.8000488281</ele>
        <time>2014-05-15T07:26:41.000Z</time>
      </trkpt>
      <trkpt lat="42.07042" lon="9.1413">
        <ele>1911</ele>
        <time>2014-05-15T07:26:48.000Z</time>
      </trkpt>
      <trkpt lat="42.07041" lon="9.14123">
        <ele>1912.1999511719</ele>
        <time>2014-05-15T07:26:55.000Z</time>
      </trkpt>
      <trkpt lat="42.07044" lon="9.14119">
        <ele>1912.5999755859</ele>
        <time>2014-05-15T07:27:00.000Z</time>
      </trkpt>
      <trkpt lat="42.07044" lon="9.14118">
        <ele>1912.8000488281</ele>
        <time>2014-05-15T07:27:02.000Z</time>
      </trkpt>
      <trkpt lat="42.07046" lon="9.14109">
        <ele>1914.4000244141</ele>
        <time>2014-05-15T07:27:09.000Z</time>
      </trkpt>
      <trkpt lat="42.07046" lon="9.14108">
        <ele>1914.5999755859</ele>
        <time>2014-05-15T07:27:10.000Z</time>
      </trkpt>
      <trkpt lat="42.07045" lon="9.14104">
        <ele>1915.8000488281</ele>
        <time>2014-05-15T07:27:14.000Z</time>
      </trkpt>
      <trkpt lat="42.07045" lon="9.14103">
        <ele>1916.1999511719</ele>
        <time>2014-05-15T07:27:15.000Z</time>
      </trkpt>
      <trkpt lat="42.07047" lon="9.141">
        <ele>1916.5999755859</ele>
        <time>2014-05-15T07:27:19.000Z</time>
      </trkpt>
      <trkpt lat="42.07048" lon="9.141">
        <ele>1916.8000488281</ele>
        <time>2014-05-15T07:27:27.000Z</time>
      </trkpt>
      <trkpt lat="42.07046" lon="9.14095">
        <ele>1918.4000244141</ele>
        <time>2014-05-15T07:28:02.000Z</time>
      </trkpt>
      <trkpt lat="42.07047" lon="9.14086">
        <ele>1920.8000488281</ele>
        <time>2014-05-15T07:28:08.000Z</time>
      </trkpt>
      <trkpt lat="42.07047" lon="9.14085">
        <ele>1921</ele>
        <time>2014-05-15T07:28:09.000Z</time>
      </trkpt>
      <trkpt lat="42.0705" lon="9.1408">
        <ele>1922</ele>
        <time>2014-05-15T07:28:13.000Z</time>
      </trkpt>
      <trkpt lat="42.07051" lon="9.14077">
        <ele>1922.1999511719</ele>
        <time>2014-05-15T07:28:15.000Z</time>
      </trkpt>
      <trkpt lat="42.0705" lon="9.14066">
        <ele>1924</ele>
        <time>2014-05-15T07:28:22.000Z</time>
      </trkpt>
      <trkpt lat="42.07051" lon="9.14056">
        <ele>1925.8000488281</ele>
        <time>2014-05-15T07:28:30.000Z</time>
      </trkpt>
      <trkpt lat="42.07052" lon="9.14048">
        <ele>1927</ele>
        <time>2014-05-15T07:28:36.000Z</time>
      </trkpt>
      <trkpt lat="42.07051" lon="9.14039">
        <ele>1928.5999755859</ele>
        <time>2014-05-15T07:28:44.000Z</time>
      </trkpt>
      <trkpt lat="42.07049" lon="9.14036">
        <ele>1929.4000244141</ele>
        <time>2014-05-15T07:28:48.000Z</time>
      </trkpt>
      <trkpt lat="42.07049" lon="9.14036">
        <ele>1929.4000244141</ele>
        <time>2014-05-15T07:28:49.000Z</time>
      </trkpt>
      <trkpt lat="42.07047" lon="9.14036">
        <ele>1930</ele>
        <time>2014-05-15T07:28:55.000Z</time>
      </trkpt>
      <trkpt lat="42.07042" lon="9.14032">
        <ele>1931.4000244141</ele>
        <time>2014-05-15T07:29:02.000Z</time>
      </trkpt>
      <trkpt lat="42.07043" lon="9.14031">
        <ele>1931.4000244141</ele>
        <time>2014-05-15T07:29:12.000Z</time>
      </trkpt>
      <trkpt lat="42.07045" lon="9.1403">
        <ele>1931</ele>
        <time>2014-05-15T07:29:17.000Z</time>
      </trkpt>
      <trkpt lat="42.07049" lon="9.14027">
        <ele>1931</ele>
        <time>2014-05-15T07:29:22.000Z</time>
      </trkpt>
      <trkpt lat="42.0705" lon="9.14023">
        <ele>1931.5999755859</ele>
        <time>2014-05-15T07:29:27.000Z</time>
      </trkpt>
      <trkpt lat="42.0705" lon="9.14016">
        <ele>1933.5999755859</ele>
        <time>2014-05-15T07:29:34.000Z</time>
      </trkpt>
      <trkpt lat="42.07051" lon="9.14011">
        <ele>1934.4000244141</ele>
        <time>2014-05-15T07:29:39.000Z</time>
      </trkpt>
      <trkpt lat="42.07052" lon="9.14009">
        <ele>1934.8000488281</ele>
        <time>2014-05-15T07:29:41.000Z</time>
      </trkpt>
      <trkpt lat="42.07054" lon="9.14007">
        <ele>1934.8000488281</ele>
        <time>2014-05-15T07:29:44.000Z</time>
      </trkpt>
      <trkpt lat="42.07056" lon="9.14002">
        <ele>1935.1999511719</ele>
        <time>2014-05-15T07:29:50.000Z</time>
      </trkpt>
      <trkpt lat="42.07058" lon="9.13998">
        <ele>1935</ele>
        <time>2014-05-15T07:29:57.000Z</time>
      </trkpt>
      <trkpt lat="42.0706" lon="9.13995">
        <ele>1935</ele>
        <time>2014-05-15T07:30:02.000Z</time>
      </trkpt>
      <trkpt lat="42.07061" lon="9.13989">
        <ele>1935.5999755859</ele>
        <time>2014-05-15T07:30:07.000Z</time>
      </trkpt>
      <trkpt lat="42.07062" lon="9.13982">
        <ele>1936.1999511719</ele>
        <time>2014-05-15T07:30:13.000Z</time>
      </trkpt>
      <trkpt lat="42.07061" lon="9.1398">
        <ele>1936.5999755859</ele>
        <time>2014-05-15T07:30:15.000Z</time>
      </trkpt>
      <trkpt lat="42.07059" lon="9.13977">
        <ele>1937.5999755859</ele>
        <time>2014-05-15T07:30:19.000Z</time>
      </trkpt>
      <trkpt lat="42.07059" lon="9.13976">
        <ele>1937.8000488281</ele>
        <time>2014-05-15T07:30:20.000Z</time>
      </trkpt>
      <trkpt lat="42.07059" lon="9.13975">
        <ele>1938</ele>
        <time>2014-05-15T07:30:21.000Z</time>
      </trkpt>
      <trkpt lat="42.0706" lon="9.13968">
        <ele>1938.4000244141</ele>
        <time>2014-05-15T07:30:27.000Z</time>
      </trkpt>
      <trkpt lat="42.0706" lon="9.13967">
        <ele>1938.5999755859</ele>
        <time>2014-05-15T07:30:28.000Z</time>
      </trkpt>
      <trkpt lat="42.07059" lon="9.13963">
        <ele>1939.4000244141</ele>
        <time>2014-05-15T07:30:32.000Z</time>
      </trkpt>
      <trkpt lat="42.07057" lon="9.1396">
        <ele>1940.4000244141</ele>
        <time>2014-05-15T07:30:36.000Z</time>
      </trkpt>
      <trkpt lat="42.07055" lon="9.13956">
        <ele>1941.5999755859</ele>
        <time>2014-05-15T07:30:42.000Z</time>
      </trkpt>
      <trkpt lat="42.07055" lon="9.13947">
        <ele>1942.5999755859</ele>
        <time>2014-05-15T07:30:50.000Z</time>
      </trkpt>
      <trkpt lat="42.07055" lon="9.13941">
        <ele>1943.8000488281</ele>
        <time>2014-05-15T07:30:56.000Z</time>
      </trkpt>
      <trkpt lat="42.07054" lon="9.13936">
        <ele>1945.1999511719</ele>
        <time>2014-05-15T07:31:03.000Z</time>
      </trkpt>
      <trkpt lat="42.07054" lon="9.13929">
        <ele>1946.5999755859</ele>
        <time>2014-05-15T07:31:09.000Z</time>
      </trkpt>
      <trkpt lat="42.07053" lon="9.13923">
        <ele>1948</ele>
        <time>2014-05-15T07:31:15.000Z</time>
      </trkpt>
      <trkpt lat="42.07053" lon="9.13918">
        <ele>1949</ele>
        <time>2014-05-15T07:31:19.000Z</time>
      </trkpt>
      <trkpt lat="42.07054" lon="9.13915">
        <ele>1949.5999755859</ele>
        <time>2014-05-15T07:31:22.000Z</time>
      </trkpt>
      <trkpt lat="42.07052" lon="9.13907">
        <ele>1951.5999755859</ele>
        <time>2014-05-15T07:31:29.000Z</time>
      </trkpt>
      <trkpt lat="42.07052" lon="9.13905">
        <ele>1952</ele>
        <time>2014-05-15T07:31:31.000Z</time>
      </trkpt>
      <trkpt lat="42.07053" lon="9.13901">
        <ele>1952.5999755859</ele>
        <time>2014-05-15T07:31:35.000Z</time>
      </trkpt>
      <trkpt lat="42.07053" lon="9.139">
        <ele>1952.8000488281</ele>
        <time>2014-05-15T07:31:36.000Z</time>
      </trkpt>
      <trkpt lat="42.07053" lon="9.139">
        <ele>1953</ele>
        <time>2014-05-15T07:31:37.000Z</time>
      </trkpt>
      <trkpt lat="42.07051" lon="9.13895">
        <ele>1954.5999755859</ele>
        <time>2014-05-15T07:31:43.000Z</time>
      </trkpt>
      <trkpt lat="42.07051" lon="9.1389">
        <ele>1955.5999755859</ele>
        <time>2014-05-15T07:31:48.000Z</time>
      </trkpt>
      <trkpt lat="42.07048" lon="9.13887">
        <ele>1957</ele>
        <time>2014-05-15T07:31:54.000Z</time>
      </trkpt>
      <trkpt lat="42.07048" lon="9.13881">
        <ele>1958.4000244141</ele>
        <time>2014-05-15T07:32:00.000Z</time>
      </trkpt>
      <trkpt lat="42.07047" lon="9.13876">
        <ele>1959.5999755859</ele>
        <time>2014-05-15T07:32:06.000Z</time>
      </trkpt>
      <trkpt lat="42.07046" lon="9.13873">
        <ele>1960.5999755859</ele>
        <time>2014-05-15T07:32:11.000Z</time>
      </trkpt>
      <trkpt lat="42.07044" lon="9.13871">
        <ele>1961.8000488281</ele>
        <time>2014-05-15T07:32:16.000Z</time>
      </trkpt>
      <trkpt lat="42.07045" lon="9.13866">
        <ele>1962.5999755859</ele>
        <time>2014-05-15T07:32:24.000Z</time>
      </trkpt>
      <trkpt lat="42.07047" lon="9.13861">
        <ele>1963</ele>
        <time>2014-05-15T07:32:30.000Z</time>
      </trkpt>
      <trkpt lat="42.07048" lon="9.13854">
        <ele>1964.1999511719</ele>
        <time>2014-05-15T07:32:37.000Z</time>
      </trkpt>
      <trkpt lat="42.07049" lon="9.13852">
        <ele>1964.1999511719</ele>
        <time>2014-05-15T07:32:43.000Z</time>
      </trkpt>
      <trkpt lat="42.0705" lon="9.13847">
        <ele>1965.1999511719</ele>
        <time>2014-05-15T07:32:49.000Z</time>
      </trkpt>
      <trkpt lat="42.0705" lon="9.13839">
        <ele>1967</ele>
        <time>2014-05-15T07:32:56.000Z</time>
      </trkpt>
      <trkpt lat="42.07049" lon="9.13835">
        <ele>1968</ele>
        <time>2014-05-15T07:33:00.000Z</time>
      </trkpt>
      <trkpt lat="42.07049" lon="9.13834">
        <ele>1968.4000244141</ele>
        <time>2014-05-15T07:33:01.000Z</time>
      </trkpt>
      <trkpt lat="42.07049" lon="9.1383">
        <ele>1969</ele>
        <time>2014-05-15T07:33:04.000Z</time>
      </trkpt>
      <trkpt lat="42.0705" lon="9.13827">
        <ele>1969.4000244141</ele>
        <time>2014-05-15T07:33:07.000Z</time>
      </trkpt>
      <trkpt lat="42.0705" lon="9.13826">
        <ele>1969.4000244141</ele>
        <time>2014-05-15T07:33:08.000Z</time>
      </trkpt>
      <trkpt lat="42.07052" lon="9.13819">
        <ele>1970.4000244141</ele>
        <time>2014-05-15T07:33:14.000Z</time>
      </trkpt>
      <trkpt lat="42.07052" lon="9.13818">
        <ele>1970.5999755859</ele>
        <time>2014-05-15T07:33:15.000Z</time>
      </trkpt>
      <trkpt lat="42.07049" lon="9.13813">
        <ele>1972.4000244141</ele>
        <time>2014-05-15T07:33:22.000Z</time>
      </trkpt>
      <trkpt lat="42.07049" lon="9.13804">
        <ele>1974</ele>
        <time>2014-05-15T07:33:30.000Z</time>
      </trkpt>
      <trkpt lat="42.07049" lon="9.13802">
        <ele>1974.4000244141</ele>
        <time>2014-05-15T07:33:32.000Z</time>
      </trkpt>
      <trkpt lat="42.07048" lon="9.13797">
        <ele>1975.5999755859</ele>
        <time>2014-05-15T07:33:36.000Z</time>
      </trkpt>
      <trkpt lat="42.07048" lon="9.13793">
        <ele>1976.4000244141</ele>
        <time>2014-05-15T07:33:41.000Z</time>
      </trkpt>
      <trkpt lat="42.07048" lon="9.1379">
        <ele>1977.1999511719</ele>
        <time>2014-05-15T07:33:48.000Z</time>
      </trkpt>
      <trkpt lat="42.07048" lon="9.13783">
        <ele>1978.1999511719</ele>
        <time>2014-05-15T07:33:55.000Z</time>
      </trkpt>
      <trkpt lat="42.0705" lon="9.13782">
        <ele>1978</ele>
        <time>2014-05-15T07:34:02.000Z</time>
      </trkpt>
      <trkpt lat="42.07054" lon="9.13779">
        <ele>1977.4000244141</ele>
        <time>2014-05-15T07:34:10.000Z</time>
      </trkpt>
      <trkpt lat="42.07057" lon="9.13778">
        <ele>1976.8000488281</ele>
        <time>2014-05-15T07:34:16.000Z</time>
      </trkpt>
      <trkpt lat="42.07058" lon="9.13776">
        <ele>1976.8000488281</ele>
        <time>2014-05-15T07:34:21.000Z</time>
      </trkpt>
      <trkpt lat="42.07061" lon="9.13771">
        <ele>1976.8000488281</ele>
        <time>2014-05-15T07:34:28.000Z</time>
      </trkpt>
      <trkpt lat="42.07061" lon="9.13773">
        <ele>1976.8000488281</ele>
        <time>2014-05-15T07:34:35.000Z</time>
      </trkpt>
      <trkpt lat="42.07057" lon="9.13778">
        <ele>1976.5999755859</ele>
        <time>2014-05-15T07:34:40.000Z</time>
      </trkpt>
      <trkpt lat="42.07057" lon="9.13778">
        <ele>1976.5999755859</ele>
        <time>2014-05-15T07:34:41.000Z</time>
      </trkpt>
      <trkpt lat="42.07054" lon="9.13778">
        <ele>1977.4000244141</ele>
        <time>2014-05-15T07:34:46.000Z</time>
      </trkpt>
      <trkpt lat="42.07052" lon="9.13779">
        <ele>1978</ele>
        <time>2014-05-15T07:34:50.000Z</time>
      </trkpt>
      <trkpt lat="42.07051" lon="9.13777">
        <ele>1978.4000244141</ele>
        <time>2014-05-15T07:34:51.000Z</time>
      </trkpt>
      <trkpt lat="42.07052" lon="9.13773">
        <ele>1979.4000244141</ele>
        <time>2014-05-15T07:34:56.000Z</time>
      </trkpt>
      <trkpt lat="42.07052" lon="9.1377">
        <ele>1979.8000488281</ele>
        <time>2014-05-15T07:35:02.000Z</time>
      </trkpt>
      <trkpt lat="42.07052" lon="9.13773">
        <ele>1979.1999511719</ele>
        <time>2014-05-15T07:35:06.000Z</time>
      </trkpt>
      <trkpt lat="42.07051" lon="9.1377">
        <ele>1980.1999511719</ele>
        <time>2014-05-15T07:35:13.000Z</time>
      </trkpt>
      <trkpt lat="42.07049" lon="9.13763">
        <ele>1982.4000244141</ele>
        <time>2014-05-15T07:35:19.000Z</time>
      </trkpt>
      <trkpt lat="42.07049" lon="9.1376">
        <ele>1983.1999511719</ele>
        <time>2014-05-15T07:35:22.000Z</time>
      </trkpt>
      <trkpt lat="42.07046" lon="9.13757">
        <ele>1984.4000244141</ele>
        <time>2014-05-15T07:35:25.000Z</time>
      </trkpt>
      <trkpt lat="42.07046" lon="9.13755">
        <ele>1985</ele>
        <time>2014-05-15T07:35:27.000Z</time>
      </trkpt>
      <trkpt lat="42.07046" lon="9.13751">
        <ele>1986</ele>
        <time>2014-05-15T07:35:31.000Z</time>
      </trkpt>
      <trkpt lat="42.07045" lon="9.13751">
        <ele>1986.4000244141</ele>
        <time>2014-05-15T07:35:32.000Z</time>
      </trkpt>
      <trkpt lat="42.07043" lon="9.13749">
        <ele>1987.4000244141</ele>
        <time>2014-05-15T07:35:39.000Z</time>
      </trkpt>
      <trkpt lat="42.07039" lon="9.13744">
        <ele>1989.8000488281</ele>
        <time>2014-05-15T07:35:45.000Z</time>
      </trkpt>
      <trkpt lat="42.07037" lon="9.13739">
        <ele>1991.4000244141</ele>
        <time>2014-05-15T07:35:51.000Z</time>
      </trkpt>
      <trkpt lat="42.07036" lon="9.13738">
        <ele>1992</ele>
        <time>2014-05-15T07:35:52.000Z</time>
      </trkpt>
      <trkpt lat="42.07034" lon="9.13732">
        <ele>1994</ele>
        <time>2014-05-15T07:36:00.000Z</time>
      </trkpt>
      <trkpt lat="42.07031" lon="9.1373">
        <ele>1995.1999511719</ele>
        <time>2014-05-15T07:36:07.000Z</time>
      </trkpt>
      <trkpt lat="42.07024" lon="9.13729">
        <ele>1997.5999755859</ele>
        <time>2014-05-15T07:36:15.000Z</time>
      </trkpt>
      <trkpt lat="42.07018" lon="9.13729">
        <ele>1999.5999755859</ele>
        <time>2014-05-15T07:36:22.000Z</time>
      </trkpt>
      <trkpt lat="42.07018" lon="9.13729">
        <ele>1999.8000488281</ele>
        <time>2014-05-15T07:36:23.000Z</time>
      </trkpt>
      <trkpt lat="42.07018" lon="9.13731">
        <ele>1999</ele>
        <time>2014-05-15T07:36:25.000Z</time>
      </trkpt>
      <trkpt lat="42.07017" lon="9.13732">
        <ele>1999</ele>
        <time>2014-05-15T07:36:26.000Z</time>
      </trkpt>
      <trkpt lat="42.07015" lon="9.13732">
        <ele>1999.8000488281</ele>
        <time>2014-05-15T07:36:30.000Z</time>
      </trkpt>
      <trkpt lat="42.0701" lon="9.13734">
        <ele>2000.5999755859</ele>
        <time>2014-05-15T07:36:35.000Z</time>
      </trkpt>
      <trkpt lat="42.07008" lon="9.13735">
        <ele>2001.1999511719</ele>
        <time>2014-05-15T07:36:37.000Z</time>
      </trkpt>
      <trkpt lat="42.07001" lon="9.13736">
        <ele>2003</ele>
        <time>2014-05-15T07:36:44.000Z</time>
      </trkpt>
      <trkpt lat="42.06995" lon="9.13738">
        <ele>2004.4000244141</ele>
        <time>2014-05-15T07:36:50.000Z</time>
      </trkpt>
      <trkpt lat="42.06987" lon="9.13742">
        <ele>2004.5999755859</ele>
        <time>2014-05-15T07:36:58.000Z</time>
      </trkpt>
      <trkpt lat="42.06982" lon="9.13744">
        <ele>2004.4000244141</ele>
        <time>2014-05-15T07:37:06.000Z</time>
      </trkpt>
      <trkpt lat="42.06979" lon="9.13747">
        <ele>2003.8000488281</ele>
        <time>2014-05-15T07:37:13.000Z</time>
      </trkpt>
      <trkpt lat="42.06976" lon="9.13745">
        <ele>2004.5999755859</ele>
        <time>2014-05-15T07:37:21.000Z</time>
      </trkpt>
      <trkpt lat="42.06976" lon="9.1374">
        <ele>2005.8000488281</ele>
        <time>2014-05-15T07:37:26.000Z</time>
      </trkpt>
      <trkpt lat="42.06976" lon="9.13734">
        <ele>2007</ele>
        <time>2014-05-15T07:37:30.000Z</time>
      </trkpt>
      <trkpt lat="42.06976" lon="9.13732">
        <ele>2007.5999755859</ele>
        <time>2014-05-15T07:37:32.000Z</time>
      </trkpt>
      <trkpt lat="42.06974" lon="9.13728">
        <ele>2008.5999755859</ele>
        <time>2014-05-15T07:37:37.000Z</time>
      </trkpt>
      <trkpt lat="42.06972" lon="9.13725">
        <ele>2009.4000244141</ele>
        <time>2014-05-15T07:37:42.000Z</time>
      </trkpt>
      <trkpt lat="42.06968" lon="9.13725">
        <ele>2009.8000488281</ele>
        <time>2014-05-15T07:37:46.000Z</time>
      </trkpt>
      <trkpt lat="42.06967" lon="9.13724">
        <ele>2010</ele>
        <time>2014-05-15T07:37:47.000Z</time>
      </trkpt>
      <trkpt lat="42.06964" lon="9.13716">
        <ele>2012</ele>
        <time>2014-05-15T07:37:54.000Z</time>
      </trkpt>
      <trkpt lat="42.06959" lon="9.13712">
        <ele>2013.4000244141</ele>
        <time>2014-05-15T07:38:00.000Z</time>
      </trkpt>
      <trkpt lat="42.06957" lon="9.13711">
        <ele>2013.8000488281</ele>
        <time>2014-05-15T07:38:02.000Z</time>
      </trkpt>
      <trkpt lat="42.06957" lon="9.1371">
        <ele>2014</ele>
        <time>2014-05-15T07:38:03.000Z</time>
      </trkpt>
      <trkpt lat="42.06957" lon="9.13705">
        <ele>2015</ele>
        <time>2014-05-15T07:38:07.000Z</time>
      </trkpt>
      <trkpt lat="42.06957" lon="9.13704">
        <ele>2015.4000244141</ele>
        <time>2014-05-15T07:38:08.000Z</time>
      </trkpt>
      <trkpt lat="42.06957" lon="9.13697">
        <ele>2017</ele>
        <time>2014-05-15T07:38:14.000Z</time>
      </trkpt>
      <trkpt lat="42.06956" lon="9.13693">
        <ele>2017.8000488281</ele>
        <time>2014-05-15T07:38:18.000Z</time>
      </trkpt>
      <trkpt lat="42.06955" lon="9.13691">
        <ele>2018.1999511719</ele>
        <time>2014-05-15T07:38:20.000Z</time>
      </trkpt>
      <trkpt lat="42.06954" lon="9.13682">
        <ele>2019.5999755859</ele>
        <time>2014-05-15T07:38:27.000Z</time>
      </trkpt>
      <trkpt lat="42.06955" lon="9.13681">
        <ele>2019.8000488281</ele>
        <time>2014-05-15T07:38:28.000Z</time>
      </trkpt>
      <trkpt lat="42.06955" lon="9.13675">
        <ele>2020.5999755859</ele>
        <time>2014-05-15T07:38:33.000Z</time>
      </trkpt>
      <trkpt lat="42.06956" lon="9.13671">
        <ele>2021.1999511719</ele>
        <time>2014-05-15T07:38:40.000Z</time>
      </trkpt>
      <trkpt lat="42.06955" lon="9.13667">
        <ele>2021.8000488281</ele>
        <time>2014-05-15T07:38:46.000Z</time>
      </trkpt>
      <trkpt lat="42.06955" lon="9.13666">
        <ele>2022.1999511719</ele>
        <time>2014-05-15T07:38:52.000Z</time>
      </trkpt>
      <trkpt lat="42.06952" lon="9.1366">
        <ele>2023.1999511719</ele>
        <time>2014-05-15T07:38:58.000Z</time>
      </trkpt>
      <trkpt lat="42.06951" lon="9.13649">
        <ele>2025</ele>
        <time>2014-05-15T07:39:06.000Z</time>
      </trkpt>
      <trkpt lat="42.0695" lon="9.13646">
        <ele>2025.8000488281</ele>
        <time>2014-05-15T07:39:09.000Z</time>
      </trkpt>
      <trkpt lat="42.0695" lon="9.13643">
        <ele>2026.5999755859</ele>
        <time>2014-05-15T07:39:12.000Z</time>
      </trkpt>
      <trkpt lat="42.06949" lon="9.13638">
        <ele>2027.4000244141</ele>
        <time>2014-05-15T07:39:16.000Z</time>
      </trkpt>
      <trkpt lat="42.06948" lon="9.13634">
        <ele>2028.1999511719</ele>
        <time>2014-05-15T07:39:19.000Z</time>
      </trkpt>
      <trkpt lat="42.06948" lon="9.13634">
        <ele>2028.4000244141</ele>
        <time>2014-05-15T07:39:20.000Z</time>
      </trkpt>
      <trkpt lat="42.06946" lon="9.13628">
        <ele>2029.5999755859</ele>
        <time>2014-05-15T07:39:25.000Z</time>
      </trkpt>
      <trkpt lat="42.06948" lon="9.13623">
        <ele>2030.5999755859</ele>
        <time>2014-05-15T07:39:30.000Z</time>
      </trkpt>
      <trkpt lat="42.06948" lon="9.13621">
        <ele>2030.8000488281</ele>
        <time>2014-05-15T07:39:31.000Z</time>
      </trkpt>
      <trkpt lat="42.06949" lon="9.1362">
        <ele>2031</ele>
        <time>2014-05-15T07:39:33.000Z</time>
      </trkpt>
      <trkpt lat="42.06949" lon="9.13618">
        <ele>2031.4000244141</ele>
        <time>2014-05-15T07:39:35.000Z</time>
      </trkpt>
      <trkpt lat="42.0695" lon="9.13615">
        <ele>2032</ele>
        <time>2014-05-15T07:39:38.000Z</time>
      </trkpt>
      <trkpt lat="42.0695" lon="9.13613">
        <ele>2032.5999755859</ele>
        <time>2014-05-15T07:39:40.000Z</time>
      </trkpt>
      <trkpt lat="42.0695" lon="9.13612">
        <ele>2032.8000488281</ele>
        <time>2014-05-15T07:39:41.000Z</time>
      </trkpt>
      <trkpt lat="42.06948" lon="9.13605">
        <ele>2034</ele>
        <time>2014-05-15T07:39:46.000Z</time>
      </trkpt>
      <trkpt lat="42.06947" lon="9.13604">
        <ele>2034.1999511719</ele>
        <time>2014-05-15T07:39:47.000Z</time>
      </trkpt>
      <trkpt lat="42.06944" lon="9.13596">
        <ele>2035.4000244141</ele>
        <time>2014-05-15T07:39:53.000Z</time>
      </trkpt>
      <trkpt lat="42.06942" lon="9.13593">
        <ele>2036</ele>
        <time>2014-05-15T07:39:57.000Z</time>
      </trkpt>
      <trkpt lat="42.06941" lon="9.13591">
        <ele>2036.4000244141</ele>
        <time>2014-05-15T07:40:00.000Z</time>
      </trkpt>
      <trkpt lat="42.0694" lon="9.13589">
        <ele>2036.5999755859</ele>
        <time>2014-05-15T07:40:02.000Z</time>
      </trkpt>
      <trkpt lat="42.06939" lon="9.13589">
        <ele>2036.5999755859</ele>
        <time>2014-05-15T07:40:03.000Z</time>
      </trkpt>
      <trkpt lat="42.06937" lon="9.13586">
        <ele>2037.1999511719</ele>
        <time>2014-05-15T07:40:06.000Z</time>
      </trkpt>
      <trkpt lat="42.06935" lon="9.13582">
        <ele>2037.8000488281</ele>
        <time>2014-05-15T07:40:11.000Z</time>
      </trkpt>
      <trkpt lat="42.06934" lon="9.1358">
        <ele>2038.1999511719</ele>
        <time>2014-05-15T07:40:13.000Z</time>
      </trkpt>
      <trkpt lat="42.06931" lon="9.13575">
        <ele>2039</ele>
        <time>2014-05-15T07:40:17.000Z</time>
      </trkpt>
      <trkpt lat="42.06931" lon="9.13571">
        <ele>2039.5999755859</ele>
        <time>2014-05-15T07:40:20.000Z</time>
      </trkpt>
      <trkpt lat="42.06931" lon="9.13566">
        <ele>2040.4000244141</ele>
        <time>2014-05-15T07:40:24.000Z</time>
      </trkpt>
      <trkpt lat="42.06929" lon="9.13561">
        <ele>2041.1999511719</ele>
        <time>2014-05-15T07:40:30.000Z</time>
      </trkpt>
      <trkpt lat="42.06929" lon="9.13556">
        <ele>2042</ele>
        <time>2014-05-15T07:40:34.000Z</time>
      </trkpt>
      <trkpt lat="42.06929" lon="9.13555">
        <ele>2042.1999511719</ele>
        <time>2014-05-15T07:40:36.000Z</time>
      </trkpt>
      <trkpt lat="42.06929" lon="9.13554">
        <ele>2042.4000244141</ele>
        <time>2014-05-15T07:40:37.000Z</time>
      </trkpt>
      <trkpt lat="42.06927" lon="9.13548">
        <ele>2043.4000244141</ele>
        <time>2014-05-15T07:40:42.000Z</time>
      </trkpt>
      <trkpt lat="42.06925" lon="9.13543">
        <ele>2044.1999511719</ele>
        <time>2014-05-15T07:40:46.000Z</time>
      </trkpt>
      <trkpt lat="42.06924" lon="9.13539">
        <ele>2044.8000488281</ele>
        <time>2014-05-15T07:40:49.000Z</time>
      </trkpt>
      <trkpt lat="42.06924" lon="9.13536">
        <ele>2045.4000244141</ele>
        <time>2014-05-15T07:40:51.000Z</time>
      </trkpt>
      <trkpt lat="42.06925" lon="9.13529">
        <ele>2046.5999755859</ele>
        <time>2014-05-15T07:40:56.000Z</time>
      </trkpt>
      <trkpt lat="42.06925" lon="9.13524">
        <ele>2047.4000244141</ele>
        <time>2014-05-15T07:41:01.000Z</time>
      </trkpt>
      <trkpt lat="42.06924" lon="9.13523">
        <ele>2047.5999755859</ele>
        <time>2014-05-15T07:41:02.000Z</time>
      </trkpt>
      <trkpt lat="42.06923" lon="9.13521">
        <ele>2048</ele>
        <time>2014-05-15T07:41:06.000Z</time>
      </trkpt>
      <trkpt lat="42.06919" lon="9.13522">
        <ele>2047.8000488281</ele>
        <time>2014-05-15T07:41:10.000Z</time>
      </trkpt>
      <trkpt lat="42.06919" lon="9.13522">
        <ele>2047.8000488281</ele>
        <time>2014-05-15T07:41:20.000Z</time>
      </trkpt>
      <trkpt lat="42.06916" lon="9.13517">
        <ele>2048.3999023438</ele>
        <time>2014-05-15T07:41:28.000Z</time>
      </trkpt>
      <trkpt lat="42.06915" lon="9.13508">
        <ele>2049.8000488281</ele>
        <time>2014-05-15T07:41:34.000Z</time>
      </trkpt>
      <trkpt lat="42.06914" lon="9.13507">
        <ele>2050</ele>
        <time>2014-05-15T07:41:36.000Z</time>
      </trkpt>
      <trkpt lat="42.06913" lon="9.13505">
        <ele>2050.1999511719</ele>
        <time>2014-05-15T07:41:40.000Z</time>
      </trkpt>
      <trkpt lat="42.06912" lon="9.13504">
        <ele>2050.3999023438</ele>
        <time>2014-05-15T07:41:50.000Z</time>
      </trkpt>
      <trkpt lat="42.06909" lon="9.13505">
        <ele>2050.3999023438</ele>
        <time>2014-05-15T07:42:01.000Z</time>
      </trkpt>
      <trkpt lat="42.06904" lon="9.13505">
        <ele>2051.8000488281</ele>
        <time>2014-05-15T07:42:08.000Z</time>
      </trkpt>
      <trkpt lat="42.06902" lon="9.13505">
        <ele>2052.3999023438</ele>
        <time>2014-05-15T07:42:14.000Z</time>
      </trkpt>
      <trkpt lat="42.06896" lon="9.13509">
        <ele>2053.6000976562</ele>
        <time>2014-05-15T07:42:20.000Z</time>
      </trkpt>
      <trkpt lat="42.06889" lon="9.13512">
        <ele>2054.8000488281</ele>
        <time>2014-05-15T07:42:26.000Z</time>
      </trkpt>
      <trkpt lat="42.06888" lon="9.13512">
        <ele>2055.1999511719</ele>
        <time>2014-05-15T07:42:31.000Z</time>
      </trkpt>
      <trkpt lat="42.06889" lon="9.1351">
        <ele>2055.3999023438</ele>
        <time>2014-05-15T07:42:33.000Z</time>
      </trkpt>
      <trkpt lat="42.0689" lon="9.13508">
        <ele>2055.3999023438</ele>
        <time>2014-05-15T07:42:35.000Z</time>
      </trkpt>
      <trkpt lat="42.06892" lon="9.13507">
        <ele>2055</ele>
        <time>2014-05-15T07:42:36.000Z</time>
      </trkpt>
      <trkpt lat="42.06896" lon="9.13503">
        <ele>2054.3999023438</ele>
        <time>2014-05-15T07:42:41.000Z</time>
      </trkpt>
      <trkpt lat="42.06898" lon="9.13494">
        <ele>2055.1999511719</ele>
        <time>2014-05-15T07:42:47.000Z</time>
      </trkpt>
      <trkpt lat="42.06902" lon="9.13482">
        <ele>2055.6000976562</ele>
        <time>2014-05-15T07:42:55.000Z</time>
      </trkpt>
      <trkpt lat="42.06904" lon="9.13473">
        <ele>2056.3999023438</ele>
        <time>2014-05-15T07:43:01.000Z</time>
      </trkpt>
      <trkpt lat="42.06906" lon="9.13464">
        <ele>2057.1999511719</ele>
        <time>2014-05-15T07:43:08.000Z</time>
      </trkpt>
      <trkpt lat="42.06905" lon="9.13462">
        <ele>2057.6000976562</ele>
        <time>2014-05-15T07:43:09.000Z</time>
      </trkpt>
      <trkpt lat="42.06906" lon="9.13461">
        <ele>2057.8000488281</ele>
        <time>2014-05-15T07:43:10.000Z</time>
      </trkpt>
      <trkpt lat="42.06908" lon="9.13456">
        <ele>2057.6000976562</ele>
        <time>2014-05-15T07:43:14.000Z</time>
      </trkpt>
      <trkpt lat="42.06911" lon="9.13446">
        <ele>2058.8000488281</ele>
        <time>2014-05-15T07:43:21.000Z</time>
      </trkpt>
      <trkpt lat="42.06914" lon="9.13434">
        <ele>2061.1999511719</ele>
        <time>2014-05-15T07:43:30.000Z</time>
      </trkpt>
      <trkpt lat="42.06915" lon="9.13432">
        <ele>2061.8000488281</ele>
        <time>2014-05-15T07:43:33.000Z</time>
      </trkpt>
      <trkpt lat="42.06916" lon="9.13428">
        <ele>2062.8000488281</ele>
        <time>2014-05-15T07:43:37.000Z</time>
      </trkpt>
      <trkpt lat="42.0692" lon="9.13419">
        <ele>2064.6000976562</ele>
        <time>2014-05-15T07:43:44.000Z</time>
      </trkpt>
      <trkpt lat="42.06924" lon="9.1341">
        <ele>2066.8000488281</ele>
        <time>2014-05-15T07:43:51.000Z</time>
      </trkpt>
      <trkpt lat="42.06929" lon="9.13404">
        <ele>2068.3999023438</ele>
        <time>2014-05-15T07:43:58.000Z</time>
      </trkpt>
      <trkpt lat="42.06936" lon="9.13399">
        <ele>2069.8000488281</ele>
        <time>2014-05-15T07:44:05.000Z</time>
      </trkpt>
      <trkpt lat="42.06943" lon="9.13394">
        <ele>2071.1999511719</ele>
        <time>2014-05-15T07:44:12.000Z</time>
      </trkpt>
      <trkpt lat="42.0695" lon="9.13388">
        <ele>2073.3999023438</ele>
        <time>2014-05-15T07:44:21.000Z</time>
      </trkpt>
      <trkpt lat="42.0695" lon="9.13383">
        <ele>2074.8000488281</ele>
        <time>2014-05-15T07:44:25.000Z</time>
      </trkpt>
      <trkpt lat="42.06949" lon="9.13379">
        <ele>2075.6000976562</ele>
        <time>2014-05-15T07:44:29.000Z</time>
      </trkpt>
      <trkpt lat="42.06948" lon="9.13377">
        <ele>2076</ele>
        <time>2014-05-15T07:44:31.000Z</time>
      </trkpt>
      <trkpt lat="42.06944" lon="9.13369">
        <ele>2077.6000976562</ele>
        <time>2014-05-15T07:44:38.000Z</time>
      </trkpt>
      <trkpt lat="42.06943" lon="9.13369">
        <ele>2077.6000976562</ele>
        <time>2014-05-15T07:44:39.000Z</time>
      </trkpt>
      <trkpt lat="42.06939" lon="9.13365">
        <ele>2078</ele>
        <time>2014-05-15T07:44:43.000Z</time>
      </trkpt>
      <trkpt lat="42.06939" lon="9.1336">
        <ele>2079.3999023438</ele>
        <time>2014-05-15T07:44:49.000Z</time>
      </trkpt>
      <trkpt lat="42.06942" lon="9.13354">
        <ele>2081.3999023438</ele>
        <time>2014-05-15T07:44:56.000Z</time>
      </trkpt>
      <trkpt lat="42.06942" lon="9.13349">
        <ele>2082.3999023438</ele>
        <time>2014-05-15T07:45:01.000Z</time>
      </trkpt>
      <trkpt lat="42.0694" lon="9.13344">
        <ele>2083.8000488281</ele>
        <time>2014-05-15T07:45:08.000Z</time>
      </trkpt>
      <trkpt lat="42.06939" lon="9.13343">
        <ele>2083.8000488281</ele>
        <time>2014-05-15T07:45:12.000Z</time>
      </trkpt>
      <trkpt lat="42.06936" lon="9.1334">
        <ele>2084.1999511719</ele>
        <time>2014-05-15T07:45:17.000Z</time>
      </trkpt>
      <trkpt lat="42.06933" lon="9.13334">
        <ele>2085.6000976562</ele>
        <time>2014-05-15T07:45:23.000Z</time>
      </trkpt>
      <trkpt lat="42.06934" lon="9.13332">
        <ele>2086.1999511719</ele>
        <time>2014-05-15T07:45:29.000Z</time>
      </trkpt>
      <trkpt lat="42.06937" lon="9.1333">
        <ele>2087.1999511719</ele>
        <time>2014-05-15T07:45:35.000Z</time>
      </trkpt>
      <trkpt lat="42.06935" lon="9.13325">
        <ele>2088</ele>
        <time>2014-05-15T07:45:41.000Z</time>
      </trkpt>
      <trkpt lat="42.06933" lon="9.13324">
        <ele>2088.1999511719</ele>
        <time>2014-05-15T07:45:47.000Z</time>
      </trkpt>
      <trkpt lat="42.0693" lon="9.13321">
        <ele>2088.6000976562</ele>
        <time>2014-05-15T07:45:53.000Z</time>
      </trkpt>
      <trkpt lat="42.06927" lon="9.13319">
        <ele>2088.8000488281</ele>
        <time>2014-05-15T07:45:57.000Z</time>
      </trkpt>
      <trkpt lat="42.06926" lon="9.13319">
        <ele>2089</ele>
        <time>2014-05-15T07:45:58.000Z</time>
      </trkpt>
      <trkpt lat="42.06922" lon="9.13314">
        <ele>2089.6000976562</ele>
        <time>2014-05-15T07:46:03.000Z</time>
      </trkpt>
      <trkpt lat="42.0692" lon="9.13313">
        <ele>2089.8000488281</ele>
        <time>2014-05-15T07:46:05.000Z</time>
      </trkpt>
      <trkpt lat="42.06917" lon="9.13311">
        <ele>2090</ele>
        <time>2014-05-15T07:46:11.000Z</time>
      </trkpt>
      <trkpt lat="42.06914" lon="9.13304">
        <ele>2091.3999023438</ele>
        <time>2014-05-15T07:46:17.000Z</time>
      </trkpt>
      <trkpt lat="42.06914" lon="9.13303">
        <ele>2091.6000976562</ele>
        <time>2014-05-15T07:46:18.000Z</time>
      </trkpt>
      <trkpt lat="42.06913" lon="9.13299">
        <ele>2092.6000976562</ele>
        <time>2014-05-15T07:46:23.000Z</time>
      </trkpt>
      <trkpt lat="42.06911" lon="9.13297">
        <ele>2093</ele>
        <time>2014-05-15T07:46:25.000Z</time>
      </trkpt>
      <trkpt lat="42.0691" lon="9.13292">
        <ele>2094.1999511719</ele>
        <time>2014-05-15T07:46:30.000Z</time>
      </trkpt>
      <trkpt lat="42.06907" lon="9.13287">
        <ele>2095.8000488281</ele>
        <time>2014-05-15T07:46:37.000Z</time>
      </trkpt>
      <trkpt lat="42.06904" lon="9.13282">
        <ele>2097.3999023438</ele>
        <time>2014-05-15T07:46:43.000Z</time>
      </trkpt>
      <trkpt lat="42.069" lon="9.13277">
        <ele>2099.1999511719</ele>
        <time>2014-05-15T07:46:50.000Z</time>
      </trkpt>
      <trkpt lat="42.06897" lon="9.13274">
        <ele>2100.3999023438</ele>
        <time>2014-05-15T07:46:56.000Z</time>
      </trkpt>
      <trkpt lat="42.06895" lon="9.13274">
        <ele>2100.6000976562</ele>
        <time>2014-05-15T07:47:01.000Z</time>
      </trkpt>
      <trkpt lat="42.0689" lon="9.13276">
        <ele>2100.6000976562</ele>
        <time>2014-05-15T07:47:07.000Z</time>
      </trkpt>
      <trkpt lat="42.06888" lon="9.13275">
        <ele>2101</ele>
        <time>2014-05-15T07:47:09.000Z</time>
      </trkpt>
      <trkpt lat="42.06888" lon="9.13275">
        <ele>2101.1999511719</ele>
        <time>2014-05-15T07:47:12.000Z</time>
      </trkpt>
      <trkpt lat="42.06885" lon="9.13269">
        <ele>2103</ele>
        <time>2014-05-15T07:47:18.000Z</time>
      </trkpt>
      <trkpt lat="42.06884" lon="9.13265">
        <ele>2104</ele>
        <time>2014-05-15T07:47:22.000Z</time>
      </trkpt>
      <trkpt lat="42.06883" lon="9.13263">
        <ele>2104.6000976562</ele>
        <time>2014-05-15T07:47:24.000Z</time>
      </trkpt>
      <trkpt lat="42.06882" lon="9.13256">
        <ele>2106.8000488281</ele>
        <time>2014-05-15T07:47:30.000Z</time>
      </trkpt>
      <trkpt lat="42.06884" lon="9.13248">
        <ele>2108.6000976562</ele>
        <time>2014-05-15T07:47:36.000Z</time>
      </trkpt>
      <trkpt lat="42.06885" lon="9.13248">
        <ele>2108.8000488281</ele>
        <time>2014-05-15T07:47:37.000Z</time>
      </trkpt>
      <trkpt lat="42.06888" lon="9.13241">
        <ele>2111</ele>
        <time>2014-05-15T07:47:43.000Z</time>
      </trkpt>
      <trkpt lat="42.06891" lon="9.13234">
        <ele>2113.3999023438</ele>
        <time>2014-05-15T07:47:51.000Z</time>
      </trkpt>
      <trkpt lat="42.06891" lon="9.13233">
        <ele>2113.8000488281</ele>
        <time>2014-05-15T07:47:52.000Z</time>
      </trkpt>
      <trkpt lat="42.06895" lon="9.1323">
        <ele>2115</ele>
        <time>2014-05-15T07:47:56.000Z</time>
      </trkpt>
      <trkpt lat="42.06898" lon="9.13222">
        <ele>2117.3999023438</ele>
        <time>2014-05-15T07:48:04.000Z</time>
      </trkpt>
      <trkpt lat="42.06897" lon="9.1322">
        <ele>2118.1999511719</ele>
        <time>2014-05-15T07:48:10.000Z</time>
      </trkpt>
      <trkpt lat="42.06894" lon="9.13212">
        <ele>2121</ele>
        <time>2014-05-15T07:48:19.000Z</time>
      </trkpt>
      <trkpt lat="42.06895" lon="9.13206">
        <ele>2123.1999511719</ele>
        <time>2014-05-15T07:48:25.000Z</time>
      </trkpt>
      <trkpt lat="42.06894" lon="9.13199">
        <ele>2125.3999023438</ele>
        <time>2014-05-15T07:48:32.000Z</time>
      </trkpt>
      <trkpt lat="42.06891" lon="9.13196">
        <ele>2126.6000976562</ele>
        <time>2014-05-15T07:48:37.000Z</time>
      </trkpt>
      <trkpt lat="42.06888" lon="9.13193">
        <ele>2127.8000488281</ele>
        <time>2014-05-15T07:48:42.000Z</time>
      </trkpt>
      <trkpt lat="42.06888" lon="9.13188">
        <ele>2129.1999511719</ele>
        <time>2014-05-15T07:48:48.000Z</time>
      </trkpt>
      <trkpt lat="42.06886" lon="9.13183">
        <ele>2130.8000488281</ele>
        <time>2014-05-15T07:48:55.000Z</time>
      </trkpt>
      <trkpt lat="42.0688" lon="9.13179">
        <ele>2132.1999511719</ele>
        <time>2014-05-15T07:49:03.000Z</time>
      </trkpt>
      <trkpt lat="42.06878" lon="9.13175">
        <ele>2133.1999511719</ele>
        <time>2014-05-15T07:49:07.000Z</time>
      </trkpt>
      <trkpt lat="42.06877" lon="9.13172">
        <ele>2134</ele>
        <time>2014-05-15T07:49:10.000Z</time>
      </trkpt>
      <trkpt lat="42.06873" lon="9.13168">
        <ele>2135.1999511719</ele>
        <time>2014-05-15T07:49:17.000Z</time>
      </trkpt>
      <trkpt lat="42.06871" lon="9.13166">
        <ele>2135.8000488281</ele>
        <time>2014-05-15T07:49:21.000Z</time>
      </trkpt>
      <trkpt lat="42.06867" lon="9.13163">
        <ele>2136.8000488281</ele>
        <time>2014-05-15T07:49:28.000Z</time>
      </trkpt>
      <trkpt lat="42.06864" lon="9.13161">
        <ele>2137.6000976562</ele>
        <time>2014-05-15T07:49:39.000Z</time>
      </trkpt>
      <trkpt lat="42.06858" lon="9.13159">
        <ele>2138.1999511719</ele>
        <time>2014-05-15T07:49:46.000Z</time>
      </trkpt>
      <trkpt lat="42.06852" lon="9.13158">
        <ele>2138.8000488281</ele>
        <time>2014-05-15T07:49:54.000Z</time>
      </trkpt>
      <trkpt lat="42.06846" lon="9.1316">
        <ele>2138.1999511719</ele>
        <time>2014-05-15T07:50:01.000Z</time>
      </trkpt>
      <trkpt lat="42.06841" lon="9.13166">
        <ele>2136.6000976562</ele>
        <time>2014-05-15T07:50:07.000Z</time>
      </trkpt>
      <trkpt lat="42.06837" lon="9.13178">
        <ele>2133.3999023438</ele>
        <time>2014-05-15T07:50:17.000Z</time>
      </trkpt>
      <trkpt lat="42.06837" lon="9.13178">
        <ele>2133.3999023438</ele>
        <time>2014-05-15T07:50:24.000Z</time>
      </trkpt>
      <trkpt lat="42.06836" lon="9.13179">
        <ele>2133</ele>
        <time>2014-05-15T07:50:29.000Z</time>
      </trkpt>
      <trkpt lat="42.06835" lon="9.13182">
        <ele>2132.1999511719</ele>
        <time>2014-05-15T07:50:35.000Z</time>
      </trkpt>
      <trkpt lat="42.06834" lon="9.13183">
        <ele>2132</ele>
        <time>2014-05-15T07:50:36.000Z</time>
      </trkpt>
      <trkpt lat="42.0683" lon="9.13186">
        <ele>2131.1999511719</ele>
        <time>2014-05-15T07:50:40.000Z</time>
      </trkpt>
      <trkpt lat="42.0683" lon="9.13187">
        <ele>2131</ele>
        <time>2014-05-15T07:50:41.000Z</time>
      </trkpt>
      <trkpt lat="42.06829" lon="9.13193">
        <ele>2129.3999023438</ele>
        <time>2014-05-15T07:50:45.000Z</time>
      </trkpt>
      <trkpt lat="42.06828" lon="9.13193">
        <ele>2129.1999511719</ele>
        <time>2014-05-15T07:50:46.000Z</time>
      </trkpt>
      <trkpt lat="42.06824" lon="9.13194">
        <ele>2128.6000976562</ele>
        <time>2014-05-15T07:50:50.000Z</time>
      </trkpt>
      <trkpt lat="42.06824" lon="9.13195">
        <ele>2128.3999023438</ele>
        <time>2014-05-15T07:50:51.000Z</time>
      </trkpt>
      <trkpt lat="42.06822" lon="9.13198">
        <ele>2127.3999023438</ele>
        <time>2014-05-15T07:50:54.000Z</time>
      </trkpt>
      <trkpt lat="42.06821" lon="9.13199">
        <ele>2127</ele>
        <time>2014-05-15T07:50:56.000Z</time>
      </trkpt>
      <trkpt lat="42.06821" lon="9.13202">
        <ele>2126.3999023438</ele>
        <time>2014-05-15T07:50:58.000Z</time>
      </trkpt>
      <trkpt lat="42.06821" lon="9.13203">
        <ele>2126.1999511719</ele>
        <time>2014-05-15T07:51:01.000Z</time>
      </trkpt>
      <trkpt lat="42.06818" lon="9.13206">
        <ele>2124.8000488281</ele>
        <time>2014-05-15T07:51:07.000Z</time>
      </trkpt>
      <trkpt lat="42.06817" lon="9.13209">
        <ele>2124</ele>
        <time>2014-05-15T07:51:10.000Z</time>
      </trkpt>
      <trkpt lat="42.06816" lon="9.13215">
        <ele>2122.3999023438</ele>
        <time>2014-05-15T07:51:13.000Z</time>
      </trkpt>
      <trkpt lat="42.06814" lon="9.13222">
        <ele>2120.6000976562</ele>
        <time>2014-05-15T07:51:18.000Z</time>
      </trkpt>
      <trkpt lat="42.06813" lon="9.13224">
        <ele>2119.8000488281</ele>
        <time>2014-05-15T07:51:20.000Z</time>
      </trkpt>
      <trkpt lat="42.06809" lon="9.13228">
        <ele>2118.1999511719</ele>
        <time>2014-05-15T07:51:26.000Z</time>
      </trkpt>
      <trkpt lat="42.06808" lon="9.13228">
        <ele>2118.1999511719</ele>
        <time>2014-05-15T07:51:32.000Z</time>
      </trkpt>
      <trkpt lat="42.06807" lon="9.13228">
        <ele>2118.1999511719</ele>
        <time>2014-05-15T07:51:42.000Z</time>
      </trkpt>
      <trkpt lat="42.06805" lon="9.13228">
        <ele>2118</ele>
        <time>2014-05-15T07:51:46.000Z</time>
      </trkpt>
      <trkpt lat="42.06804" lon="9.13229">
        <ele>2117.3999023438</ele>
        <time>2014-05-15T07:51:54.000Z</time>
      </trkpt>
      <trkpt lat="42.06802" lon="9.13231">
        <ele>2116.8000488281</ele>
        <time>2014-05-15T07:51:58.000Z</time>
      </trkpt>
      <trkpt lat="42.068" lon="9.1323">
        <ele>2116.8000488281</ele>
        <time>2014-05-15T07:52:04.000Z</time>
      </trkpt>
      <trkpt lat="42.06797" lon="9.13233">
        <ele>2115.8000488281</ele>
        <time>2014-05-15T07:52:08.000Z</time>
      </trkpt>
      <trkpt lat="42.06794" lon="9.13236">
        <ele>2114.3999023438</ele>
        <time>2014-05-15T07:52:13.000Z</time>
      </trkpt>
      <trkpt lat="42.06793" lon="9.13236">
        <ele>2114.6000976562</ele>
        <time>2014-05-15T07:52:14.000Z</time>
      </trkpt>
      <trkpt lat="42.0679" lon="9.1323">
        <ele>2115.6000976562</ele>
        <time>2014-05-15T07:52:21.000Z</time>
      </trkpt>
      <trkpt lat="42.06788" lon="9.13227">
        <ele>2116.1999511719</ele>
        <time>2014-05-15T07:52:28.000Z</time>
      </trkpt>
      <trkpt lat="42.06786" lon="9.13228">
        <ele>2115.6000976562</ele>
        <time>2014-05-15T07:52:36.000Z</time>
      </trkpt>
      <trkpt lat="42.06785" lon="9.13233">
        <ele>2114</ele>
        <time>2014-05-15T07:52:42.000Z</time>
      </trkpt>
      <trkpt lat="42.06783" lon="9.13236">
        <ele>2113.6000976562</ele>
        <time>2014-05-15T07:52:47.000Z</time>
      </trkpt>
      <trkpt lat="42.06781" lon="9.13244">
        <ele>2113</ele>
        <time>2014-05-15T07:52:54.000Z</time>
      </trkpt>
      <trkpt lat="42.06782" lon="9.13248">
        <ele>2112.8000488281</ele>
        <time>2014-05-15T07:52:59.000Z</time>
      </trkpt>
      <trkpt lat="42.0678" lon="9.13251">
        <ele>2112.6000976562</ele>
        <time>2014-05-15T07:53:05.000Z</time>
      </trkpt>
      <trkpt lat="42.0678" lon="9.13254">
        <ele>2112.3999023438</ele>
        <time>2014-05-15T07:53:07.000Z</time>
      </trkpt>
      <trkpt lat="42.0678" lon="9.13257">
        <ele>2112.1999511719</ele>
        <time>2014-05-15T07:53:10.000Z</time>
      </trkpt>
      <trkpt lat="42.06778" lon="9.13263">
        <ele>2111.8000488281</ele>
        <time>2014-05-15T07:53:17.000Z</time>
      </trkpt>
      <trkpt lat="42.06778" lon="9.13265">
        <ele>2111.8000488281</ele>
        <time>2014-05-15T07:53:18.000Z</time>
      </trkpt>
      <trkpt lat="42.06779" lon="9.13269">
        <ele>2111.3999023438</ele>
        <time>2014-05-15T07:53:22.000Z</time>
      </trkpt>
      <trkpt lat="42.06779" lon="9.1327">
        <ele>2111.3999023438</ele>
        <time>2014-05-15T07:53:23.000Z</time>
      </trkpt>
      <trkpt lat="42.0678" lon="9.13275">
        <ele>2111</ele>
        <time>2014-05-15T07:53:28.000Z</time>
      </trkpt>
      <trkpt lat="42.0678" lon="9.13276">
        <ele>2110.8000488281</ele>
        <time>2014-05-15T07:53:29.000Z</time>
      </trkpt>
      <trkpt lat="42.0678" lon="9.13283">
        <ele>2109.8000488281</ele>
        <time>2014-05-15T07:53:35.000Z</time>
      </trkpt>
      <trkpt lat="42.0678" lon="9.13283">
        <ele>2109.8000488281</ele>
        <time>2014-05-15T07:53:36.000Z</time>
      </trkpt>
      <trkpt lat="42.06778" lon="9.13286">
        <ele>2109.3999023438</ele>
        <time>2014-05-15T07:53:40.000Z</time>
      </trkpt>
      <trkpt lat="42.06778" lon="9.1329">
        <ele>2108.6000976562</ele>
        <time>2014-05-15T07:53:44.000Z</time>
      </trkpt>
      <trkpt lat="42.06777" lon="9.13295">
        <ele>2107.8000488281</ele>
        <time>2014-05-15T07:53:50.000Z</time>
      </trkpt>
      <trkpt lat="42.06779" lon="9.133">
        <ele>2107</ele>
        <time>2014-05-15T07:53:56.000Z</time>
      </trkpt>
      <trkpt lat="42.06779" lon="9.133">
        <ele>2107</ele>
        <time>2014-05-15T07:54:02.000Z</time>
      </trkpt>
      <trkpt lat="42.06778" lon="9.13304">
        <ele>2106.3999023438</ele>
        <time>2014-05-15T07:54:21.000Z</time>
      </trkpt>
      <trkpt lat="42.06777" lon="9.13308">
        <ele>2105.6000976562</ele>
        <time>2014-05-15T07:54:26.000Z</time>
      </trkpt>
      <trkpt lat="42.06776" lon="9.13308">
        <ele>2105.8000488281</ele>
        <time>2014-05-15T07:54:32.000Z</time>
      </trkpt>
      <trkpt lat="42.06773" lon="9.13309">
        <ele>2106</ele>
        <time>2014-05-15T07:54:37.000Z</time>
      </trkpt>
      <trkpt lat="42.06772" lon="9.13309">
        <ele>2106</ele>
        <time>2014-05-15T07:54:45.000Z</time>
      </trkpt>
      <trkpt lat="42.06771" lon="9.13312">
        <ele>2105.8000488281</ele>
        <time>2014-05-15T07:55:30.000Z</time>
      </trkpt>
      <trkpt lat="42.06772" lon="9.13317">
        <ele>2105.1999511719</ele>
        <time>2014-05-15T07:55:39.000Z</time>
      </trkpt>
      <trkpt lat="42.06774" lon="9.1332">
        <ele>2104.8000488281</ele>
        <time>2014-05-15T07:55:45.000Z</time>
      </trkpt>
      <trkpt lat="42.06781" lon="9.13321">
        <ele>2103.6000976562</ele>
        <time>2014-05-15T07:55:55.000Z</time>
      </trkpt>
      <trkpt lat="42.06781" lon="9.13324">
        <ele>2103.3999023438</ele>
        <time>2014-05-15T07:56:01.000Z</time>
      </trkpt>
      <trkpt lat="42.06782" lon="9.13327">
        <ele>2103</ele>
        <time>2014-05-15T07:56:07.000Z</time>
      </trkpt>
      <trkpt lat="42.06784" lon="9.13332">
        <ele>2102.1999511719</ele>
        <time>2014-05-15T07:56:18.000Z</time>
      </trkpt>
      <trkpt lat="42.06788" lon="9.13339">
        <ele>2100.8000488281</ele>
        <time>2014-05-15T07:56:26.000Z</time>
      </trkpt>
      <trkpt lat="42.0679" lon="9.13344">
        <ele>2100.1999511719</ele>
        <time>2014-05-15T07:56:31.000Z</time>
      </trkpt>
      <trkpt lat="42.06792" lon="9.13351">
        <ele>2099.1999511719</ele>
        <time>2014-05-15T07:56:39.000Z</time>
      </trkpt>
      <trkpt lat="42.06796" lon="9.13355">
        <ele>2098.1999511719</ele>
        <time>2014-05-15T07:56:46.000Z</time>
      </trkpt>
      <trkpt lat="42.06798" lon="9.13361">
        <ele>2097.3999023438</ele>
        <time>2014-05-15T07:56:52.000Z</time>
      </trkpt>
      <trkpt lat="42.06798" lon="9.13363">
        <ele>2097</ele>
        <time>2014-05-15T07:56:54.000Z</time>
      </trkpt>
      <trkpt lat="42.06796" lon="9.13365">
        <ele>2097</ele>
        <time>2014-05-15T07:56:57.000Z</time>
      </trkpt>
      <trkpt lat="42.06795" lon="9.13366">
        <ele>2097</ele>
        <time>2014-05-15T07:57:01.000Z</time>
      </trkpt>
      <trkpt lat="42.06794" lon="9.13373">
        <ele>2096.1999511719</ele>
        <time>2014-05-15T07:57:21.000Z</time>
      </trkpt>
      <trkpt lat="42.06792" lon="9.13381">
        <ele>2095.3999023438</ele>
        <time>2014-05-15T07:57:28.000Z</time>
      </trkpt>
      <trkpt lat="42.06788" lon="9.13379">
        <ele>2096</ele>
        <time>2014-05-15T07:57:33.000Z</time>
      </trkpt>
      <trkpt lat="42.06781" lon="9.13375">
        <ele>2097.6000976562</ele>
        <time>2014-05-15T07:57:42.000Z</time>
      </trkpt>
      <trkpt lat="42.06776" lon="9.13367">
        <ele>2099.1999511719</ele>
        <time>2014-05-15T07:57:52.000Z</time>
      </trkpt>
      <trkpt lat="42.0678" lon="9.13373">
        <ele>2098</ele>
        <time>2014-05-15T07:59:11.000Z</time>
      </trkpt>
      <trkpt lat="42.06787" lon="9.13381">
        <ele>2096</ele>
        <time>2014-05-15T07:59:19.000Z</time>
      </trkpt>
      <trkpt lat="42.0679" lon="9.13392">
        <ele>2094.1999511719</ele>
        <time>2014-05-15T07:59:25.000Z</time>
      </trkpt>
      <trkpt lat="42.06791" lon="9.13399">
        <ele>2093.1999511719</ele>
        <time>2014-05-15T07:59:27.000Z</time>
      </trkpt>
      <trkpt lat="42.06791" lon="9.13407">
        <ele>2092.1999511719</ele>
        <time>2014-05-15T07:59:31.000Z</time>
      </trkpt>
      <trkpt lat="42.06787" lon="9.13412">
        <ele>2092.1999511719</ele>
        <time>2014-05-15T07:59:37.000Z</time>
      </trkpt>
      <trkpt lat="42.06786" lon="9.13415">
        <ele>2092</ele>
        <time>2014-05-15T07:59:43.000Z</time>
      </trkpt>
      <trkpt lat="42.06783" lon="9.13421">
        <ele>2091.8000488281</ele>
        <time>2014-05-15T07:59:49.000Z</time>
      </trkpt>
      <trkpt lat="42.06776" lon="9.1343">
        <ele>2092.1999511719</ele>
        <time>2014-05-15T07:59:57.000Z</time>
      </trkpt>
      <trkpt lat="42.0677" lon="9.13437">
        <ele>2092.3999023438</ele>
        <time>2014-05-15T08:00:04.000Z</time>
      </trkpt>
      <trkpt lat="42.06766" lon="9.1344">
        <ele>2092.8000488281</ele>
        <time>2014-05-15T08:00:10.000Z</time>
      </trkpt>
      <trkpt lat="42.06764" lon="9.13441">
        <ele>2093</ele>
        <time>2014-05-15T08:00:12.000Z</time>
      </trkpt>
      <trkpt lat="42.06761" lon="9.1344">
        <ele>2093.6000976562</ele>
        <time>2014-05-15T08:00:16.000Z</time>
      </trkpt>
      <trkpt lat="42.06761" lon="9.1344">
        <ele>2093.6000976562</ele>
        <time>2014-05-15T08:00:17.000Z</time>
      </trkpt>
      <trkpt lat="42.06759" lon="9.13439">
        <ele>2094</ele>
        <time>2014-05-15T08:00:21.000Z</time>
      </trkpt>
      <trkpt lat="42.06756" lon="9.13441">
        <ele>2094.3999023438</ele>
        <time>2014-05-15T08:00:27.000Z</time>
      </trkpt>
      <trkpt lat="42.06753" lon="9.13444">
        <ele>2094.1999511719</ele>
        <time>2014-05-15T08:00:32.000Z</time>
      </trkpt>
      <trkpt lat="42.06753" lon="9.13444">
        <ele>2094.3999023438</ele>
        <time>2014-05-15T08:00:35.000Z</time>
      </trkpt>
      <trkpt lat="42.06749" lon="9.13443">
        <ele>2095</ele>
        <time>2014-05-15T08:00:38.000Z</time>
      </trkpt>
      <trkpt lat="42.06746" lon="9.13444">
        <ele>2095.3999023438</ele>
        <time>2014-05-15T08:00:41.000Z</time>
      </trkpt>
      <trkpt lat="42.06745" lon="9.13442">
        <ele>2095.8000488281</ele>
        <time>2014-05-15T08:00:43.000Z</time>
      </trkpt>
      <trkpt lat="42.0674" lon="9.13444">
        <ele>2095.8000488281</ele>
        <time>2014-05-15T08:00:49.000Z</time>
      </trkpt>
      <trkpt lat="42.06736" lon="9.13441">
        <ele>2095.6000976562</ele>
        <time>2014-05-15T08:00:53.000Z</time>
      </trkpt>
      <trkpt lat="42.06734" lon="9.13435">
        <ele>2095.6000976562</ele>
        <time>2014-05-15T08:00:58.000Z</time>
      </trkpt>
      <trkpt lat="42.0673" lon="9.13438">
        <ele>2095.1999511719</ele>
        <time>2014-05-15T08:01:03.000Z</time>
      </trkpt>
      <trkpt lat="42.06721" lon="9.1344">
        <ele>2094.3999023438</ele>
        <time>2014-05-15T08:01:10.000Z</time>
      </trkpt>
      <trkpt lat="42.06718" lon="9.13438">
        <ele>2094.1999511719</ele>
        <time>2014-05-15T08:01:14.000Z</time>
      </trkpt>
      <trkpt lat="42.06718" lon="9.13438">
        <ele>2094.1999511719</ele>
        <time>2014-05-15T08:01:16.000Z</time>
      </trkpt>
      <trkpt lat="42.06716" lon="9.13436">
        <ele>2094</ele>
        <time>2014-05-15T08:01:22.000Z</time>
      </trkpt>
      <trkpt lat="42.06718" lon="9.1343">
        <ele>2094.6000976562</ele>
        <time>2014-05-15T08:02:07.000Z</time>
      </trkpt>
      <trkpt lat="42.06719" lon="9.1343">
        <ele>2094.8000488281</ele>
        <time>2014-05-15T08:02:12.000Z</time>
      </trkpt>
      <trkpt lat="42.06717" lon="9.13435">
        <ele>2094.1999511719</ele>
        <time>2014-05-15T08:02:20.000Z</time>
      </trkpt>
      <trkpt lat="42.06716" lon="9.13439">
        <ele>2094</ele>
        <time>2014-05-15T08:02:27.000Z</time>
      </trkpt>
      <trkpt lat="42.06716" lon="9.13442">
        <ele>2093.8000488281</ele>
        <time>2014-05-15T08:02:50.000Z</time>
      </trkpt>
      <trkpt lat="42.06714" lon="9.13445">
        <ele>2093.6000976562</ele>
        <time>2014-05-15T08:02:53.000Z</time>
      </trkpt>
      <trkpt lat="42.06712" lon="9.13447">
        <ele>2093.3999023438</ele>
        <time>2014-05-15T08:03:00.000Z</time>
      </trkpt>
      <trkpt lat="42.06711" lon="9.13446">
        <ele>2093.3999023438</ele>
        <time>2014-05-15T08:03:17.000Z</time>
      </trkpt>
      <trkpt lat="42.06711" lon="9.13444">
        <ele>2093.3999023438</ele>
        <time>2014-05-15T08:03:22.000Z</time>
      </trkpt>
      <trkpt lat="42.06711" lon="9.13442">
        <ele>2093.3999023438</ele>
        <time>2014-05-15T08:03:27.000Z</time>
      </trkpt>
      <trkpt lat="42.06708" lon="9.13441">
        <ele>2093.1999511719</ele>
        <time>2014-05-15T08:03:48.000Z</time>
      </trkpt>
      <trkpt lat="42.06709" lon="9.13444">
        <ele>2093.1999511719</ele>
        <time>2014-05-15T08:04:52.000Z</time>
      </trkpt>
      <trkpt lat="42.06708" lon="9.13445">
        <ele>2093</ele>
        <time>2014-05-15T08:04:56.000Z</time>
      </trkpt>
      <trkpt lat="42.06706" lon="9.13446">
        <ele>2092.8000488281</ele>
        <time>2014-05-15T08:05:00.000Z</time>
      </trkpt>
      <trkpt lat="42.06704" lon="9.13448">
        <ele>2092.8000488281</ele>
        <time>2014-05-15T08:05:09.000Z</time>
      </trkpt>
      <trkpt lat="42.06703" lon="9.13448">
        <ele>2092.6000976562</ele>
        <time>2014-05-15T08:05:15.000Z</time>
      </trkpt>
      <trkpt lat="42.06702" lon="9.13447">
        <ele>2092.6000976562</ele>
        <time>2014-05-15T08:05:20.000Z</time>
      </trkpt>
      <trkpt lat="42.067" lon="9.13443">
        <ele>2092.3999023438</ele>
        <time>2014-05-15T08:06:06.000Z</time>
      </trkpt>
      <trkpt lat="42.06702" lon="9.13446">
        <ele>2092.6000976562</ele>
        <time>2014-05-15T08:07:54.000Z</time>
      </trkpt>
      <trkpt lat="42.06702" lon="9.13448">
        <ele>2092.3999023438</ele>
        <time>2014-05-15T08:07:55.000Z</time>
      </trkpt>
      <trkpt lat="42.06702" lon="9.13453">
        <ele>2092.3999023438</ele>
        <time>2014-05-15T08:08:01.000Z</time>
      </trkpt>
      <trkpt lat="42.06703" lon="9.13452">
        <ele>2092.6000976562</ele>
        <time>2014-05-15T08:08:09.000Z</time>
      </trkpt>
      <trkpt lat="42.06705" lon="9.13453">
        <ele>2092.8000488281</ele>
        <time>2014-05-15T08:09:33.000Z</time>
      </trkpt>
      <trkpt lat="42.06708" lon="9.13456">
        <ele>2093</ele>
        <time>2014-05-15T08:09:39.000Z</time>
      </trkpt>
      <trkpt lat="42.06711" lon="9.13449">
        <ele>2093.1999511719</ele>
        <time>2014-05-15T08:09:44.000Z</time>
      </trkpt>
      <trkpt lat="42.06711" lon="9.13446">
        <ele>2093.3999023438</ele>
        <time>2014-05-15T08:09:48.000Z</time>
      </trkpt>
      <trkpt lat="42.06711" lon="9.13445">
        <ele>2093.1999511719</ele>
        <time>2014-05-15T08:09:49.000Z</time>
      </trkpt>
      <trkpt lat="42.06712" lon="9.13445">
        <ele>2093.3999023438</ele>
        <time>2014-05-15T08:09:53.000Z</time>
      </trkpt>
      <trkpt lat="42.06711" lon="9.1345">
        <ele>2093.1999511719</ele>
        <time>2014-05-15T08:10:19.000Z</time>
      </trkpt>
      <trkpt lat="42.06708" lon="9.13458">
        <ele>2093</ele>
        <time>2014-05-15T08:10:25.000Z</time>
      </trkpt>
      <trkpt lat="42.06705" lon="9.13463">
        <ele>2092.6000976562</ele>
        <time>2014-05-15T08:10:31.000Z</time>
      </trkpt>
      <trkpt lat="42.06704" lon="9.13467">
        <ele>2092.3999023438</ele>
        <time>2014-05-15T08:10:35.000Z</time>
      </trkpt>
      <trkpt lat="42.06702" lon="9.13469">
        <ele>2092.1999511719</ele>
        <time>2014-05-15T08:10:38.000Z</time>
      </trkpt>
      <trkpt lat="42.06701" lon="9.1347">
        <ele>2092.1999511719</ele>
        <time>2014-05-15T08:10:40.000Z</time>
      </trkpt>
      <trkpt lat="42.06698" lon="9.13474">
        <ele>2092</ele>
        <time>2014-05-15T08:10:46.000Z</time>
      </trkpt>
      <trkpt lat="42.06695" lon="9.13477">
        <ele>2091.6000976562</ele>
        <time>2014-05-15T08:10:50.000Z</time>
      </trkpt>
      <trkpt lat="42.06694" lon="9.13478">
        <ele>2091.6000976562</ele>
        <time>2014-05-15T08:10:51.000Z</time>
      </trkpt>
      <trkpt lat="42.06692" lon="9.13482">
        <ele>2091.3999023438</ele>
        <time>2014-05-15T08:10:55.000Z</time>
      </trkpt>
      <trkpt lat="42.06689" lon="9.13482">
        <ele>2091.3999023438</ele>
        <time>2014-05-15T08:10:58.000Z</time>
      </trkpt>
      <trkpt lat="42.06688" lon="9.13483">
        <ele>2091.3999023438</ele>
        <time>2014-05-15T08:10:59.000Z</time>
      </trkpt>
      <trkpt lat="42.06685" lon="9.13487">
        <ele>2091.1999511719</ele>
        <time>2014-05-15T08:11:05.000Z</time>
      </trkpt>
      <trkpt lat="42.06681" lon="9.13491">
        <ele>2091.1999511719</ele>
        <time>2014-05-15T08:11:11.000Z</time>
      </trkpt>
      <trkpt lat="42.06681" lon="9.13491">
        <ele>2091.1999511719</ele>
        <time>2014-05-15T08:11:19.000Z</time>
      </trkpt>
      <trkpt lat="42.06682" lon="9.13491">
        <ele>2091.1999511719</ele>
        <time>2014-05-15T08:11:33.000Z</time>
      </trkpt>
      <trkpt lat="42.06682" lon="9.1349">
        <ele>2091.1999511719</ele>
        <time>2014-05-15T08:12:12.000Z</time>
      </trkpt>
      <trkpt lat="42.06685" lon="9.13492">
        <ele>2091.3999023438</ele>
        <time>2014-05-15T08:12:33.000Z</time>
      </trkpt>
      <trkpt lat="42.06686" lon="9.13497">
        <ele>2091.6000976562</ele>
        <time>2014-05-15T08:12:37.000Z</time>
      </trkpt>
      <trkpt lat="42.06685" lon="9.13499">
        <ele>2091.6000976562</ele>
        <time>2014-05-15T08:12:38.000Z</time>
      </trkpt>
      <trkpt lat="42.0668" lon="9.13512">
        <ele>2091.6000976562</ele>
        <time>2014-05-15T08:12:47.000Z</time>
      </trkpt>
      <trkpt lat="42.06677" lon="9.1352">
        <ele>2091.6000976562</ele>
        <time>2014-05-15T08:12:53.000Z</time>
      </trkpt>
      <trkpt lat="42.06677" lon="9.13521">
        <ele>2091.6000976562</ele>
        <time>2014-05-15T08:12:54.000Z</time>
      </trkpt>
      <trkpt lat="42.06676" lon="9.13534">
        <ele>2091.1999511719</ele>
        <time>2014-05-15T08:13:02.000Z</time>
      </trkpt>
      <trkpt lat="42.06678" lon="9.13539">
        <ele>2090.8000488281</ele>
        <time>2014-05-15T08:13:06.000Z</time>
      </trkpt>
      <trkpt lat="42.0668" lon="9.1354">
        <ele>2091</ele>
        <time>2014-05-15T08:13:08.000Z</time>
      </trkpt>
      <trkpt lat="42.06683" lon="9.13546">
        <ele>2090.6000976562</ele>
        <time>2014-05-15T08:13:13.000Z</time>
      </trkpt>
      <trkpt lat="42.06684" lon="9.13551">
        <ele>2090.1999511719</ele>
        <time>2014-05-15T08:13:17.000Z</time>
      </trkpt>
      <trkpt lat="42.06683" lon="9.13559">
        <ele>2090</ele>
        <time>2014-05-15T08:13:22.000Z</time>
      </trkpt>
      <trkpt lat="42.06682" lon="9.13564">
        <ele>2089.8000488281</ele>
        <time>2014-05-15T08:13:25.000Z</time>
      </trkpt>
      <trkpt lat="42.06682" lon="9.13567">
        <ele>2089.8000488281</ele>
        <time>2014-05-15T08:13:27.000Z</time>
      </trkpt>
      <trkpt lat="42.0668" lon="9.1357">
        <ele>2089.8000488281</ele>
        <time>2014-05-15T08:13:29.000Z</time>
      </trkpt>
      <trkpt lat="42.06679" lon="9.13573">
        <ele>2089.6000976562</ele>
        <time>2014-05-15T08:13:31.000Z</time>
      </trkpt>
      <trkpt lat="42.0668" lon="9.13579">
        <ele>2089.6000976562</ele>
        <time>2014-05-15T08:13:34.000Z</time>
      </trkpt>
      <trkpt lat="42.06679" lon="9.13583">
        <ele>2089.3999023438</ele>
        <time>2014-05-15T08:13:37.000Z</time>
      </trkpt>
      <trkpt lat="42.06679" lon="9.13587">
        <ele>2089.3999023438</ele>
        <time>2014-05-15T08:13:40.000Z</time>
      </trkpt>
      <trkpt lat="42.0668" lon="9.13588">
        <ele>2089.1999511719</ele>
        <time>2014-05-15T08:13:41.000Z</time>
      </trkpt>
      <trkpt lat="42.06678" lon="9.13594">
        <ele>2089.1999511719</ele>
        <time>2014-05-15T08:13:45.000Z</time>
      </trkpt>
      <trkpt lat="42.06675" lon="9.13602">
        <ele>2089</ele>
        <time>2014-05-15T08:13:51.000Z</time>
      </trkpt>
      <trkpt lat="42.06671" lon="9.1361">
        <ele>2088.8000488281</ele>
        <time>2014-05-15T08:13:57.000Z</time>
      </trkpt>
      <trkpt lat="42.06671" lon="9.13618">
        <ele>2087.8000488281</ele>
        <time>2014-05-15T08:14:03.000Z</time>
      </trkpt>
      <trkpt lat="42.06672" lon="9.13624">
        <ele>2087.1999511719</ele>
        <time>2014-05-15T08:14:07.000Z</time>
      </trkpt>
      <trkpt lat="42.06672" lon="9.13626">
        <ele>2087</ele>
        <time>2014-05-15T08:14:09.000Z</time>
      </trkpt>
      <trkpt lat="42.06672" lon="9.13628">
        <ele>2087</ele>
        <time>2014-05-15T08:14:11.000Z</time>
      </trkpt>
      <trkpt lat="42.06672" lon="9.13629">
        <ele>2086.8000488281</ele>
        <time>2014-05-15T08:14:13.000Z</time>
      </trkpt>
      <trkpt lat="42.06672" lon="9.13631">
        <ele>2086.8000488281</ele>
        <time>2014-05-15T08:14:14.000Z</time>
      </trkpt>
      <trkpt lat="42.06671" lon="9.13634">
        <ele>2086.8000488281</ele>
        <time>2014-05-15T08:14:17.000Z</time>
      </trkpt>
      <trkpt lat="42.06671" lon="9.13633">
        <ele>2086.8000488281</ele>
        <time>2014-05-15T08:14:18.000Z</time>
      </trkpt>
      <trkpt lat="42.0667" lon="9.1363">
        <ele>2087</ele>
        <time>2014-05-15T08:14:20.000Z</time>
      </trkpt>
      <trkpt lat="42.06668" lon="9.13628">
        <ele>2087.3999023438</ele>
        <time>2014-05-15T08:14:23.000Z</time>
      </trkpt>
      <trkpt lat="42.06667" lon="9.13629">
        <ele>2087.3999023438</ele>
        <time>2014-05-15T08:14:24.000Z</time>
      </trkpt>
      <trkpt lat="42.06663" lon="9.1363">
        <ele>2087.6000976562</ele>
        <time>2014-05-15T08:14:28.000Z</time>
      </trkpt>
      <trkpt lat="42.06663" lon="9.13631">
        <ele>2087.6000976562</ele>
        <time>2014-05-15T08:14:29.000Z</time>
      </trkpt>
      <trkpt lat="42.06663" lon="9.13633">
        <ele>2087.6000976562</ele>
        <time>2014-05-15T08:14:30.000Z</time>
      </trkpt>
      <trkpt lat="42.06663" lon="9.1364">
        <ele>2087.3999023438</ele>
        <time>2014-05-15T08:14:35.000Z</time>
      </trkpt>
      <trkpt lat="42.06662" lon="9.13641">
        <ele>2087.3999023438</ele>
        <time>2014-05-15T08:14:36.000Z</time>
      </trkpt>
      <trkpt lat="42.06658" lon="9.13645">
        <ele>2087.3999023438</ele>
        <time>2014-05-15T08:14:41.000Z</time>
      </trkpt>
      <trkpt lat="42.06657" lon="9.13646">
        <ele>2087.3999023438</ele>
        <time>2014-05-15T08:14:42.000Z</time>
      </trkpt>
      <trkpt lat="42.06653" lon="9.13647">
        <ele>2087.3999023438</ele>
        <time>2014-05-15T08:14:46.000Z</time>
      </trkpt>
      <trkpt lat="42.06648" lon="9.13649">
        <ele>2087.3999023438</ele>
        <time>2014-05-15T08:14:51.000Z</time>
      </trkpt>
      <trkpt lat="42.06647" lon="9.13651">
        <ele>2087.3999023438</ele>
        <time>2014-05-15T08:14:53.000Z</time>
      </trkpt>
      <trkpt lat="42.06647" lon="9.13653">
        <ele>2087.1999511719</ele>
        <time>2014-05-15T08:14:55.000Z</time>
      </trkpt>
      <trkpt lat="42.06647" lon="9.13653">
        <ele>2087.1999511719</ele>
        <time>2014-05-15T08:15:00.000Z</time>
      </trkpt>
      <trkpt lat="42.06643" lon="9.13652">
        <ele>2087.3999023438</ele>
        <time>2014-05-15T08:15:20.000Z</time>
      </trkpt>
      <trkpt lat="42.06642" lon="9.13653">
        <ele>2087.3999023438</ele>
        <time>2014-05-15T08:15:21.000Z</time>
      </trkpt>
      <trkpt lat="42.0664" lon="9.13655">
        <ele>2087.3999023438</ele>
        <time>2014-05-15T08:15:23.000Z</time>
      </trkpt>
      <trkpt lat="42.06636" lon="9.13656">
        <ele>2087.3999023438</ele>
        <time>2014-05-15T08:15:26.000Z</time>
      </trkpt>
      <trkpt lat="42.06629" lon="9.13657">
        <ele>2087.3999023438</ele>
        <time>2014-05-15T08:15:32.000Z</time>
      </trkpt>
      <trkpt lat="42.06624" lon="9.13664">
        <ele>2087.1999511719</ele>
        <time>2014-05-15T08:15:38.000Z</time>
      </trkpt>
      <trkpt lat="42.06622" lon="9.13675">
        <ele>2086.6000976562</ele>
        <time>2014-05-15T08:15:45.000Z</time>
      </trkpt>
      <trkpt lat="42.0662" lon="9.13692">
        <ele>2085.6000976562</ele>
        <time>2014-05-15T08:15:55.000Z</time>
      </trkpt>
      <trkpt lat="42.06619" lon="9.13706">
        <ele>2084</ele>
        <time>2014-05-15T08:16:04.000Z</time>
      </trkpt>
      <trkpt lat="42.06616" lon="9.13709">
        <ele>2083.6000976562</ele>
        <time>2014-05-15T08:16:09.000Z</time>
      </trkpt>
      <trkpt lat="42.0661" lon="9.13712">
        <ele>2083.3999023438</ele>
        <time>2014-05-15T08:16:15.000Z</time>
      </trkpt>
      <trkpt lat="42.0661" lon="9.13712">
        <ele>2083.3999023438</ele>
        <time>2014-05-15T08:16:16.000Z</time>
      </trkpt>
      <trkpt lat="42.06609" lon="9.13713">
        <ele>2083.3999023438</ele>
        <time>2014-05-15T08:16:20.000Z</time>
      </trkpt>
      <trkpt lat="42.0661" lon="9.13713">
        <ele>2083.1999511719</ele>
        <time>2014-05-15T08:16:26.000Z</time>
      </trkpt>
      <trkpt lat="42.06612" lon="9.13717">
        <ele>2082.8000488281</ele>
        <time>2014-05-15T08:16:35.000Z</time>
      </trkpt>
      <trkpt lat="42.0661" lon="9.13723">
        <ele>2082.1999511719</ele>
        <time>2014-05-15T08:16:40.000Z</time>
      </trkpt>
      <trkpt lat="42.0661" lon="9.13729">
        <ele>2081</ele>
        <time>2014-05-15T08:16:45.000Z</time>
      </trkpt>
      <trkpt lat="42.0661" lon="9.13734">
        <ele>2079.8000488281</ele>
        <time>2014-05-15T08:16:49.000Z</time>
      </trkpt>
      <trkpt lat="42.0661" lon="9.13738">
        <ele>2078.6000976562</ele>
        <time>2014-05-15T08:16:52.000Z</time>
      </trkpt>
      <trkpt lat="42.0661" lon="9.13738">
        <ele>2078.3999023438</ele>
        <time>2014-05-15T08:16:54.000Z</time>
      </trkpt>
      <trkpt lat="42.0661" lon="9.13738">
        <ele>2078.3999023438</ele>
        <time>2014-05-15T08:16:56.000Z</time>
      </trkpt>
      <trkpt lat="42.0661" lon="9.13741">
        <ele>2077.6000976562</ele>
        <time>2014-05-15T08:17:01.000Z</time>
      </trkpt>
      <trkpt lat="42.06609" lon="9.13745">
        <ele>2076.3999023438</ele>
        <time>2014-05-15T08:17:06.000Z</time>
      </trkpt>
      <trkpt lat="42.06608" lon="9.13747">
        <ele>2075.6000976562</ele>
        <time>2014-05-15T08:17:12.000Z</time>
      </trkpt>
      <trkpt lat="42.06607" lon="9.13747">
        <ele>2075.1999511719</ele>
        <time>2014-05-15T08:18:21.000Z</time>
      </trkpt>
      <trkpt lat="42.06608" lon="9.13751">
        <ele>2074.1999511719</ele>
        <time>2014-05-15T08:18:43.000Z</time>
      </trkpt>
      <trkpt lat="42.06608" lon="9.13756">
        <ele>2072.6000976562</ele>
        <time>2014-05-15T08:18:48.000Z</time>
      </trkpt>
      <trkpt lat="42.06606" lon="9.13759">
        <ele>2071.8000488281</ele>
        <time>2014-05-15T08:18:53.000Z</time>
      </trkpt>
      <trkpt lat="42.06607" lon="9.13759">
        <ele>2071.8000488281</ele>
        <time>2014-05-15T08:18:57.000Z</time>
      </trkpt>
      <trkpt lat="42.06602" lon="9.13755">
        <ele>2071.8000488281</ele>
        <time>2014-05-15T08:19:01.000Z</time>
      </trkpt>
      <trkpt lat="42.06598" lon="9.13754">
        <ele>2071.8000488281</ele>
        <time>2014-05-15T08:19:06.000Z</time>
      </trkpt>
      <trkpt lat="42.06596" lon="9.13753">
        <ele>2071.8000488281</ele>
        <time>2014-05-15T08:19:12.000Z</time>
      </trkpt>
      <trkpt lat="42.06596" lon="9.13751">
        <ele>2072</ele>
        <time>2014-05-15T08:19:18.000Z</time>
      </trkpt>
      <trkpt lat="42.06595" lon="9.13748">
        <ele>2073</ele>
        <time>2014-05-15T08:19:30.000Z</time>
      </trkpt>
      <trkpt lat="42.06596" lon="9.13747">
        <ele>2073.3999023438</ele>
        <time>2014-05-15T08:19:33.000Z</time>
      </trkpt>
      <trkpt lat="42.06594" lon="9.1375">
        <ele>2072.1999511719</ele>
        <time>2014-05-15T08:19:38.000Z</time>
      </trkpt>
      <trkpt lat="42.06594" lon="9.1375">
        <ele>2072.1999511719</ele>
        <time>2014-05-15T08:19:43.000Z</time>
      </trkpt>
      <trkpt lat="42.06596" lon="9.13749">
        <ele>2073</ele>
        <time>2014-05-15T08:20:55.000Z</time>
      </trkpt>
      <trkpt lat="42.06597" lon="9.13745">
        <ele>2074</ele>
        <time>2014-05-15T08:21:05.000Z</time>
      </trkpt>
      <trkpt lat="42.06596" lon="9.13745">
        <ele>2074</ele>
        <time>2014-05-15T08:21:15.000Z</time>
      </trkpt>
      <trkpt lat="42.06596" lon="9.13749">
        <ele>2073</ele>
        <time>2014-05-15T08:21:26.000Z</time>
      </trkpt>
      <trkpt lat="42.06598" lon="9.13748">
        <ele>2073.3999023438</ele>
        <time>2014-05-15T08:21:48.000Z</time>
      </trkpt>
      <trkpt lat="42.06599" lon="9.1375">
        <ele>2073</ele>
        <time>2014-05-15T08:21:52.000Z</time>
      </trkpt>
      <trkpt lat="42.06601" lon="9.13752">
        <ele>2072.8000488281</ele>
        <time>2014-05-15T08:21:57.000Z</time>
      </trkpt>
      <trkpt lat="42.06602" lon="9.13753">
        <ele>2072.6000976562</ele>
        <time>2014-05-15T08:22:02.000Z</time>
      </trkpt>
      <trkpt lat="42.06605" lon="9.13757">
        <ele>2072</ele>
        <time>2014-05-15T08:22:07.000Z</time>
      </trkpt>
      <trkpt lat="42.06606" lon="9.13757">
        <ele>2072.1999511719</ele>
        <time>2014-05-15T08:22:12.000Z</time>
      </trkpt>
      <trkpt lat="42.06608" lon="9.13754">
        <ele>2073.1999511719</ele>
        <time>2014-05-15T08:22:21.000Z</time>
      </trkpt>
      <trkpt lat="42.06609" lon="9.13752">
        <ele>2074</ele>
        <time>2014-05-15T08:22:25.000Z</time>
      </trkpt>
      <trkpt lat="42.06611" lon="9.13749">
        <ele>2075.3999023438</ele>
        <time>2014-05-15T08:22:31.000Z</time>
      </trkpt>
      <trkpt lat="42.06611" lon="9.13746">
        <ele>2076.1999511719</ele>
        <time>2014-05-15T08:22:36.000Z</time>
      </trkpt>
      <trkpt lat="42.06611" lon="9.13743">
        <ele>2077.1999511719</ele>
        <time>2014-05-15T08:22:45.000Z</time>
      </trkpt>
      <trkpt lat="42.06614" lon="9.13743">
        <ele>2077.3999023438</ele>
        <time>2014-05-15T08:23:01.000Z</time>
      </trkpt>
      <trkpt lat="42.06613" lon="9.13744">
        <ele>2077</ele>
        <time>2014-05-15T08:23:06.000Z</time>
      </trkpt>
      <trkpt lat="42.06612" lon="9.13744">
        <ele>2077</ele>
        <time>2014-05-15T08:23:24.000Z</time>
      </trkpt>
      <trkpt lat="42.06611" lon="9.13746">
        <ele>2076.3999023438</ele>
        <time>2014-05-15T08:23:31.000Z</time>
      </trkpt>
      <trkpt lat="42.06608" lon="9.13745">
        <ele>2076</ele>
        <time>2014-05-15T08:23:34.000Z</time>
      </trkpt>
      <trkpt lat="42.06608" lon="9.13744">
        <ele>2076.1999511719</ele>
        <time>2014-05-15T08:23:36.000Z</time>
      </trkpt>
      <trkpt lat="42.06606" lon="9.13743">
        <ele>2076.1999511719</ele>
        <time>2014-05-15T08:23:42.000Z</time>
      </trkpt>
      <trkpt lat="42.06605" lon="9.1374">
        <ele>2077</ele>
        <time>2014-05-15T08:23:48.000Z</time>
      </trkpt>
      <trkpt lat="42.06603" lon="9.13738">
        <ele>2077.3999023438</ele>
        <time>2014-05-15T08:23:52.000Z</time>
      </trkpt>
      <trkpt lat="42.06602" lon="9.13737">
        <ele>2077.6000976562</ele>
        <time>2014-05-15T08:23:58.000Z</time>
      </trkpt>
      <trkpt lat="42.06602" lon="9.13734">
        <ele>2078.3999023438</ele>
        <time>2014-05-15T08:24:02.000Z</time>
      </trkpt>
      <trkpt lat="42.06605" lon="9.13731">
        <ele>2079.8000488281</ele>
        <time>2014-05-15T08:24:09.000Z</time>
      </trkpt>
      <trkpt lat="42.06604" lon="9.13731">
        <ele>2079.6000976562</ele>
        <time>2014-05-15T08:24:17.000Z</time>
      </trkpt>
      <trkpt lat="42.06605" lon="9.13734">
        <ele>2079</ele>
        <time>2014-05-15T08:24:46.000Z</time>
      </trkpt>
      <trkpt lat="42.06605" lon="9.13732">
        <ele>2079.6000976562</ele>
        <time>2014-05-15T08:25:27.000Z</time>
      </trkpt>
      <trkpt lat="42.06605" lon="9.13733">
        <ele>2079</ele>
        <time>2014-05-15T08:25:48.000Z</time>
      </trkpt>
      <trkpt lat="42.06604" lon="9.13734">
        <ele>2078.6000976562</ele>
        <time>2014-05-15T08:25:59.000Z</time>
      </trkpt>
      <trkpt lat="42.06605" lon="9.13733">
        <ele>2079</ele>
        <time>2014-05-15T08:26:48.000Z</time>
      </trkpt>
      <trkpt lat="42.06606" lon="9.13733">
        <ele>2079.3999023438</ele>
        <time>2014-05-15T08:26:58.000Z</time>
      </trkpt>
      <trkpt lat="42.06606" lon="9.13734">
        <ele>2079</ele>
        <time>2014-05-15T08:27:32.000Z</time>
      </trkpt>
      <trkpt lat="42.06605" lon="9.13734">
        <ele>2079</ele>
        <time>2014-05-15T08:27:53.000Z</time>
      </trkpt>
      <trkpt lat="42.06607" lon="9.13734">
        <ele>2079.1999511719</ele>
        <time>2014-05-15T08:28:13.000Z</time>
      </trkpt>
      <trkpt lat="42.06607" lon="9.13732">
        <ele>2079.8000488281</ele>
        <time>2014-05-15T08:28:21.000Z</time>
      </trkpt>
      <trkpt lat="42.06607" lon="9.1373">
        <ele>2080.1999511719</ele>
        <time>2014-05-15T08:28:27.000Z</time>
      </trkpt>
      <trkpt lat="42.06606" lon="9.13728">
        <ele>2081</ele>
        <time>2014-05-15T08:28:34.000Z</time>
      </trkpt>
      <trkpt lat="42.06608" lon="9.13725">
        <ele>2082</ele>
        <time>2014-05-15T08:28:42.000Z</time>
      </trkpt>
      <trkpt lat="42.06607" lon="9.13724">
        <ele>2082</ele>
        <time>2014-05-15T08:28:43.000Z</time>
      </trkpt>
      <trkpt lat="42.06606" lon="9.13721">
        <ele>2082.3999023438</ele>
        <time>2014-05-15T08:28:46.000Z</time>
      </trkpt>
      <trkpt lat="42.06608" lon="9.13718">
        <ele>2082.8000488281</ele>
        <time>2014-05-15T08:28:51.000Z</time>
      </trkpt>
      <trkpt lat="42.06609" lon="9.13717">
        <ele>2082.8000488281</ele>
        <time>2014-05-15T08:28:56.000Z</time>
      </trkpt>
      <trkpt lat="42.0661" lon="9.13713">
        <ele>2083.1999511719</ele>
        <time>2014-05-15T08:29:06.000Z</time>
      </trkpt>
      <trkpt lat="42.06609" lon="9.13713">
        <ele>2083.3999023438</ele>
        <time>2014-05-15T08:29:11.000Z</time>
      </trkpt>
      <trkpt lat="42.06607" lon="9.13715">
        <ele>2083</ele>
        <time>2014-05-15T08:29:13.000Z</time>
      </trkpt>
      <trkpt lat="42.06607" lon="9.13715">
        <ele>2083</ele>
        <time>2014-05-15T08:29:16.000Z</time>
      </trkpt>
      <trkpt lat="42.06605" lon="9.13715">
        <ele>2083</ele>
        <time>2014-05-15T08:29:23.000Z</time>
      </trkpt>
      <trkpt lat="42.06605" lon="9.13713">
        <ele>2083.3999023438</ele>
        <time>2014-05-15T08:29:28.000Z</time>
      </trkpt>
      <trkpt lat="42.06608" lon="9.1371">
        <ele>2083.8000488281</ele>
        <time>2014-05-15T08:29:33.000Z</time>
      </trkpt>
      <trkpt lat="42.0661" lon="9.1371">
        <ele>2083.8000488281</ele>
        <time>2014-05-15T08:29:39.000Z</time>
      </trkpt>
      <trkpt lat="42.06613" lon="9.13706">
        <ele>2084.1999511719</ele>
        <time>2014-05-15T08:29:49.000Z</time>
      </trkpt>
      <trkpt lat="42.06615" lon="9.13705">
        <ele>2084.1999511719</ele>
        <time>2014-05-15T08:29:56.000Z</time>
      </trkpt>
      <trkpt lat="42.0662" lon="9.13702">
        <ele>2084.3999023438</ele>
        <time>2014-05-15T08:30:05.000Z</time>
      </trkpt>
      <trkpt lat="42.06632" lon="9.13699">
        <ele>2084.8000488281</ele>
        <time>2014-05-15T08:30:12.000Z</time>
      </trkpt>
      <trkpt lat="42.06645" lon="9.13697">
        <ele>2084.8000488281</ele>
        <time>2014-05-15T08:30:20.000Z</time>
      </trkpt>
      <trkpt lat="42.06657" lon="9.13699">
        <ele>2084.3999023438</ele>
        <time>2014-05-15T08:30:26.000Z</time>
      </trkpt>
      <trkpt lat="42.06665" lon="9.13693">
        <ele>2084.6000976562</ele>
        <time>2014-05-15T08:30:33.000Z</time>
      </trkpt>
      <trkpt lat="42.06672" lon="9.13687">
        <ele>2084.1999511719</ele>
        <time>2014-05-15T08:30:40.000Z</time>
      </trkpt>
      <trkpt lat="42.06673" lon="9.13679">
        <ele>2084.3999023438</ele>
        <time>2014-05-15T08:30:44.000Z</time>
      </trkpt>
      <trkpt lat="42.06674" lon="9.13675">
        <ele>2084.6000976562</ele>
        <time>2014-05-15T08:30:46.000Z</time>
      </trkpt>
      <trkpt lat="42.06676" lon="9.13662">
        <ele>2085</ele>
        <time>2014-05-15T08:30:52.000Z</time>
      </trkpt>
      <trkpt lat="42.06679" lon="9.13654">
        <ele>2085</ele>
        <time>2014-05-15T08:30:57.000Z</time>
      </trkpt>
      <trkpt lat="42.06683" lon="9.13654">
        <ele>2084.6000976562</ele>
        <time>2014-05-15T08:31:00.000Z</time>
      </trkpt>
      <trkpt lat="42.06684" lon="9.13654">
        <ele>2084.6000976562</ele>
        <time>2014-05-15T08:31:02.000Z</time>
      </trkpt>
      <trkpt lat="42.06684" lon="9.13656">
        <ele>2084.3999023438</ele>
        <time>2014-05-15T08:31:03.000Z</time>
      </trkpt>
      <trkpt lat="42.06686" lon="9.13659">
        <ele>2084.1999511719</ele>
        <time>2014-05-15T08:31:08.000Z</time>
      </trkpt>
      <trkpt lat="42.06687" lon="9.13655">
        <ele>2084.1999511719</ele>
        <time>2014-05-15T08:31:13.000Z</time>
      </trkpt>
      <trkpt lat="42.06691" lon="9.13649">
        <ele>2084.1999511719</ele>
        <time>2014-05-15T08:31:18.000Z</time>
      </trkpt>
      <trkpt lat="42.06692" lon="9.13649">
        <ele>2084</ele>
        <time>2014-05-15T08:31:19.000Z</time>
      </trkpt>
      <trkpt lat="42.06693" lon="9.1365">
        <ele>2083.8000488281</ele>
        <time>2014-05-15T08:31:20.000Z</time>
      </trkpt>
      <trkpt lat="42.06696" lon="9.13648">
        <ele>2083.8000488281</ele>
        <time>2014-05-15T08:31:24.000Z</time>
      </trkpt>
      <trkpt lat="42.06697" lon="9.13646">
        <ele>2084</ele>
        <time>2014-05-15T08:31:26.000Z</time>
      </trkpt>
      <trkpt lat="42.067" lon="9.13637">
        <ele>2085</ele>
        <time>2014-05-15T08:31:32.000Z</time>
      </trkpt>
      <trkpt lat="42.06707" lon="9.13634">
        <ele>2085.3999023438</ele>
        <time>2014-05-15T08:31:38.000Z</time>
      </trkpt>
      <trkpt lat="42.06707" lon="9.13633">
        <ele>2085.6000976562</ele>
        <time>2014-05-15T08:31:39.000Z</time>
      </trkpt>
      <trkpt lat="42.06712" lon="9.13633">
        <ele>2085.3999023438</ele>
        <time>2014-05-15T08:31:43.000Z</time>
      </trkpt>
      <trkpt lat="42.06714" lon="9.13636">
        <ele>2085</ele>
        <time>2014-05-15T08:31:45.000Z</time>
      </trkpt>
      <trkpt lat="42.06715" lon="9.13639">
        <ele>2084.6000976562</ele>
        <time>2014-05-15T08:31:47.000Z</time>
      </trkpt>
      <trkpt lat="42.06717" lon="9.13641">
        <ele>2084.3999023438</ele>
        <time>2014-05-15T08:31:49.000Z</time>
      </trkpt>
      <trkpt lat="42.06718" lon="9.1364">
        <ele>2084.3999023438</ele>
        <time>2014-05-15T08:31:50.000Z</time>
      </trkpt>
      <trkpt lat="42.06725" lon="9.13639">
        <ele>2084.3999023438</ele>
        <time>2014-05-15T08:31:55.000Z</time>
      </trkpt>
      <trkpt lat="42.06734" lon="9.13636">
        <ele>2084.8000488281</ele>
        <time>2014-05-15T08:32:04.000Z</time>
      </trkpt>
      <trkpt lat="42.06737" lon="9.13632">
        <ele>2085.1999511719</ele>
        <time>2014-05-15T08:32:09.000Z</time>
      </trkpt>
      <trkpt lat="42.06737" lon="9.13629">
        <ele>2085.6000976562</ele>
        <time>2014-05-15T08:32:11.000Z</time>
      </trkpt>
      <trkpt lat="42.0674" lon="9.13623">
        <ele>2086.3999023438</ele>
        <time>2014-05-15T08:32:15.000Z</time>
      </trkpt>
      <trkpt lat="42.06742" lon="9.1362">
        <ele>2086.8000488281</ele>
        <time>2014-05-15T08:32:18.000Z</time>
      </trkpt>
      <trkpt lat="42.06743" lon="9.13619">
        <ele>2086.8000488281</ele>
        <time>2014-05-15T08:32:19.000Z</time>
      </trkpt>
      <trkpt lat="42.06748" lon="9.13617">
        <ele>2085</ele>
        <time>2014-05-15T08:32:24.000Z</time>
      </trkpt>
      <trkpt lat="42.0675" lon="9.13616">
        <ele>2084.6000976562</ele>
        <time>2014-05-15T08:32:28.000Z</time>
      </trkpt>
      <trkpt lat="42.06751" lon="9.13616">
        <ele>2084</ele>
        <time>2014-05-15T08:32:30.000Z</time>
      </trkpt>
      <trkpt lat="42.06754" lon="9.1361">
        <ele>2083.8000488281</ele>
        <time>2014-05-15T08:32:36.000Z</time>
      </trkpt>
      <trkpt lat="42.06755" lon="9.13608">
        <ele>2083.6000976562</ele>
        <time>2014-05-15T08:32:38.000Z</time>
      </trkpt>
      <trkpt lat="42.06758" lon="9.13606">
        <ele>2082.6000976562</ele>
        <time>2014-05-15T08:32:42.000Z</time>
      </trkpt>
      <trkpt lat="42.06759" lon="9.13606">
        <ele>2082</ele>
        <time>2014-05-15T08:32:44.000Z</time>
      </trkpt>
      <trkpt lat="42.0676" lon="9.13604">
        <ele>2081.8000488281</ele>
        <time>2014-05-15T08:32:46.000Z</time>
      </trkpt>
      <trkpt lat="42.06762" lon="9.13602">
        <ele>2081.6000976562</ele>
        <time>2014-05-15T08:32:49.000Z</time>
      </trkpt>
      <trkpt lat="42.06764" lon="9.13604">
        <ele>2080.6000976562</ele>
        <time>2014-05-15T08:32:55.000Z</time>
      </trkpt>
      <trkpt lat="42.06764" lon="9.13604">
        <ele>2080.3999023438</ele>
        <time>2014-05-15T08:33:02.000Z</time>
      </trkpt>
      <trkpt lat="42.06765" lon="9.13605">
        <ele>2080</ele>
        <time>2014-05-15T08:33:23.000Z</time>
      </trkpt>
      <trkpt lat="42.06767" lon="9.13607">
        <ele>2079</ele>
        <time>2014-05-15T08:33:29.000Z</time>
      </trkpt>
      <trkpt lat="42.06769" lon="9.13608">
        <ele>2078</ele>
        <time>2014-05-15T08:33:35.000Z</time>
      </trkpt>
      <trkpt lat="42.06773" lon="9.13609">
        <ele>2076.8000488281</ele>
        <time>2014-05-15T08:34:04.000Z</time>
      </trkpt>
      <trkpt lat="42.06777" lon="9.13611">
        <ele>2075</ele>
        <time>2014-05-15T08:34:14.000Z</time>
      </trkpt>
      <trkpt lat="42.06777" lon="9.13613">
        <ele>2074.6000976562</ele>
        <time>2014-05-15T08:34:19.000Z</time>
      </trkpt>
      <trkpt lat="42.06778" lon="9.13616">
        <ele>2073.6000976562</ele>
        <time>2014-05-15T08:34:26.000Z</time>
      </trkpt>
      <trkpt lat="42.06778" lon="9.13618">
        <ele>2073.1999511719</ele>
        <time>2014-05-15T08:34:35.000Z</time>
      </trkpt>
      <trkpt lat="42.06781" lon="9.13621">
        <ele>2072</ele>
        <time>2014-05-15T08:34:44.000Z</time>
      </trkpt>
      <trkpt lat="42.06784" lon="9.13623">
        <ele>2070.3999023438</ele>
        <time>2014-05-15T08:34:53.000Z</time>
      </trkpt>
      <trkpt lat="42.06788" lon="9.13626">
        <ele>2068.3999023438</ele>
        <time>2014-05-15T08:35:01.000Z</time>
      </trkpt>
      <trkpt lat="42.06789" lon="9.13627">
        <ele>2067.6000976562</ele>
        <time>2014-05-15T08:35:09.000Z</time>
      </trkpt>
      <trkpt lat="42.0679" lon="9.13629">
        <ele>2067</ele>
        <time>2014-05-15T08:35:20.000Z</time>
      </trkpt>
      <trkpt lat="42.06794" lon="9.13629">
        <ele>2065.6000976562</ele>
        <time>2014-05-15T08:35:28.000Z</time>
      </trkpt>
      <trkpt lat="42.06796" lon="9.13629">
        <ele>2064.6000976562</ele>
        <time>2014-05-15T08:35:35.000Z</time>
      </trkpt>
      <trkpt lat="42.06802" lon="9.13631">
        <ele>2062.1999511719</ele>
        <time>2014-05-15T08:35:44.000Z</time>
      </trkpt>
      <trkpt lat="42.06803" lon="9.1363">
        <ele>2061.8000488281</ele>
        <time>2014-05-15T08:35:51.000Z</time>
      </trkpt>
      <trkpt lat="42.06807" lon="9.13631">
        <ele>2060.1999511719</ele>
        <time>2014-05-15T08:36:00.000Z</time>
      </trkpt>
      <trkpt lat="42.06813" lon="9.13629">
        <ele>2058.1999511719</ele>
        <time>2014-05-15T08:36:07.000Z</time>
      </trkpt>
      <trkpt lat="42.06816" lon="9.1363">
        <ele>2056.8000488281</ele>
        <time>2014-05-15T08:36:12.000Z</time>
      </trkpt>
      <trkpt lat="42.06816" lon="9.13631">
        <ele>2056.6000976562</ele>
        <time>2014-05-15T08:36:13.000Z</time>
      </trkpt>
      <trkpt lat="42.06819" lon="9.13633">
        <ele>2055.3999023438</ele>
        <time>2014-05-15T08:36:18.000Z</time>
      </trkpt>
      <trkpt lat="42.06817" lon="9.13634">
        <ele>2055.8000488281</ele>
        <time>2014-05-15T08:36:28.000Z</time>
      </trkpt>
      <trkpt lat="42.06816" lon="9.13632">
        <ele>2056.6000976562</ele>
        <time>2014-05-15T08:36:30.000Z</time>
      </trkpt>
      <trkpt lat="42.06816" lon="9.13629">
        <ele>2057</ele>
        <time>2014-05-15T08:36:32.000Z</time>
      </trkpt>
      <trkpt lat="42.06818" lon="9.13624">
        <ele>2057</ele>
        <time>2014-05-15T08:36:37.000Z</time>
      </trkpt>
      <trkpt lat="42.06818" lon="9.13624">
        <ele>2057</ele>
        <time>2014-05-15T08:36:38.000Z</time>
      </trkpt>
      <trkpt lat="42.0682" lon="9.13625">
        <ele>2056</ele>
        <time>2014-05-15T08:36:45.000Z</time>
      </trkpt>
      <trkpt lat="42.06821" lon="9.13621">
        <ele>2056.1999511719</ele>
        <time>2014-05-15T08:36:51.000Z</time>
      </trkpt>
      <trkpt lat="42.06822" lon="9.13619">
        <ele>2056.1999511719</ele>
        <time>2014-05-15T08:36:56.000Z</time>
      </trkpt>
      <trkpt lat="42.06825" lon="9.13617">
        <ele>2055.6000976562</ele>
        <time>2014-05-15T08:37:03.000Z</time>
      </trkpt>
      <trkpt lat="42.06826" lon="9.1362">
        <ele>2054.6000976562</ele>
        <time>2014-05-15T08:37:13.000Z</time>
      </trkpt>
      <trkpt lat="42.06829" lon="9.13621">
        <ele>2053.8000488281</ele>
        <time>2014-05-15T08:37:17.000Z</time>
      </trkpt>
      <trkpt lat="42.0683" lon="9.13623">
        <ele>2053</ele>
        <time>2014-05-15T08:37:22.000Z</time>
      </trkpt>
      <trkpt lat="42.06832" lon="9.13625">
        <ele>2052.3999023438</ele>
        <time>2014-05-15T08:37:28.000Z</time>
      </trkpt>
      <trkpt lat="42.06833" lon="9.13624">
        <ele>2052</ele>
        <time>2014-05-15T08:37:34.000Z</time>
      </trkpt>
      <trkpt lat="42.06836" lon="9.13625">
        <ele>2051</ele>
        <time>2014-05-15T08:37:41.000Z</time>
      </trkpt>
      <trkpt lat="42.06839" lon="9.13625">
        <ele>2050.6000976562</ele>
        <time>2014-05-15T08:37:50.000Z</time>
      </trkpt>
      <trkpt lat="42.0684" lon="9.13626">
        <ele>2049.8000488281</ele>
        <time>2014-05-15T08:38:04.000Z</time>
      </trkpt>
      <trkpt lat="42.06842" lon="9.13624">
        <ele>2049.8000488281</ele>
        <time>2014-05-15T08:38:09.000Z</time>
      </trkpt>
      <trkpt lat="42.06842" lon="9.13623">
        <ele>2049.8000488281</ele>
        <time>2014-05-15T08:38:22.000Z</time>
      </trkpt>
      <trkpt lat="42.06844" lon="9.13622">
        <ele>2049.3999023438</ele>
        <time>2014-05-15T08:38:28.000Z</time>
      </trkpt>
      <trkpt lat="42.06846" lon="9.13619">
        <ele>2049.3999023438</ele>
        <time>2014-05-15T08:38:34.000Z</time>
      </trkpt>
      <trkpt lat="42.06846" lon="9.13619">
        <ele>2049.3999023438</ele>
        <time>2014-05-15T08:38:38.000Z</time>
      </trkpt>
      <trkpt lat="42.06846" lon="9.13618">
        <ele>2049.8000488281</ele>
        <time>2014-05-15T08:38:44.000Z</time>
      </trkpt>
      <trkpt lat="42.06848" lon="9.13617">
        <ele>2049.1999511719</ele>
        <time>2014-05-15T08:38:49.000Z</time>
      </trkpt>
      <trkpt lat="42.0685" lon="9.13618">
        <ele>2048.3999023438</ele>
        <time>2014-05-15T08:38:56.000Z</time>
      </trkpt>
      <trkpt lat="42.06855" lon="9.13619">
        <ele>2047.1999511719</ele>
        <time>2014-05-15T08:39:04.000Z</time>
      </trkpt>
      <trkpt lat="42.06857" lon="9.13619">
        <ele>2046.4000244141</ele>
        <time>2014-05-15T08:39:11.000Z</time>
      </trkpt>
      <trkpt lat="42.06861" lon="9.13618">
        <ele>2045.8000488281</ele>
        <time>2014-05-15T08:39:21.000Z</time>
      </trkpt>
      <trkpt lat="42.06871" lon="9.13619">
        <ele>2043</ele>
        <time>2014-05-15T08:39:26.000Z</time>
      </trkpt>
      <trkpt lat="42.06886" lon="9.13626">
        <ele>2037.8000488281</ele>
        <time>2014-05-15T08:39:34.000Z</time>
      </trkpt>
      <trkpt lat="42.06887" lon="9.13628">
        <ele>2037.4000244141</ele>
        <time>2014-05-15T08:39:35.000Z</time>
      </trkpt>
      <trkpt lat="42.06887" lon="9.13628">
        <ele>2037.1999511719</ele>
        <time>2014-05-15T08:39:38.000Z</time>
      </trkpt>
      <trkpt lat="42.06889" lon="9.13631">
        <ele>2036.4000244141</ele>
        <time>2014-05-15T08:39:45.000Z</time>
      </trkpt>
      <trkpt lat="42.06893" lon="9.13635">
        <ele>2034.4000244141</ele>
        <time>2014-05-15T08:39:49.000Z</time>
      </trkpt>
      <trkpt lat="42.06897" lon="9.13637">
        <ele>2033.1999511719</ele>
        <time>2014-05-15T08:39:52.000Z</time>
      </trkpt>
      <trkpt lat="42.06899" lon="9.13638">
        <ele>2032.4000244141</ele>
        <time>2014-05-15T08:39:57.000Z</time>
      </trkpt>
      <trkpt lat="42.06899" lon="9.1364">
        <ele>2032.1999511719</ele>
        <time>2014-05-15T08:40:24.000Z</time>
      </trkpt>
      <trkpt lat="42.06899" lon="9.1364">
        <ele>2032.4000244141</ele>
        <time>2014-05-15T08:40:25.000Z</time>
      </trkpt>
      <trkpt lat="42.06895" lon="9.1364">
        <ele>2033.4000244141</ele>
        <time>2014-05-15T08:40:29.000Z</time>
      </trkpt>
      <trkpt lat="42.06893" lon="9.1364">
        <ele>2033.5999755859</ele>
        <time>2014-05-15T08:40:35.000Z</time>
      </trkpt>
      <trkpt lat="42.06896" lon="9.13642">
        <ele>2032.8000488281</ele>
        <time>2014-05-15T08:41:09.000Z</time>
      </trkpt>
      <trkpt lat="42.06896" lon="9.13644">
        <ele>2032.4000244141</ele>
        <time>2014-05-15T08:41:21.000Z</time>
      </trkpt>
      <trkpt lat="42.06895" lon="9.1364">
        <ele>2033.1999511719</ele>
        <time>2014-05-15T08:42:23.000Z</time>
      </trkpt>
      <trkpt lat="42.06897" lon="9.1364">
        <ele>2032.8000488281</ele>
        <time>2014-05-15T08:42:46.000Z</time>
      </trkpt>
      <trkpt lat="42.06899" lon="9.13639">
        <ele>2032.1999511719</ele>
        <time>2014-05-15T08:43:01.000Z</time>
      </trkpt>
      <trkpt lat="42.06898" lon="9.13638">
        <ele>2032.8000488281</ele>
        <time>2014-05-15T08:43:11.000Z</time>
      </trkpt>
      <trkpt lat="42.06901" lon="9.13638">
        <ele>2032</ele>
        <time>2014-05-15T08:43:14.000Z</time>
      </trkpt>
      <trkpt lat="42.06901" lon="9.13638">
        <ele>2031.8000488281</ele>
        <time>2014-05-15T08:43:16.000Z</time>
      </trkpt>
      <trkpt lat="42.06905" lon="9.13639">
        <ele>2030.8000488281</ele>
        <time>2014-05-15T08:43:23.000Z</time>
      </trkpt>
      <trkpt lat="42.06908" lon="9.13641">
        <ele>2029.8000488281</ele>
        <time>2014-05-15T08:43:25.000Z</time>
      </trkpt>
      <trkpt lat="42.06911" lon="9.1364">
        <ele>2029.1999511719</ele>
        <time>2014-05-15T08:43:27.000Z</time>
      </trkpt>
      <trkpt lat="42.06912" lon="9.13642">
        <ele>2029</ele>
        <time>2014-05-15T08:43:28.000Z</time>
      </trkpt>
      <trkpt lat="42.06917" lon="9.13644">
        <ele>2028.1999511719</ele>
        <time>2014-05-15T08:43:31.000Z</time>
      </trkpt>
      <trkpt lat="42.06924" lon="9.13645">
        <ele>2027.5999755859</ele>
        <time>2014-05-15T08:43:35.000Z</time>
      </trkpt>
      <trkpt lat="42.06926" lon="9.13647">
        <ele>2027.1999511719</ele>
        <time>2014-05-15T08:43:36.000Z</time>
      </trkpt>
      <trkpt lat="42.0693" lon="9.1365">
        <ele>2026.4000244141</ele>
        <time>2014-05-15T08:43:40.000Z</time>
      </trkpt>
      <trkpt lat="42.0693" lon="9.13653">
        <ele>2026</ele>
        <time>2014-05-15T08:43:42.000Z</time>
      </trkpt>
      <trkpt lat="42.06934" lon="9.1366">
        <ele>2024.5999755859</ele>
        <time>2014-05-15T08:43:47.000Z</time>
      </trkpt>
      <trkpt lat="42.06935" lon="9.13665">
        <ele>2023.5999755859</ele>
        <time>2014-05-15T08:43:50.000Z</time>
      </trkpt>
      <trkpt lat="42.06936" lon="9.13668">
        <ele>2023</ele>
        <time>2014-05-15T08:43:52.000Z</time>
      </trkpt>
      <trkpt lat="42.06942" lon="9.13673">
        <ele>2022</ele>
        <time>2014-05-15T08:43:57.000Z</time>
      </trkpt>
      <trkpt lat="42.06942" lon="9.13676">
        <ele>2021.4000244141</ele>
        <time>2014-05-15T08:43:58.000Z</time>
      </trkpt>
      <trkpt lat="42.06945" lon="9.1368">
        <ele>2020.5999755859</ele>
        <time>2014-05-15T08:44:01.000Z</time>
      </trkpt>
      <trkpt lat="42.0695" lon="9.13683">
        <ele>2019.8000488281</ele>
        <time>2014-05-15T08:44:06.000Z</time>
      </trkpt>
      <trkpt lat="42.06951" lon="9.13684">
        <ele>2019.5999755859</ele>
        <time>2014-05-15T08:44:07.000Z</time>
      </trkpt>
      <trkpt lat="42.06954" lon="9.13688">
        <ele>2018.8000488281</ele>
        <time>2014-05-15T08:44:11.000Z</time>
      </trkpt>
      <trkpt lat="42.06957" lon="9.13692">
        <ele>2017.8000488281</ele>
        <time>2014-05-15T08:44:14.000Z</time>
      </trkpt>
      <trkpt lat="42.0696" lon="9.13699">
        <ele>2016.1999511719</ele>
        <time>2014-05-15T08:44:17.000Z</time>
      </trkpt>
      <trkpt lat="42.0696" lon="9.13702">
        <ele>2015.5999755859</ele>
        <time>2014-05-15T08:44:18.000Z</time>
      </trkpt>
      <trkpt lat="42.06957" lon="9.13711">
        <ele>2013.5999755859</ele>
        <time>2014-05-15T08:44:22.000Z</time>
      </trkpt>
      <trkpt lat="42.06957" lon="9.13714">
        <ele>2013.1999511719</ele>
        <time>2014-05-15T08:44:23.000Z</time>
      </trkpt>
      <trkpt lat="42.06952" lon="9.13723">
        <ele>2011.1999511719</ele>
        <time>2014-05-15T08:44:27.000Z</time>
      </trkpt>
      <trkpt lat="42.0695" lon="9.13738">
        <ele>2008.1999511719</ele>
        <time>2014-05-15T08:44:32.000Z</time>
      </trkpt>
      <trkpt lat="42.06951" lon="9.13746">
        <ele>2006.5999755859</ele>
        <time>2014-05-15T08:44:36.000Z</time>
      </trkpt>
      <trkpt lat="42.06952" lon="9.13747">
        <ele>2006.1999511719</ele>
        <time>2014-05-15T08:44:37.000Z</time>
      </trkpt>
      <trkpt lat="42.06954" lon="9.13764">
        <ele>2003</ele>
        <time>2014-05-15T08:44:45.000Z</time>
      </trkpt>
      <trkpt lat="42.06954" lon="9.13772">
        <ele>2001.5999755859</ele>
        <time>2014-05-15T08:44:49.000Z</time>
      </trkpt>
      <trkpt lat="42.06954" lon="9.13782">
        <ele>1999.5999755859</ele>
        <time>2014-05-15T08:44:56.000Z</time>
      </trkpt>
      <trkpt lat="42.06954" lon="9.13785">
        <ele>1999</ele>
        <time>2014-05-15T08:44:58.000Z</time>
      </trkpt>
      <trkpt lat="42.06954" lon="9.1379">
        <ele>1998</ele>
        <time>2014-05-15T08:45:01.000Z</time>
      </trkpt>
      <trkpt lat="42.06955" lon="9.13794">
        <ele>1997</ele>
        <time>2014-05-15T08:45:04.000Z</time>
      </trkpt>
      <trkpt lat="42.06955" lon="9.13797">
        <ele>1996.4000244141</ele>
        <time>2014-05-15T08:45:06.000Z</time>
      </trkpt>
      <trkpt lat="42.06956" lon="9.13798">
        <ele>1996</ele>
        <time>2014-05-15T08:45:09.000Z</time>
      </trkpt>
      <trkpt lat="42.06957" lon="9.13799">
        <ele>1995.8000488281</ele>
        <time>2014-05-15T08:45:10.000Z</time>
      </trkpt>
      <trkpt lat="42.06958" lon="9.138">
        <ele>1995.1999511719</ele>
        <time>2014-05-15T08:45:12.000Z</time>
      </trkpt>
      <trkpt lat="42.06961" lon="9.13801">
        <ele>1994.5999755859</ele>
        <time>2014-05-15T08:45:17.000Z</time>
      </trkpt>
      <trkpt lat="42.06966" lon="9.13803">
        <ele>1993.5999755859</ele>
        <time>2014-05-15T08:45:21.000Z</time>
      </trkpt>
      <trkpt lat="42.06966" lon="9.13804">
        <ele>1993.4000244141</ele>
        <time>2014-05-15T08:45:22.000Z</time>
      </trkpt>
      <trkpt lat="42.06967" lon="9.13805">
        <ele>1993.1999511719</ele>
        <time>2014-05-15T08:45:23.000Z</time>
      </trkpt>
      <trkpt lat="42.06969" lon="9.13809">
        <ele>1992.1999511719</ele>
        <time>2014-05-15T08:45:27.000Z</time>
      </trkpt>
      <trkpt lat="42.06972" lon="9.13811">
        <ele>1991.1999511719</ele>
        <time>2014-05-15T08:45:31.000Z</time>
      </trkpt>
      <trkpt lat="42.06973" lon="9.13811">
        <ele>1991.1999511719</ele>
        <time>2014-05-15T08:45:33.000Z</time>
      </trkpt>
      <trkpt lat="42.06975" lon="9.1381">
        <ele>1991</ele>
        <time>2014-05-15T08:45:35.000Z</time>
      </trkpt>
      <trkpt lat="42.0698" lon="9.13812">
        <ele>1990</ele>
        <time>2014-05-15T08:45:39.000Z</time>
      </trkpt>
      <trkpt lat="42.06983" lon="9.13813">
        <ele>1989.4000244141</ele>
        <time>2014-05-15T08:45:41.000Z</time>
      </trkpt>
      <trkpt lat="42.06988" lon="9.13816">
        <ele>1988.1999511719</ele>
        <time>2014-05-15T08:45:44.000Z</time>
      </trkpt>
      <trkpt lat="42.06996" lon="9.13819">
        <ele>1986</ele>
        <time>2014-05-15T08:45:48.000Z</time>
      </trkpt>
      <trkpt lat="42.07005" lon="9.13821">
        <ele>1983.4000244141</ele>
        <time>2014-05-15T08:45:52.000Z</time>
      </trkpt>
      <trkpt lat="42.0701" lon="9.13826">
        <ele>1980.8000488281</ele>
        <time>2014-05-15T08:45:56.000Z</time>
      </trkpt>
      <trkpt lat="42.07012" lon="9.1383">
        <ele>1979.4000244141</ele>
        <time>2014-05-15T08:45:59.000Z</time>
      </trkpt>
      <trkpt lat="42.07013" lon="9.13833">
        <ele>1978.4000244141</ele>
        <time>2014-05-15T08:46:01.000Z</time>
      </trkpt>
      <trkpt lat="42.07015" lon="9.13839">
        <ele>1976.5999755859</ele>
        <time>2014-05-15T08:46:05.000Z</time>
      </trkpt>
      <trkpt lat="42.07015" lon="9.13842">
        <ele>1976</ele>
        <time>2014-05-15T08:46:07.000Z</time>
      </trkpt>
      <trkpt lat="42.07017" lon="9.1385">
        <ele>1973.5999755859</ele>
        <time>2014-05-15T08:46:13.000Z</time>
      </trkpt>
      <trkpt lat="42.07024" lon="9.13853">
        <ele>1971.1999511719</ele>
        <time>2014-05-15T08:46:19.000Z</time>
      </trkpt>
      <trkpt lat="42.07023" lon="9.13855">
        <ele>1970.8000488281</ele>
        <time>2014-05-15T08:46:24.000Z</time>
      </trkpt>
      <trkpt lat="42.07026" lon="9.13856">
        <ele>1969.8000488281</ele>
        <time>2014-05-15T08:46:29.000Z</time>
      </trkpt>
      <trkpt lat="42.0703" lon="9.13857">
        <ele>1968.5999755859</ele>
        <time>2014-05-15T08:46:35.000Z</time>
      </trkpt>
      <trkpt lat="42.07033" lon="9.13862">
        <ele>1966.5999755859</ele>
        <time>2014-05-15T08:46:40.000Z</time>
      </trkpt>
      <trkpt lat="42.07035" lon="9.1387">
        <ele>1964.4000244141</ele>
        <time>2014-05-15T08:46:46.000Z</time>
      </trkpt>
      <trkpt lat="42.07038" lon="9.13874">
        <ele>1962.5999755859</ele>
        <time>2014-05-15T08:46:52.000Z</time>
      </trkpt>
      <trkpt lat="42.0704" lon="9.13876">
        <ele>1961.8000488281</ele>
        <time>2014-05-15T08:46:58.000Z</time>
      </trkpt>
      <trkpt lat="42.07042" lon="9.1388">
        <ele>1960.4000244141</ele>
        <time>2014-05-15T08:47:04.000Z</time>
      </trkpt>
      <trkpt lat="42.07042" lon="9.1388">
        <ele>1960.1999511719</ele>
        <time>2014-05-15T08:47:11.000Z</time>
      </trkpt>
      <trkpt lat="42.07045" lon="9.13884">
        <ele>1958.5999755859</ele>
        <time>2014-05-15T08:47:26.000Z</time>
      </trkpt>
      <trkpt lat="42.07046" lon="9.13891">
        <ele>1957</ele>
        <time>2014-05-15T08:47:31.000Z</time>
      </trkpt>
      <trkpt lat="42.07046" lon="9.13893">
        <ele>1956.4000244141</ele>
        <time>2014-05-15T08:47:33.000Z</time>
      </trkpt>
      <trkpt lat="42.07047" lon="9.13896">
        <ele>1955.1999511719</ele>
        <time>2014-05-15T08:47:36.000Z</time>
      </trkpt>
      <trkpt lat="42.07051" lon="9.13902">
        <ele>1953.1999511719</ele>
        <time>2014-05-15T08:47:41.000Z</time>
      </trkpt>
      <trkpt lat="42.07052" lon="9.13909">
        <ele>1951.4000244141</ele>
        <time>2014-05-15T08:47:46.000Z</time>
      </trkpt>
      <trkpt lat="42.07051" lon="9.13914">
        <ele>1950.5999755859</ele>
        <time>2014-05-15T08:47:49.000Z</time>
      </trkpt>
      <trkpt lat="42.0705" lon="9.13917">
        <ele>1950</ele>
        <time>2014-05-15T08:47:51.000Z</time>
      </trkpt>
      <trkpt lat="42.0705" lon="9.13919">
        <ele>1949.5999755859</ele>
        <time>2014-05-15T08:47:52.000Z</time>
      </trkpt>
      <trkpt lat="42.07049" lon="9.1393">
        <ele>1947.5999755859</ele>
        <time>2014-05-15T08:47:58.000Z</time>
      </trkpt>
      <trkpt lat="42.07051" lon="9.13934">
        <ele>1946.4000244141</ele>
        <time>2014-05-15T08:48:01.000Z</time>
      </trkpt>
      <trkpt lat="42.0705" lon="9.13939">
        <ele>1945.4000244141</ele>
        <time>2014-05-15T08:48:04.000Z</time>
      </trkpt>
      <trkpt lat="42.07051" lon="9.13941">
        <ele>1945</ele>
        <time>2014-05-15T08:48:05.000Z</time>
      </trkpt>
      <trkpt lat="42.07051" lon="9.13944">
        <ele>1944.1999511719</ele>
        <time>2014-05-15T08:48:07.000Z</time>
      </trkpt>
      <trkpt lat="42.0705" lon="9.13951">
        <ele>1943.5999755859</ele>
        <time>2014-05-15T08:48:12.000Z</time>
      </trkpt>
      <trkpt lat="42.0705" lon="9.13954">
        <ele>1943.4000244141</ele>
        <time>2014-05-15T08:48:14.000Z</time>
      </trkpt>
      <trkpt lat="42.0705" lon="9.13959">
        <ele>1942.5999755859</ele>
        <time>2014-05-15T08:48:17.000Z</time>
      </trkpt>
      <trkpt lat="42.07049" lon="9.13965">
        <ele>1942.1999511719</ele>
        <time>2014-05-15T08:48:22.000Z</time>
      </trkpt>
      <trkpt lat="42.07051" lon="9.13971">
        <ele>1940.8000488281</ele>
        <time>2014-05-15T08:48:27.000Z</time>
      </trkpt>
      <trkpt lat="42.07052" lon="9.13972">
        <ele>1940.4000244141</ele>
        <time>2014-05-15T08:48:28.000Z</time>
      </trkpt>
      <trkpt lat="42.07053" lon="9.13972">
        <ele>1940</ele>
        <time>2014-05-15T08:48:30.000Z</time>
      </trkpt>
      <trkpt lat="42.07054" lon="9.13973">
        <ele>1939.4000244141</ele>
        <time>2014-05-15T08:48:32.000Z</time>
      </trkpt>
      <trkpt lat="42.07056" lon="9.13981">
        <ele>1938</ele>
        <time>2014-05-15T08:48:37.000Z</time>
      </trkpt>
      <trkpt lat="42.07056" lon="9.13984">
        <ele>1937.5999755859</ele>
        <time>2014-05-15T08:48:39.000Z</time>
      </trkpt>
      <trkpt lat="42.07056" lon="9.13985">
        <ele>1937.1999511719</ele>
        <time>2014-05-15T08:48:40.000Z</time>
      </trkpt>
      <trkpt lat="42.07057" lon="9.13989">
        <ele>1936.4000244141</ele>
        <time>2014-05-15T08:48:43.000Z</time>
      </trkpt>
      <trkpt lat="42.07061" lon="9.13997">
        <ele>1934.4000244141</ele>
        <time>2014-05-15T08:48:48.000Z</time>
      </trkpt>
      <trkpt lat="42.07061" lon="9.13999">
        <ele>1934</ele>
        <time>2014-05-15T08:48:50.000Z</time>
      </trkpt>
      <trkpt lat="42.07062" lon="9.14004">
        <ele>1933.1999511719</ele>
        <time>2014-05-15T08:48:54.000Z</time>
      </trkpt>
      <trkpt lat="42.07062" lon="9.1401">
        <ele>1932.4000244141</ele>
        <time>2014-05-15T08:48:58.000Z</time>
      </trkpt>
      <trkpt lat="42.07061" lon="9.14011">
        <ele>1932.4000244141</ele>
        <time>2014-05-15T08:48:59.000Z</time>
      </trkpt>
      <trkpt lat="42.07059" lon="9.14019">
        <ele>1931</ele>
        <time>2014-05-15T08:49:04.000Z</time>
      </trkpt>
      <trkpt lat="42.07059" lon="9.14021">
        <ele>1930.5999755859</ele>
        <time>2014-05-15T08:49:05.000Z</time>
      </trkpt>
      <trkpt lat="42.07058" lon="9.14023">
        <ele>1930.4000244141</ele>
        <time>2014-05-15T08:49:06.000Z</time>
      </trkpt>
      <trkpt lat="42.07057" lon="9.14026">
        <ele>1929.8000488281</ele>
        <time>2014-05-15T08:49:09.000Z</time>
      </trkpt>
      <trkpt lat="42.07058" lon="9.14031">
        <ele>1928.8000488281</ele>
        <time>2014-05-15T08:49:14.000Z</time>
      </trkpt>
      <trkpt lat="42.07056" lon="9.14037">
        <ele>1928</ele>
        <time>2014-05-15T08:49:18.000Z</time>
      </trkpt>
      <trkpt lat="42.07055" lon="9.14041">
        <ele>1927.5999755859</ele>
        <time>2014-05-15T08:49:22.000Z</time>
      </trkpt>
      <trkpt lat="42.07056" lon="9.14048">
        <ele>1926.1999511719</ele>
        <time>2014-05-15T08:49:27.000Z</time>
      </trkpt>
      <trkpt lat="42.07058" lon="9.14049">
        <ele>1925.5999755859</ele>
        <time>2014-05-15T08:49:28.000Z</time>
      </trkpt>
      <trkpt lat="42.07059" lon="9.14052">
        <ele>1924.8000488281</ele>
        <time>2014-05-15T08:49:31.000Z</time>
      </trkpt>
      <trkpt lat="42.07062" lon="9.14057">
        <ele>1923.5999755859</ele>
        <time>2014-05-15T08:49:35.000Z</time>
      </trkpt>
      <trkpt lat="42.07062" lon="9.1406">
        <ele>1923.1999511719</ele>
        <time>2014-05-15T08:49:37.000Z</time>
      </trkpt>
      <trkpt lat="42.07061" lon="9.14066">
        <ele>1922.4000244141</ele>
        <time>2014-05-15T08:49:40.000Z</time>
      </trkpt>
      <trkpt lat="42.07058" lon="9.14077">
        <ele>1920.8000488281</ele>
        <time>2014-05-15T08:49:46.000Z</time>
      </trkpt>
      <trkpt lat="42.07055" lon="9.14086">
        <ele>1919.8000488281</ele>
        <time>2014-05-15T08:49:52.000Z</time>
      </trkpt>
      <trkpt lat="42.07054" lon="9.1409">
        <ele>1919.1999511719</ele>
        <time>2014-05-15T08:49:55.000Z</time>
      </trkpt>
      <trkpt lat="42.07055" lon="9.14093">
        <ele>1918.4000244141</ele>
        <time>2014-05-15T08:49:58.000Z</time>
      </trkpt>
      <trkpt lat="42.07055" lon="9.14099">
        <ele>1916.8000488281</ele>
        <time>2014-05-15T08:50:03.000Z</time>
      </trkpt>
      <trkpt lat="42.07058" lon="9.14101">
        <ele>1915.8000488281</ele>
        <time>2014-05-15T08:50:08.000Z</time>
      </trkpt>
      <trkpt lat="42.07059" lon="9.14105">
        <ele>1914.8000488281</ele>
        <time>2014-05-15T08:50:15.000Z</time>
      </trkpt>
      <trkpt lat="42.07063" lon="9.14113">
        <ele>1912.4000244141</ele>
        <time>2014-05-15T08:50:20.000Z</time>
      </trkpt>
      <trkpt lat="42.07071" lon="9.14128">
        <ele>1909.5999755859</ele>
        <time>2014-05-15T08:50:27.000Z</time>
      </trkpt>
      <trkpt lat="42.07078" lon="9.14143">
        <ele>1906.8000488281</ele>
        <time>2014-05-15T08:50:34.000Z</time>
      </trkpt>
      <trkpt lat="42.07079" lon="9.1415">
        <ele>1905.5999755859</ele>
        <time>2014-05-15T08:50:39.000Z</time>
      </trkpt>
      <trkpt lat="42.07081" lon="9.14152">
        <ele>1905.4000244141</ele>
        <time>2014-05-15T08:50:45.000Z</time>
      </trkpt>
      <trkpt lat="42.07084" lon="9.14156">
        <ele>1904.4000244141</ele>
        <time>2014-05-15T08:50:51.000Z</time>
      </trkpt>
      <trkpt lat="42.07085" lon="9.14157">
        <ele>1904.1999511719</ele>
        <time>2014-05-15T08:50:52.000Z</time>
      </trkpt>
      <trkpt lat="42.07088" lon="9.14158">
        <ele>1903.8000488281</ele>
        <time>2014-05-15T08:50:55.000Z</time>
      </trkpt>
      <trkpt lat="42.07089" lon="9.1416">
        <ele>1903.4000244141</ele>
        <time>2014-05-15T08:50:56.000Z</time>
      </trkpt>
      <trkpt lat="42.07091" lon="9.14162">
        <ele>1902.8000488281</ele>
        <time>2014-05-15T08:50:58.000Z</time>
      </trkpt>
      <trkpt lat="42.07095" lon="9.14165">
        <ele>1902.1999511719</ele>
        <time>2014-05-15T08:51:01.000Z</time>
      </trkpt>
      <trkpt lat="42.07097" lon="9.14164">
        <ele>1902.1999511719</ele>
        <time>2014-05-15T08:51:03.000Z</time>
      </trkpt>
      <trkpt lat="42.07102" lon="9.14165">
        <ele>1901.5999755859</ele>
        <time>2014-05-15T08:51:08.000Z</time>
      </trkpt>
      <trkpt lat="42.07106" lon="9.14167">
        <ele>1901</ele>
        <time>2014-05-15T08:51:11.000Z</time>
      </trkpt>
      <trkpt lat="42.07108" lon="9.14168">
        <ele>1900.8000488281</ele>
        <time>2014-05-15T08:51:12.000Z</time>
      </trkpt>
      <trkpt lat="42.07115" lon="9.14171">
        <ele>1899.8000488281</ele>
        <time>2014-05-15T08:51:18.000Z</time>
      </trkpt>
      <trkpt lat="42.07117" lon="9.14171">
        <ele>1899.5999755859</ele>
        <time>2014-05-15T08:51:19.000Z</time>
      </trkpt>
      <trkpt lat="42.07122" lon="9.14172">
        <ele>1899.1999511719</ele>
        <time>2014-05-15T08:51:23.000Z</time>
      </trkpt>
      <trkpt lat="42.07123" lon="9.14173">
        <ele>1899</ele>
        <time>2014-05-15T08:51:24.000Z</time>
      </trkpt>
      <trkpt lat="42.07125" lon="9.14176">
        <ele>1898.1999511719</ele>
        <time>2014-05-15T08:51:27.000Z</time>
      </trkpt>
      <trkpt lat="42.07126" lon="9.1418">
        <ele>1897.5999755859</ele>
        <time>2014-05-15T08:51:29.000Z</time>
      </trkpt>
      <trkpt lat="42.07133" lon="9.14184">
        <ele>1896.4000244141</ele>
        <time>2014-05-15T08:51:35.000Z</time>
      </trkpt>
      <trkpt lat="42.07136" lon="9.14186">
        <ele>1896</ele>
        <time>2014-05-15T08:51:38.000Z</time>
      </trkpt>
      <trkpt lat="42.0714" lon="9.14187">
        <ele>1895.5999755859</ele>
        <time>2014-05-15T08:51:42.000Z</time>
      </trkpt>
      <trkpt lat="42.07144" lon="9.14186">
        <ele>1895.1999511719</ele>
        <time>2014-05-15T08:51:46.000Z</time>
      </trkpt>
      <trkpt lat="42.07149" lon="9.14189">
        <ele>1894.5999755859</ele>
        <time>2014-05-15T08:51:51.000Z</time>
      </trkpt>
      <trkpt lat="42.07154" lon="9.14186">
        <ele>1894.1999511719</ele>
        <time>2014-05-15T08:51:55.000Z</time>
      </trkpt>
      <trkpt lat="42.07155" lon="9.14185">
        <ele>1894</ele>
        <time>2014-05-15T08:51:56.000Z</time>
      </trkpt>
      <trkpt lat="42.07162" lon="9.14183">
        <ele>1893.1999511719</ele>
        <time>2014-05-15T08:52:02.000Z</time>
      </trkpt>
      <trkpt lat="42.07163" lon="9.14183">
        <ele>1893.1999511719</ele>
        <time>2014-05-15T08:52:04.000Z</time>
      </trkpt>
      <trkpt lat="42.07167" lon="9.14184">
        <ele>1893.1999511719</ele>
        <time>2014-05-15T08:52:08.000Z</time>
      </trkpt>
      <trkpt lat="42.07168" lon="9.14185">
        <ele>1893.1999511719</ele>
        <time>2014-05-15T08:52:10.000Z</time>
      </trkpt>
      <trkpt lat="42.07169" lon="9.14187">
        <ele>1893</ele>
        <time>2014-05-15T08:52:12.000Z</time>
      </trkpt>
      <trkpt lat="42.07172" lon="9.14187">
        <ele>1893</ele>
        <time>2014-05-15T08:52:14.000Z</time>
      </trkpt>
      <trkpt lat="42.07178" lon="9.14197">
        <ele>1892.8000488281</ele>
        <time>2014-05-15T08:52:20.000Z</time>
      </trkpt>
      <trkpt lat="42.07181" lon="9.1421">
        <ele>1892.4000244141</ele>
        <time>2014-05-15T08:52:27.000Z</time>
      </trkpt>
      <trkpt lat="42.07181" lon="9.14212">
        <ele>1892.4000244141</ele>
        <time>2014-05-15T08:52:28.000Z</time>
      </trkpt>
      <trkpt lat="42.07182" lon="9.14217">
        <ele>1892.1999511719</ele>
        <time>2014-05-15T08:52:31.000Z</time>
      </trkpt>
      <trkpt lat="42.07184" lon="9.1422">
        <ele>1892</ele>
        <time>2014-05-15T08:52:33.000Z</time>
      </trkpt>
      <trkpt lat="42.0719" lon="9.14229">
        <ele>1891.4000244141</ele>
        <time>2014-05-15T08:52:40.000Z</time>
      </trkpt>
      <trkpt lat="42.07191" lon="9.14228">
        <ele>1891.5999755859</ele>
        <time>2014-05-15T08:52:42.000Z</time>
      </trkpt>
      <trkpt lat="42.07195" lon="9.1423">
        <ele>1891.8000488281</ele>
        <time>2014-05-15T08:52:46.000Z</time>
      </trkpt>
      <trkpt lat="42.07197" lon="9.1423">
        <ele>1891.8000488281</ele>
        <time>2014-05-15T08:52:49.000Z</time>
      </trkpt>
      <trkpt lat="42.07198" lon="9.1423">
        <ele>1891.8000488281</ele>
        <time>2014-05-15T08:52:50.000Z</time>
      </trkpt>
      <trkpt lat="42.07203" lon="9.14231">
        <ele>1891.5999755859</ele>
        <time>2014-05-15T08:52:55.000Z</time>
      </trkpt>
      <trkpt lat="42.07204" lon="9.14232">
        <ele>1891.5999755859</ele>
        <time>2014-05-15T08:52:56.000Z</time>
      </trkpt>
      <trkpt lat="42.07206" lon="9.14231">
        <ele>1891.5999755859</ele>
        <time>2014-05-15T08:52:58.000Z</time>
      </trkpt>
      <trkpt lat="42.07211" lon="9.1423">
        <ele>1891.5999755859</ele>
        <time>2014-05-15T08:53:02.000Z</time>
      </trkpt>
      <trkpt lat="42.07215" lon="9.14231">
        <ele>1891.5999755859</ele>
        <time>2014-05-15T08:53:06.000Z</time>
      </trkpt>
      <trkpt lat="42.07217" lon="9.14235">
        <ele>1891.5999755859</ele>
        <time>2014-05-15T08:53:10.000Z</time>
      </trkpt>
      <trkpt lat="42.07221" lon="9.14237">
        <ele>1891.4000244141</ele>
        <time>2014-05-15T08:53:15.000Z</time>
      </trkpt>
      <trkpt lat="42.07223" lon="9.1424">
        <ele>1891.4000244141</ele>
        <time>2014-05-15T08:53:19.000Z</time>
      </trkpt>
      <trkpt lat="42.07223" lon="9.14242">
        <ele>1891.1999511719</ele>
        <time>2014-05-15T08:53:20.000Z</time>
      </trkpt>
      <trkpt lat="42.07224" lon="9.14249">
        <ele>1891</ele>
        <time>2014-05-15T08:53:25.000Z</time>
      </trkpt>
      <trkpt lat="42.07224" lon="9.1425">
        <ele>1891</ele>
        <time>2014-05-15T08:53:26.000Z</time>
      </trkpt>
      <trkpt lat="42.07225" lon="9.14253">
        <ele>1890.8000488281</ele>
        <time>2014-05-15T08:53:28.000Z</time>
      </trkpt>
      <trkpt lat="42.07227" lon="9.14259">
        <ele>1890.5999755859</ele>
        <time>2014-05-15T08:53:32.000Z</time>
      </trkpt>
      <trkpt lat="42.07226" lon="9.14265">
        <ele>1890.1999511719</ele>
        <time>2014-05-15T08:53:36.000Z</time>
      </trkpt>
      <trkpt lat="42.07226" lon="9.14273">
        <ele>1889.5999755859</ele>
        <time>2014-05-15T08:53:41.000Z</time>
      </trkpt>
      <trkpt lat="42.07227" lon="9.14282">
        <ele>1888.4000244141</ele>
        <time>2014-05-15T08:53:46.000Z</time>
      </trkpt>
      <trkpt lat="42.07231" lon="9.14291">
        <ele>1887</ele>
        <time>2014-05-15T08:53:52.000Z</time>
      </trkpt>
      <trkpt lat="42.07232" lon="9.14294">
        <ele>1886.5999755859</ele>
        <time>2014-05-15T08:53:54.000Z</time>
      </trkpt>
      <trkpt lat="42.07238" lon="9.14302">
        <ele>1885.5999755859</ele>
        <time>2014-05-15T08:54:00.000Z</time>
      </trkpt>
      <trkpt lat="42.0724" lon="9.14304">
        <ele>1885.4000244141</ele>
        <time>2014-05-15T08:54:02.000Z</time>
      </trkpt>
      <trkpt lat="42.07241" lon="9.14309">
        <ele>1884.5999755859</ele>
        <time>2014-05-15T08:54:05.000Z</time>
      </trkpt>
      <trkpt lat="42.07242" lon="9.14312">
        <ele>1884.1999511719</ele>
        <time>2014-05-15T08:54:07.000Z</time>
      </trkpt>
      <trkpt lat="42.07243" lon="9.14316">
        <ele>1883.5999755859</ele>
        <time>2014-05-15T08:54:10.000Z</time>
      </trkpt>
      <trkpt lat="42.07246" lon="9.14323">
        <ele>1882</ele>
        <time>2014-05-15T08:54:15.000Z</time>
      </trkpt>
      <trkpt lat="42.07246" lon="9.14325">
        <ele>1881.5999755859</ele>
        <time>2014-05-15T08:54:16.000Z</time>
      </trkpt>
      <trkpt lat="42.07244" lon="9.14334">
        <ele>1880.1999511719</ele>
        <time>2014-05-15T08:54:23.000Z</time>
      </trkpt>
      <trkpt lat="42.07245" lon="9.14336">
        <ele>1879.8000488281</ele>
        <time>2014-05-15T08:54:25.000Z</time>
      </trkpt>
      <trkpt lat="42.0725" lon="9.14339">
        <ele>1878.5999755859</ele>
        <time>2014-05-15T08:54:29.000Z</time>
      </trkpt>
      <trkpt lat="42.07251" lon="9.1434">
        <ele>1878.1999511719</ele>
        <time>2014-05-15T08:54:31.000Z</time>
      </trkpt>
      <trkpt lat="42.07252" lon="9.14343">
        <ele>1877.5999755859</ele>
        <time>2014-05-15T08:54:33.000Z</time>
      </trkpt>
      <trkpt lat="42.07252" lon="9.14345">
        <ele>1877.4000244141</ele>
        <time>2014-05-15T08:54:34.000Z</time>
      </trkpt>
      <trkpt lat="42.07254" lon="9.14347">
        <ele>1876.5999755859</ele>
        <time>2014-05-15T08:54:37.000Z</time>
      </trkpt>
      <trkpt lat="42.07256" lon="9.14347">
        <ele>1876.4000244141</ele>
        <time>2014-05-15T08:54:39.000Z</time>
      </trkpt>
      <trkpt lat="42.07262" lon="9.14349">
        <ele>1875.1999511719</ele>
        <time>2014-05-15T08:54:45.000Z</time>
      </trkpt>
      <trkpt lat="42.07264" lon="9.14353">
        <ele>1874.1999511719</ele>
        <time>2014-05-15T08:54:50.000Z</time>
      </trkpt>
      <trkpt lat="42.07264" lon="9.14357">
        <ele>1873.5999755859</ele>
        <time>2014-05-15T08:55:22.000Z</time>
      </trkpt>
      <trkpt lat="42.07261" lon="9.14361">
        <ele>1873.1999511719</ele>
        <time>2014-05-15T08:55:29.000Z</time>
      </trkpt>
      <trkpt lat="42.07261" lon="9.14362">
        <ele>1873</ele>
        <time>2014-05-15T08:55:36.000Z</time>
      </trkpt>
      <trkpt lat="42.07264" lon="9.14362">
        <ele>1872.8000488281</ele>
        <time>2014-05-15T08:55:55.000Z</time>
      </trkpt>
      <trkpt lat="42.07268" lon="9.14364">
        <ele>1871.4000244141</ele>
        <time>2014-05-15T08:56:03.000Z</time>
      </trkpt>
      <trkpt lat="42.07271" lon="9.14361">
        <ele>1871.8000488281</ele>
        <time>2014-05-15T08:57:58.000Z</time>
      </trkpt>
      <trkpt lat="42.07276" lon="9.14362">
        <ele>1871</ele>
        <time>2014-05-15T08:58:03.000Z</time>
      </trkpt>
      <trkpt lat="42.07283" lon="9.14365">
        <ele>1869.1999511719</ele>
        <time>2014-05-15T08:58:10.000Z</time>
      </trkpt>
      <trkpt lat="42.07289" lon="9.14369">
        <ele>1867.5999755859</ele>
        <time>2014-05-15T08:58:16.000Z</time>
      </trkpt>
      <trkpt lat="42.0729" lon="9.14371">
        <ele>1866.8000488281</ele>
        <time>2014-05-15T08:58:18.000Z</time>
      </trkpt>
      <trkpt lat="42.0729" lon="9.14374">
        <ele>1866.1999511719</ele>
        <time>2014-05-15T08:58:21.000Z</time>
      </trkpt>
      <trkpt lat="42.0729" lon="9.14375">
        <ele>1865.8000488281</ele>
        <time>2014-05-15T08:58:22.000Z</time>
      </trkpt>
      <trkpt lat="42.07291" lon="9.14377">
        <ele>1865.4000244141</ele>
        <time>2014-05-15T08:58:27.000Z</time>
      </trkpt>
      <trkpt lat="42.07296" lon="9.14379">
        <ele>1864</ele>
        <time>2014-05-15T08:58:33.000Z</time>
      </trkpt>
      <trkpt lat="42.07298" lon="9.1438">
        <ele>1863.5999755859</ele>
        <time>2014-05-15T08:58:35.000Z</time>
      </trkpt>
      <trkpt lat="42.073" lon="9.14382">
        <ele>1862.8000488281</ele>
        <time>2014-05-15T08:58:38.000Z</time>
      </trkpt>
      <trkpt lat="42.073" lon="9.14383">
        <ele>1862.5999755859</ele>
        <time>2014-05-15T08:58:39.000Z</time>
      </trkpt>
      <trkpt lat="42.07301" lon="9.14384">
        <ele>1862</ele>
        <time>2014-05-15T08:58:41.000Z</time>
      </trkpt>
      <trkpt lat="42.073" lon="9.14388">
        <ele>1861.1999511719</ele>
        <time>2014-05-15T08:58:44.000Z</time>
      </trkpt>
      <trkpt lat="42.073" lon="9.14394">
        <ele>1859.8000488281</ele>
        <time>2014-05-15T08:58:49.000Z</time>
      </trkpt>
      <trkpt lat="42.073" lon="9.14397">
        <ele>1859</ele>
        <time>2014-05-15T08:58:51.000Z</time>
      </trkpt>
      <trkpt lat="42.07301" lon="9.14397">
        <ele>1858.8000488281</ele>
        <time>2014-05-15T08:58:52.000Z</time>
      </trkpt>
      <trkpt lat="42.07303" lon="9.14399">
        <ele>1858.1999511719</ele>
        <time>2014-05-15T08:58:55.000Z</time>
      </trkpt>
      <trkpt lat="42.07304" lon="9.144">
        <ele>1858</ele>
        <time>2014-05-15T08:58:56.000Z</time>
      </trkpt>
      <trkpt lat="42.07306" lon="9.14403">
        <ele>1856.8000488281</ele>
        <time>2014-05-15T08:59:02.000Z</time>
      </trkpt>
      <trkpt lat="42.07308" lon="9.14409">
        <ele>1855.1999511719</ele>
        <time>2014-05-15T08:59:07.000Z</time>
      </trkpt>
      <trkpt lat="42.07305" lon="9.14416">
        <ele>1853.8000488281</ele>
        <time>2014-05-15T08:59:12.000Z</time>
      </trkpt>
      <trkpt lat="42.07304" lon="9.14419">
        <ele>1853.1999511719</ele>
        <time>2014-05-15T08:59:14.000Z</time>
      </trkpt>
      <trkpt lat="42.07305" lon="9.14419">
        <ele>1853</ele>
        <time>2014-05-15T08:59:15.000Z</time>
      </trkpt>
      <trkpt lat="42.07305" lon="9.14423">
        <ele>1852.1999511719</ele>
        <time>2014-05-15T08:59:20.000Z</time>
      </trkpt>
      <trkpt lat="42.07305" lon="9.14427">
        <ele>1850.4000244141</ele>
        <time>2014-05-15T08:59:25.000Z</time>
      </trkpt>
      <trkpt lat="42.07307" lon="9.14432">
        <ele>1848.1999511719</ele>
        <time>2014-05-15T08:59:31.000Z</time>
      </trkpt>
      <trkpt lat="42.07309" lon="9.14435">
        <ele>1847</ele>
        <time>2014-05-15T08:59:36.000Z</time>
      </trkpt>
      <trkpt lat="42.0731" lon="9.14438">
        <ele>1845.8000488281</ele>
        <time>2014-05-15T08:59:40.000Z</time>
      </trkpt>
      <trkpt lat="42.07309" lon="9.14439">
        <ele>1845.4000244141</ele>
        <time>2014-05-15T08:59:41.000Z</time>
      </trkpt>
      <trkpt lat="42.07311" lon="9.14444">
        <ele>1843.4000244141</ele>
        <time>2014-05-15T08:59:46.000Z</time>
      </trkpt>
      <trkpt lat="42.07309" lon="9.14447">
        <ele>1842.4000244141</ele>
        <time>2014-05-15T08:59:50.000Z</time>
      </trkpt>
      <trkpt lat="42.07309" lon="9.1445">
        <ele>1841.4000244141</ele>
        <time>2014-05-15T08:59:55.000Z</time>
      </trkpt>
      <trkpt lat="42.07309" lon="9.14455">
        <ele>1839.8000488281</ele>
        <time>2014-05-15T09:00:02.000Z</time>
      </trkpt>
      <trkpt lat="42.0731" lon="9.14458">
        <ele>1838.8000488281</ele>
        <time>2014-05-15T09:00:07.000Z</time>
      </trkpt>
      <trkpt lat="42.07312" lon="9.14461">
        <ele>1838.1999511719</ele>
        <time>2014-05-15T09:00:11.000Z</time>
      </trkpt>
      <trkpt lat="42.07314" lon="9.14465">
        <ele>1837</ele>
        <time>2014-05-15T09:00:16.000Z</time>
      </trkpt>
      <trkpt lat="42.07316" lon="9.14469">
        <ele>1835.5999755859</ele>
        <time>2014-05-15T09:00:21.000Z</time>
      </trkpt>
      <trkpt lat="42.07321" lon="9.14472">
        <ele>1835</ele>
        <time>2014-05-15T09:00:27.000Z</time>
      </trkpt>
      <trkpt lat="42.07321" lon="9.14473">
        <ele>1834.5999755859</ele>
        <time>2014-05-15T09:00:28.000Z</time>
      </trkpt>
      <trkpt lat="42.07322" lon="9.14483">
        <ele>1831.5999755859</ele>
        <time>2014-05-15T09:00:35.000Z</time>
      </trkpt>
      <trkpt lat="42.07323" lon="9.14486">
        <ele>1830.5999755859</ele>
        <time>2014-05-15T09:00:37.000Z</time>
      </trkpt>
      <trkpt lat="42.07323" lon="9.14489">
        <ele>1830</ele>
        <time>2014-05-15T09:00:39.000Z</time>
      </trkpt>
      <trkpt lat="42.07323" lon="9.14496">
        <ele>1827.8000488281</ele>
        <time>2014-05-15T09:00:45.000Z</time>
      </trkpt>
      <trkpt lat="42.07324" lon="9.14498">
        <ele>1827.1999511719</ele>
        <time>2014-05-15T09:00:47.000Z</time>
      </trkpt>
      <trkpt lat="42.07324" lon="9.14499">
        <ele>1826.8000488281</ele>
        <time>2014-05-15T09:00:48.000Z</time>
      </trkpt>
      <trkpt lat="42.07324" lon="9.145">
        <ele>1826.5999755859</ele>
        <time>2014-05-15T09:00:52.000Z</time>
      </trkpt>
      <trkpt lat="42.07325" lon="9.14503">
        <ele>1825.8000488281</ele>
        <time>2014-05-15T09:00:58.000Z</time>
      </trkpt>
      <trkpt lat="42.07325" lon="9.14507">
        <ele>1824.4000244141</ele>
        <time>2014-05-15T09:01:03.000Z</time>
      </trkpt>
      <trkpt lat="42.07326" lon="9.14511">
        <ele>1823.1999511719</ele>
        <time>2014-05-15T09:01:08.000Z</time>
      </trkpt>
      <trkpt lat="42.07324" lon="9.14517">
        <ele>1821.1999511719</ele>
        <time>2014-05-15T09:01:14.000Z</time>
      </trkpt>
      <trkpt lat="42.07321" lon="9.14518">
        <ele>1820.8000488281</ele>
        <time>2014-05-15T09:01:20.000Z</time>
      </trkpt>
      <trkpt lat="42.07321" lon="9.14518">
        <ele>1820.5999755859</ele>
        <time>2014-05-15T09:01:25.000Z</time>
      </trkpt>
      <trkpt lat="42.07322" lon="9.14524">
        <ele>1819</ele>
        <time>2014-05-15T09:01:32.000Z</time>
      </trkpt>
      <trkpt lat="42.07325" lon="9.14525">
        <ele>1818.8000488281</ele>
        <time>2014-05-15T09:01:37.000Z</time>
      </trkpt>
      <trkpt lat="42.07323" lon="9.14528">
        <ele>1817.1999511719</ele>
        <time>2014-05-15T09:01:42.000Z</time>
      </trkpt>
      <trkpt lat="42.07323" lon="9.1453">
        <ele>1816.5999755859</ele>
        <time>2014-05-15T09:01:48.000Z</time>
      </trkpt>
      <trkpt lat="42.07323" lon="9.14534">
        <ele>1815.4000244141</ele>
        <time>2014-05-15T09:01:53.000Z</time>
      </trkpt>
      <trkpt lat="42.07323" lon="9.14537">
        <ele>1814.4000244141</ele>
        <time>2014-05-15T09:01:58.000Z</time>
      </trkpt>
      <trkpt lat="42.07324" lon="9.14539">
        <ele>1813.8000488281</ele>
        <time>2014-05-15T09:02:02.000Z</time>
      </trkpt>
      <trkpt lat="42.07326" lon="9.14542">
        <ele>1813.4000244141</ele>
        <time>2014-05-15T09:02:08.000Z</time>
      </trkpt>
      <trkpt lat="42.07328" lon="9.14544">
        <ele>1812.1999511719</ele>
        <time>2014-05-15T09:02:13.000Z</time>
      </trkpt>
      <trkpt lat="42.07327" lon="9.14548">
        <ele>1811.1999511719</ele>
        <time>2014-05-15T09:02:19.000Z</time>
      </trkpt>
      <trkpt lat="42.07328" lon="9.1455">
        <ele>1810.1999511719</ele>
        <time>2014-05-15T09:02:23.000Z</time>
      </trkpt>
      <trkpt lat="42.07327" lon="9.14554">
        <ele>1809.1999511719</ele>
        <time>2014-05-15T09:02:30.000Z</time>
      </trkpt>
      <trkpt lat="42.07328" lon="9.14556">
        <ele>1808.4000244141</ele>
        <time>2014-05-15T09:02:35.000Z</time>
      </trkpt>
      <trkpt lat="42.07327" lon="9.14559">
        <ele>1807.5999755859</ele>
        <time>2014-05-15T09:02:40.000Z</time>
      </trkpt>
      <trkpt lat="42.07327" lon="9.14561">
        <ele>1806.8000488281</ele>
        <time>2014-05-15T09:02:45.000Z</time>
      </trkpt>
      <trkpt lat="42.07329" lon="9.14561">
        <ele>1806.4000244141</ele>
        <time>2014-05-15T09:02:50.000Z</time>
      </trkpt>
      <trkpt lat="42.07328" lon="9.14565">
        <ele>1805.5999755859</ele>
        <time>2014-05-15T09:02:56.000Z</time>
      </trkpt>
      <trkpt lat="42.0733" lon="9.14567">
        <ele>1804.5999755859</ele>
        <time>2014-05-15T09:03:01.000Z</time>
      </trkpt>
      <trkpt lat="42.0733" lon="9.14569">
        <ele>1803.8000488281</ele>
        <time>2014-05-15T09:03:06.000Z</time>
      </trkpt>
      <trkpt lat="42.0733" lon="9.1457">
        <ele>1803.4000244141</ele>
        <time>2014-05-15T09:03:10.000Z</time>
      </trkpt>
      <trkpt lat="42.07333" lon="9.1457">
        <ele>1802.8000488281</ele>
        <time>2014-05-15T09:03:15.000Z</time>
      </trkpt>
      <trkpt lat="42.07335" lon="9.14572">
        <ele>1801.5999755859</ele>
        <time>2014-05-15T09:03:20.000Z</time>
      </trkpt>
      <trkpt lat="42.07337" lon="9.14574">
        <ele>1800.8000488281</ele>
        <time>2014-05-15T09:03:25.000Z</time>
      </trkpt>
      <trkpt lat="42.0734" lon="9.14577">
        <ele>1799.1999511719</ele>
        <time>2014-05-15T09:03:30.000Z</time>
      </trkpt>
      <trkpt lat="42.0734" lon="9.14578">
        <ele>1798.8000488281</ele>
        <time>2014-05-15T09:03:31.000Z</time>
      </trkpt>
      <trkpt lat="42.0734" lon="9.14581">
        <ele>1797.8000488281</ele>
        <time>2014-05-15T09:03:35.000Z</time>
      </trkpt>
      <trkpt lat="42.0734" lon="9.14588">
        <ele>1795.5999755859</ele>
        <time>2014-05-15T09:03:42.000Z</time>
      </trkpt>
      <trkpt lat="42.07337" lon="9.14591">
        <ele>1795.1999511719</ele>
        <time>2014-05-15T09:03:47.000Z</time>
      </trkpt>
      <trkpt lat="42.07337" lon="9.14594">
        <ele>1794.4000244141</ele>
        <time>2014-05-15T09:03:51.000Z</time>
      </trkpt>
      <trkpt lat="42.07337" lon="9.14595">
        <ele>1794</ele>
        <time>2014-05-15T09:03:58.000Z</time>
      </trkpt>
      <trkpt lat="42.07339" lon="9.14596">
        <ele>1793.1999511719</ele>
        <time>2014-05-15T09:04:04.000Z</time>
      </trkpt>
      <trkpt lat="42.07341" lon="9.14599">
        <ele>1791.8000488281</ele>
        <time>2014-05-15T09:04:10.000Z</time>
      </trkpt>
      <trkpt lat="42.07342" lon="9.14603">
        <ele>1790.1999511719</ele>
        <time>2014-05-15T09:04:16.000Z</time>
      </trkpt>
      <trkpt lat="42.07341" lon="9.14608">
        <ele>1788.8000488281</ele>
        <time>2014-05-15T09:04:21.000Z</time>
      </trkpt>
      <trkpt lat="42.07338" lon="9.1461">
        <ele>1788.8000488281</ele>
        <time>2014-05-15T09:04:25.000Z</time>
      </trkpt>
      <trkpt lat="42.07337" lon="9.14612">
        <ele>1788.4000244141</ele>
        <time>2014-05-15T09:04:27.000Z</time>
      </trkpt>
      <trkpt lat="42.07336" lon="9.14615">
        <ele>1787.5999755859</ele>
        <time>2014-05-15T09:04:30.000Z</time>
      </trkpt>
      <trkpt lat="42.07334" lon="9.14618">
        <ele>1787.1999511719</ele>
        <time>2014-05-15T09:04:33.000Z</time>
      </trkpt>
      <trkpt lat="42.07333" lon="9.14623">
        <ele>1785.1999511719</ele>
        <time>2014-05-15T09:04:39.000Z</time>
      </trkpt>
      <trkpt lat="42.07333" lon="9.14625">
        <ele>1784.1999511719</ele>
        <time>2014-05-15T09:04:44.000Z</time>
      </trkpt>
      <trkpt lat="42.07334" lon="9.14629">
        <ele>1782.8000488281</ele>
        <time>2014-05-15T09:04:49.000Z</time>
      </trkpt>
      <trkpt lat="42.07335" lon="9.14632">
        <ele>1781</ele>
        <time>2014-05-15T09:04:55.000Z</time>
      </trkpt>
      <trkpt lat="42.07334" lon="9.14635">
        <ele>1780</ele>
        <time>2014-05-15T09:04:59.000Z</time>
      </trkpt>
      <trkpt lat="42.07333" lon="9.1464">
        <ele>1778.4000244141</ele>
        <time>2014-05-15T09:05:04.000Z</time>
      </trkpt>
      <trkpt lat="42.07333" lon="9.14646">
        <ele>1775.5999755859</ele>
        <time>2014-05-15T09:05:10.000Z</time>
      </trkpt>
      <trkpt lat="42.07337" lon="9.14654">
        <ele>1772.1999511719</ele>
        <time>2014-05-15T09:05:17.000Z</time>
      </trkpt>
      <trkpt lat="42.07338" lon="9.14659">
        <ele>1770</ele>
        <time>2014-05-15T09:05:21.000Z</time>
      </trkpt>
      <trkpt lat="42.07339" lon="9.14659">
        <ele>1769.5999755859</ele>
        <time>2014-05-15T09:05:23.000Z</time>
      </trkpt>
      <trkpt lat="42.0734" lon="9.1466">
        <ele>1769</ele>
        <time>2014-05-15T09:05:26.000Z</time>
      </trkpt>
      <trkpt lat="42.07341" lon="9.14662">
        <ele>1768</ele>
        <time>2014-05-15T09:05:28.000Z</time>
      </trkpt>
      <trkpt lat="42.07342" lon="9.14664">
        <ele>1767.1999511719</ele>
        <time>2014-05-15T09:05:34.000Z</time>
      </trkpt>
      <trkpt lat="42.07343" lon="9.14665">
        <ele>1766.4000244141</ele>
        <time>2014-05-15T09:05:42.000Z</time>
      </trkpt>
      <trkpt lat="42.07348" lon="9.14669">
        <ele>1764.4000244141</ele>
        <time>2014-05-15T09:06:00.000Z</time>
      </trkpt>
      <trkpt lat="42.0735" lon="9.1467">
        <ele>1763.5999755859</ele>
        <time>2014-05-15T09:06:02.000Z</time>
      </trkpt>
      <trkpt lat="42.0735" lon="9.14673">
        <ele>1762.4000244141</ele>
        <time>2014-05-15T09:06:04.000Z</time>
      </trkpt>
      <trkpt lat="42.07349" lon="9.1468">
        <ele>1760</ele>
        <time>2014-05-15T09:06:09.000Z</time>
      </trkpt>
      <trkpt lat="42.07348" lon="9.14686">
        <ele>1757.4000244141</ele>
        <time>2014-05-15T09:06:15.000Z</time>
      </trkpt>
      <trkpt lat="42.07348" lon="9.1469">
        <ele>1756</ele>
        <time>2014-05-15T09:06:21.000Z</time>
      </trkpt>
      <trkpt lat="42.07352" lon="9.14694">
        <ele>1753.5999755859</ele>
        <time>2014-05-15T09:06:26.000Z</time>
      </trkpt>
      <trkpt lat="42.07356" lon="9.14702">
        <ele>1751.5999755859</ele>
        <time>2014-05-15T09:06:33.000Z</time>
      </trkpt>
      <trkpt lat="42.07362" lon="9.14706">
        <ele>1750</ele>
        <time>2014-05-15T09:06:39.000Z</time>
      </trkpt>
      <trkpt lat="42.07363" lon="9.14706">
        <ele>1749.8000488281</ele>
        <time>2014-05-15T09:06:40.000Z</time>
      </trkpt>
      <trkpt lat="42.07367" lon="9.1471">
        <ele>1748.5999755859</ele>
        <time>2014-05-15T09:06:44.000Z</time>
      </trkpt>
      <trkpt lat="42.07369" lon="9.14714">
        <ele>1747.5999755859</ele>
        <time>2014-05-15T09:06:48.000Z</time>
      </trkpt>
      <trkpt lat="42.07368" lon="9.14716">
        <ele>1747.1999511719</ele>
        <time>2014-05-15T09:06:50.000Z</time>
      </trkpt>
      <trkpt lat="42.07369" lon="9.14717">
        <ele>1747</ele>
        <time>2014-05-15T09:06:51.000Z</time>
      </trkpt>
      <trkpt lat="42.0737" lon="9.14722">
        <ele>1745.8000488281</ele>
        <time>2014-05-15T09:06:55.000Z</time>
      </trkpt>
      <trkpt lat="42.07371" lon="9.14723">
        <ele>1745.5999755859</ele>
        <time>2014-05-15T09:06:56.000Z</time>
      </trkpt>
      <trkpt lat="42.07375" lon="9.14723">
        <ele>1745</ele>
        <time>2014-05-15T09:07:01.000Z</time>
      </trkpt>
      <trkpt lat="42.07377" lon="9.14723">
        <ele>1744.5999755859</ele>
        <time>2014-05-15T09:07:03.000Z</time>
      </trkpt>
      <trkpt lat="42.07381" lon="9.14724">
        <ele>1744</ele>
        <time>2014-05-15T09:07:06.000Z</time>
      </trkpt>
      <trkpt lat="42.07382" lon="9.14726">
        <ele>1743.5999755859</ele>
        <time>2014-05-15T09:07:07.000Z</time>
      </trkpt>
      <trkpt lat="42.07384" lon="9.14732">
        <ele>1742.1999511719</ele>
        <time>2014-05-15T09:07:13.000Z</time>
      </trkpt>
      <trkpt lat="42.07388" lon="9.14736">
        <ele>1740.8000488281</ele>
        <time>2014-05-15T09:07:18.000Z</time>
      </trkpt>
      <trkpt lat="42.07391" lon="9.14743">
        <ele>1739</ele>
        <time>2014-05-15T09:07:23.000Z</time>
      </trkpt>
      <trkpt lat="42.07393" lon="9.14746">
        <ele>1738.1999511719</ele>
        <time>2014-05-15T09:07:26.000Z</time>
      </trkpt>
      <trkpt lat="42.07395" lon="9.14749">
        <ele>1737.4000244141</ele>
        <time>2014-05-15T09:07:29.000Z</time>
      </trkpt>
      <trkpt lat="42.07396" lon="9.1475">
        <ele>1737.1999511719</ele>
        <time>2014-05-15T09:07:30.000Z</time>
      </trkpt>
      <trkpt lat="42.07398" lon="9.14755">
        <ele>1736</ele>
        <time>2014-05-15T09:07:34.000Z</time>
      </trkpt>
      <trkpt lat="42.07397" lon="9.14755">
        <ele>1735.8000488281</ele>
        <time>2014-05-15T09:07:35.000Z</time>
      </trkpt>
      <trkpt lat="42.07399" lon="9.1476">
        <ele>1734.8000488281</ele>
        <time>2014-05-15T09:07:38.000Z</time>
      </trkpt>
      <trkpt lat="42.07401" lon="9.14763">
        <ele>1733.8000488281</ele>
        <time>2014-05-15T09:07:41.000Z</time>
      </trkpt>
      <trkpt lat="42.07402" lon="9.14764">
        <ele>1733.4000244141</ele>
        <time>2014-05-15T09:07:42.000Z</time>
      </trkpt>
      <trkpt lat="42.07404" lon="9.14769">
        <ele>1732.4000244141</ele>
        <time>2014-05-15T09:07:45.000Z</time>
      </trkpt>
      <trkpt lat="42.07402" lon="9.14779">
        <ele>1729.5999755859</ele>
        <time>2014-05-15T09:07:50.000Z</time>
      </trkpt>
      <trkpt lat="42.07402" lon="9.14781">
        <ele>1729.4000244141</ele>
        <time>2014-05-15T09:07:51.000Z</time>
      </trkpt>
      <trkpt lat="42.07403" lon="9.14786">
        <ele>1728.5999755859</ele>
        <time>2014-05-15T09:07:55.000Z</time>
      </trkpt>
      <trkpt lat="42.07404" lon="9.14788">
        <ele>1728.1999511719</ele>
        <time>2014-05-15T09:07:56.000Z</time>
      </trkpt>
      <trkpt lat="42.07404" lon="9.14789">
        <ele>1728</ele>
        <time>2014-05-15T09:07:57.000Z</time>
      </trkpt>
      <trkpt lat="42.07405" lon="9.14794">
        <ele>1727.4000244141</ele>
        <time>2014-05-15T09:08:01.000Z</time>
      </trkpt>
      <trkpt lat="42.07406" lon="9.14795">
        <ele>1727.1999511719</ele>
        <time>2014-05-15T09:08:02.000Z</time>
      </trkpt>
      <trkpt lat="42.07408" lon="9.14799">
        <ele>1726.5999755859</ele>
        <time>2014-05-15T09:08:05.000Z</time>
      </trkpt>
      <trkpt lat="42.07408" lon="9.14801">
        <ele>1726.4000244141</ele>
        <time>2014-05-15T09:08:06.000Z</time>
      </trkpt>
      <trkpt lat="42.07408" lon="9.14807">
        <ele>1725.4000244141</ele>
        <time>2014-05-15T09:08:10.000Z</time>
      </trkpt>
      <trkpt lat="42.07407" lon="9.14812">
        <ele>1724.5999755859</ele>
        <time>2014-05-15T09:08:13.000Z</time>
      </trkpt>
      <trkpt lat="42.07408" lon="9.14815">
        <ele>1724</ele>
        <time>2014-05-15T09:08:15.000Z</time>
      </trkpt>
      <trkpt lat="42.07409" lon="9.14822">
        <ele>1723</ele>
        <time>2014-05-15T09:08:19.000Z</time>
      </trkpt>
      <trkpt lat="42.07411" lon="9.14826">
        <ele>1721.8000488281</ele>
        <time>2014-05-15T09:08:22.000Z</time>
      </trkpt>
      <trkpt lat="42.07414" lon="9.14832">
        <ele>1719.5999755859</ele>
        <time>2014-05-15T09:08:26.000Z</time>
      </trkpt>
      <trkpt lat="42.07413" lon="9.14838">
        <ele>1718.8000488281</ele>
        <time>2014-05-15T09:08:30.000Z</time>
      </trkpt>
      <trkpt lat="42.07413" lon="9.14839">
        <ele>1718.8000488281</ele>
        <time>2014-05-15T09:08:31.000Z</time>
      </trkpt>
      <trkpt lat="42.07413" lon="9.14844">
        <ele>1718.1999511719</ele>
        <time>2014-05-15T09:08:35.000Z</time>
      </trkpt>
      <trkpt lat="42.07413" lon="9.14848">
        <ele>1717.4000244141</ele>
        <time>2014-05-15T09:08:37.000Z</time>
      </trkpt>
      <trkpt lat="42.07414" lon="9.1485">
        <ele>1716.8000488281</ele>
        <time>2014-05-15T09:08:39.000Z</time>
      </trkpt>
      <trkpt lat="42.07415" lon="9.14854">
        <ele>1715.4000244141</ele>
        <time>2014-05-15T09:08:42.000Z</time>
      </trkpt>
      <trkpt lat="42.07415" lon="9.14862">
        <ele>1714.4000244141</ele>
        <time>2014-05-15T09:08:47.000Z</time>
      </trkpt>
      <trkpt lat="42.07415" lon="9.14865">
        <ele>1714.1999511719</ele>
        <time>2014-05-15T09:08:49.000Z</time>
      </trkpt>
      <trkpt lat="42.07415" lon="9.14867">
        <ele>1714.4000244141</ele>
        <time>2014-05-15T09:08:51.000Z</time>
      </trkpt>
      <trkpt lat="42.07415" lon="9.14869">
        <ele>1714.1999511719</ele>
        <time>2014-05-15T09:08:53.000Z</time>
      </trkpt>
      <trkpt lat="42.07415" lon="9.14875">
        <ele>1713.1999511719</ele>
        <time>2014-05-15T09:08:57.000Z</time>
      </trkpt>
      <trkpt lat="42.07415" lon="9.14876">
        <ele>1713.1999511719</ele>
        <time>2014-05-15T09:08:58.000Z</time>
      </trkpt>
      <trkpt lat="42.07416" lon="9.1488">
        <ele>1712.5999755859</ele>
        <time>2014-05-15T09:09:01.000Z</time>
      </trkpt>
      <trkpt lat="42.07418" lon="9.14885">
        <ele>1711.1999511719</ele>
        <time>2014-05-15T09:09:04.000Z</time>
      </trkpt>
      <trkpt lat="42.0742" lon="9.14889">
        <ele>1710</ele>
        <time>2014-05-15T09:09:09.000Z</time>
      </trkpt>
      <trkpt lat="42.07427" lon="9.1489">
        <ele>1707.1999511719</ele>
        <time>2014-05-15T09:09:15.000Z</time>
      </trkpt>
      <trkpt lat="42.07434" lon="9.1489">
        <ele>1705</ele>
        <time>2014-05-15T09:09:20.000Z</time>
      </trkpt>
      <trkpt lat="42.07435" lon="9.14891">
        <ele>1704.4000244141</ele>
        <time>2014-05-15T09:09:21.000Z</time>
      </trkpt>
      <trkpt lat="42.07437" lon="9.14895">
        <ele>1703.1999511719</ele>
        <time>2014-05-15T09:09:27.000Z</time>
      </trkpt>
      <trkpt lat="42.07436" lon="9.14892">
        <ele>1703.8000488281</ele>
        <time>2014-05-15T09:09:33.000Z</time>
      </trkpt>
      <trkpt lat="42.07436" lon="9.14885">
        <ele>1704.4000244141</ele>
        <time>2014-05-15T09:09:38.000Z</time>
      </trkpt>
      <trkpt lat="42.07437" lon="9.14879">
        <ele>1704.1999511719</ele>
        <time>2014-05-15T09:09:41.000Z</time>
      </trkpt>
      <trkpt lat="42.07437" lon="9.14871">
        <ele>1704.1999511719</ele>
        <time>2014-05-15T09:09:45.000Z</time>
      </trkpt>
      <trkpt lat="42.0744" lon="9.14853">
        <ele>1704.1999511719</ele>
        <time>2014-05-15T09:09:55.000Z</time>
      </trkpt>
      <trkpt lat="42.07444" lon="9.14839">
        <ele>1705</ele>
        <time>2014-05-15T09:10:03.000Z</time>
      </trkpt>
      <trkpt lat="42.07446" lon="9.14821">
        <ele>1706.5999755859</ele>
        <time>2014-05-15T09:10:12.000Z</time>
      </trkpt>
      <trkpt lat="42.07449" lon="9.14807">
        <ele>1707.5999755859</ele>
        <time>2014-05-15T09:10:20.000Z</time>
      </trkpt>
      <trkpt lat="42.0745" lon="9.14793">
        <ele>1709</ele>
        <time>2014-05-15T09:10:28.000Z</time>
      </trkpt>
      <trkpt lat="42.07451" lon="9.14787">
        <ele>1709.5999755859</ele>
        <time>2014-05-15T09:10:35.000Z</time>
      </trkpt>
      <trkpt lat="42.07453" lon="9.14776">
        <ele>1710.4000244141</ele>
        <time>2014-05-15T09:10:42.000Z</time>
      </trkpt>
      <trkpt lat="42.07457" lon="9.14767">
        <ele>1710.4000244141</ele>
        <time>2014-05-15T09:10:48.000Z</time>
      </trkpt>
      <trkpt lat="42.07462" lon="9.14754">
        <ele>1710.4000244141</ele>
        <time>2014-05-15T09:10:58.000Z</time>
      </trkpt>
      <trkpt lat="42.0746" lon="9.14759">
        <ele>1710.5999755859</ele>
        <time>2014-05-15T09:11:12.000Z</time>
      </trkpt>
      <trkpt lat="42.07456" lon="9.1477">
        <ele>1710.1999511719</ele>
        <time>2014-05-15T09:11:19.000Z</time>
      </trkpt>
      <trkpt lat="42.07452" lon="9.1478">
        <ele>1710.5999755859</ele>
        <time>2014-05-15T09:11:25.000Z</time>
      </trkpt>
      <trkpt lat="42.07452" lon="9.14785">
        <ele>1709.5999755859</ele>
        <time>2014-05-15T09:11:31.000Z</time>
      </trkpt>
      <trkpt lat="42.07454" lon="9.14782">
        <ele>1709</ele>
        <time>2014-05-15T09:11:36.000Z</time>
      </trkpt>
      <trkpt lat="42.07459" lon="9.14778">
        <ele>1707.4000244141</ele>
        <time>2014-05-15T09:11:43.000Z</time>
      </trkpt>
      <trkpt lat="42.07464" lon="9.14775">
        <ele>1705.8000488281</ele>
        <time>2014-05-15T09:11:49.000Z</time>
      </trkpt>
      <trkpt lat="42.07465" lon="9.14774">
        <ele>1705.5999755859</ele>
        <time>2014-05-15T09:11:50.000Z</time>
      </trkpt>
      <trkpt lat="42.07467" lon="9.1477">
        <ele>1705.1999511719</ele>
        <time>2014-05-15T09:11:54.000Z</time>
      </trkpt>
      <trkpt lat="42.07469" lon="9.14768">
        <ele>1704.8000488281</ele>
        <time>2014-05-15T09:11:57.000Z</time>
      </trkpt>
      <trkpt lat="42.07471" lon="9.14763">
        <ele>1704.5999755859</ele>
        <time>2014-05-15T09:12:01.000Z</time>
      </trkpt>
      <trkpt lat="42.07477" lon="9.14758">
        <ele>1703.1999511719</ele>
        <time>2014-05-15T09:12:08.000Z</time>
      </trkpt>
      <trkpt lat="42.07479" lon="9.14757">
        <ele>1702</ele>
        <time>2014-05-15T09:12:14.000Z</time>
      </trkpt>
      <trkpt lat="42.07481" lon="9.14758">
        <ele>1700.8000488281</ele>
        <time>2014-05-15T09:12:18.000Z</time>
      </trkpt>
      <trkpt lat="42.07482" lon="9.14758">
        <ele>1700.5999755859</ele>
        <time>2014-05-15T09:12:25.000Z</time>
      </trkpt>
      <trkpt lat="42.07483" lon="9.14761">
        <ele>1699.4000244141</ele>
        <time>2014-05-15T09:12:43.000Z</time>
      </trkpt>
      <trkpt lat="42.07485" lon="9.14764">
        <ele>1698.1999511719</ele>
        <time>2014-05-15T09:12:48.000Z</time>
      </trkpt>
      <trkpt lat="42.07487" lon="9.14764">
        <ele>1697.1999511719</ele>
        <time>2014-05-15T09:12:54.000Z</time>
      </trkpt>
      <trkpt lat="42.07488" lon="9.14759">
        <ele>1697.1999511719</ele>
        <time>2014-05-15T09:12:59.000Z</time>
      </trkpt>
      <trkpt lat="42.07489" lon="9.14759">
        <ele>1696.5999755859</ele>
        <time>2014-05-15T09:13:04.000Z</time>
      </trkpt>
      <trkpt lat="42.07492" lon="9.14762">
        <ele>1695</ele>
        <time>2014-05-15T09:13:08.000Z</time>
      </trkpt>
      <trkpt lat="42.07491" lon="9.14763">
        <ele>1695</ele>
        <time>2014-05-15T09:13:15.000Z</time>
      </trkpt>
      <trkpt lat="42.07494" lon="9.14767">
        <ele>1693.1999511719</ele>
        <time>2014-05-15T09:13:28.000Z</time>
      </trkpt>
      <trkpt lat="42.07497" lon="9.14772">
        <ele>1691.4000244141</ele>
        <time>2014-05-15T09:13:33.000Z</time>
      </trkpt>
      <trkpt lat="42.07497" lon="9.14772">
        <ele>1691.1999511719</ele>
        <time>2014-05-15T09:13:34.000Z</time>
      </trkpt>
      <trkpt lat="42.07499" lon="9.14773">
        <ele>1690.5999755859</ele>
        <time>2014-05-15T09:13:36.000Z</time>
      </trkpt>
      <trkpt lat="42.07502" lon="9.14778">
        <ele>1689</ele>
        <time>2014-05-15T09:13:40.000Z</time>
      </trkpt>
      <trkpt lat="42.07505" lon="9.14785">
        <ele>1686.5999755859</ele>
        <time>2014-05-15T09:13:46.000Z</time>
      </trkpt>
      <trkpt lat="42.07507" lon="9.14791">
        <ele>1684.8000488281</ele>
        <time>2014-05-15T09:13:51.000Z</time>
      </trkpt>
      <trkpt lat="42.07508" lon="9.14792">
        <ele>1684.4000244141</ele>
        <time>2014-05-15T09:13:52.000Z</time>
      </trkpt>
      <trkpt lat="42.07513" lon="9.14796">
        <ele>1681.8000488281</ele>
        <time>2014-05-15T09:13:58.000Z</time>
      </trkpt>
      <trkpt lat="42.07518" lon="9.14798">
        <ele>1680</ele>
        <time>2014-05-15T09:14:02.000Z</time>
      </trkpt>
      <trkpt lat="42.07518" lon="9.14799">
        <ele>1679.5999755859</ele>
        <time>2014-05-15T09:14:03.000Z</time>
      </trkpt>
      <trkpt lat="42.07522" lon="9.14808">
        <ele>1676.5999755859</ele>
        <time>2014-05-15T09:14:10.000Z</time>
      </trkpt>
      <trkpt lat="42.07528" lon="9.14819">
        <ele>1673</ele>
        <time>2014-05-15T09:14:17.000Z</time>
      </trkpt>
      <trkpt lat="42.07529" lon="9.14824">
        <ele>1671.5999755859</ele>
        <time>2014-05-15T09:14:21.000Z</time>
      </trkpt>
      <trkpt lat="42.07528" lon="9.14826">
        <ele>1671.8000488281</ele>
        <time>2014-05-15T09:14:23.000Z</time>
      </trkpt>
      <trkpt lat="42.07526" lon="9.14832">
        <ele>1671.5999755859</ele>
        <time>2014-05-15T09:14:28.000Z</time>
      </trkpt>
      <trkpt lat="42.07528" lon="9.14838">
        <ele>1670</ele>
        <time>2014-05-15T09:14:32.000Z</time>
      </trkpt>
      <trkpt lat="42.07529" lon="9.1484">
        <ele>1669</ele>
        <time>2014-05-15T09:14:34.000Z</time>
      </trkpt>
      <trkpt lat="42.07533" lon="9.14853">
        <ele>1665.8000488281</ele>
        <time>2014-05-15T09:14:43.000Z</time>
      </trkpt>
      <trkpt lat="42.07536" lon="9.14861">
        <ele>1663.4000244141</ele>
        <time>2014-05-15T09:14:50.000Z</time>
      </trkpt>
      <trkpt lat="42.07537" lon="9.14866">
        <ele>1662</ele>
        <time>2014-05-15T09:14:54.000Z</time>
      </trkpt>
      <trkpt lat="42.07538" lon="9.14867">
        <ele>1661.5999755859</ele>
        <time>2014-05-15T09:14:55.000Z</time>
      </trkpt>
      <trkpt lat="42.07541" lon="9.14879">
        <ele>1658.1999511719</ele>
        <time>2014-05-15T09:15:02.000Z</time>
      </trkpt>
      <trkpt lat="42.07541" lon="9.14881">
        <ele>1657.5999755859</ele>
        <time>2014-05-15T09:15:04.000Z</time>
      </trkpt>
      <trkpt lat="42.0754" lon="9.14882">
        <ele>1657.5999755859</ele>
        <time>2014-05-15T09:15:06.000Z</time>
      </trkpt>
      <trkpt lat="42.0754" lon="9.14889">
        <ele>1656.1999511719</ele>
        <time>2014-05-15T09:15:17.000Z</time>
      </trkpt>
      <trkpt lat="42.07539" lon="9.14902">
        <ele>1654.1999511719</ele>
        <time>2014-05-15T09:15:25.000Z</time>
      </trkpt>
      <trkpt lat="42.07539" lon="9.14903">
        <ele>1653.8000488281</ele>
        <time>2014-05-15T09:15:26.000Z</time>
      </trkpt>
      <trkpt lat="42.07539" lon="9.14912">
        <ele>1653</ele>
        <time>2014-05-15T09:15:31.000Z</time>
      </trkpt>
      <trkpt lat="42.07539" lon="9.14914">
        <ele>1652.8000488281</ele>
        <time>2014-05-15T09:15:32.000Z</time>
      </trkpt>
      <trkpt lat="42.07541" lon="9.14925">
        <ele>1651.4000244141</ele>
        <time>2014-05-15T09:15:39.000Z</time>
      </trkpt>
      <trkpt lat="42.07542" lon="9.14935">
        <ele>1650.8000488281</ele>
        <time>2014-05-15T09:15:46.000Z</time>
      </trkpt>
      <trkpt lat="42.07543" lon="9.14937">
        <ele>1650.4000244141</ele>
        <time>2014-05-15T09:15:48.000Z</time>
      </trkpt>
      <trkpt lat="42.07545" lon="9.14941">
        <ele>1649</ele>
        <time>2014-05-15T09:15:53.000Z</time>
      </trkpt>
      <trkpt lat="42.07546" lon="9.14949">
        <ele>1648.4000244141</ele>
        <time>2014-05-15T09:15:59.000Z</time>
      </trkpt>
      <trkpt lat="42.07544" lon="9.14956">
        <ele>1648.8000488281</ele>
        <time>2014-05-15T09:16:04.000Z</time>
      </trkpt>
      <trkpt lat="42.07544" lon="9.14958">
        <ele>1648.5999755859</ele>
        <time>2014-05-15T09:16:05.000Z</time>
      </trkpt>
      <trkpt lat="42.07547" lon="9.14966">
        <ele>1646.8000488281</ele>
        <time>2014-05-15T09:16:11.000Z</time>
      </trkpt>
      <trkpt lat="42.07548" lon="9.14967">
        <ele>1646.4000244141</ele>
        <time>2014-05-15T09:16:12.000Z</time>
      </trkpt>
      <trkpt lat="42.07551" lon="9.14969">
        <ele>1644.8000488281</ele>
        <time>2014-05-15T09:16:16.000Z</time>
      </trkpt>
      <trkpt lat="42.07552" lon="9.1497">
        <ele>1644.4000244141</ele>
        <time>2014-05-15T09:16:17.000Z</time>
      </trkpt>
      <trkpt lat="42.07553" lon="9.14974">
        <ele>1643.4000244141</ele>
        <time>2014-05-15T09:16:20.000Z</time>
      </trkpt>
      <trkpt lat="42.07553" lon="9.14976">
        <ele>1643.4000244141</ele>
        <time>2014-05-15T09:16:21.000Z</time>
      </trkpt>
      <trkpt lat="42.07553" lon="9.14977">
        <ele>1643.4000244141</ele>
        <time>2014-05-15T09:16:22.000Z</time>
      </trkpt>
      <trkpt lat="42.07552" lon="9.14979">
        <ele>1643.5999755859</ele>
        <time>2014-05-15T09:16:24.000Z</time>
      </trkpt>
      <trkpt lat="42.07555" lon="9.14983">
        <ele>1642.1999511719</ele>
        <time>2014-05-15T09:16:28.000Z</time>
      </trkpt>
      <trkpt lat="42.07557" lon="9.14989">
        <ele>1640.5999755859</ele>
        <time>2014-05-15T09:16:32.000Z</time>
      </trkpt>
      <trkpt lat="42.07559" lon="9.14991">
        <ele>1639.8000488281</ele>
        <time>2014-05-15T09:16:34.000Z</time>
      </trkpt>
      <trkpt lat="42.07563" lon="9.15001">
        <ele>1637.1999511719</ele>
        <time>2014-05-15T09:16:40.000Z</time>
      </trkpt>
      <trkpt lat="42.07569" lon="9.15011">
        <ele>1633.4000244141</ele>
        <time>2014-05-15T09:16:47.000Z</time>
      </trkpt>
      <trkpt lat="42.07576" lon="9.15021">
        <ele>1629.4000244141</ele>
        <time>2014-05-15T09:16:54.000Z</time>
      </trkpt>
      <trkpt lat="42.07578" lon="9.15026">
        <ele>1628.4000244141</ele>
        <time>2014-05-15T09:16:59.000Z</time>
      </trkpt>
      <trkpt lat="42.07579" lon="9.15027">
        <ele>1628</ele>
        <time>2014-05-15T09:17:00.000Z</time>
      </trkpt>
      <trkpt lat="42.07581" lon="9.15025">
        <ele>1627.4000244141</ele>
        <time>2014-05-15T09:17:05.000Z</time>
      </trkpt>
      <trkpt lat="42.07586" lon="9.15019">
        <ele>1626</ele>
        <time>2014-05-15T09:17:12.000Z</time>
      </trkpt>
      <trkpt lat="42.07586" lon="9.15016">
        <ele>1625.8000488281</ele>
        <time>2014-05-15T09:17:14.000Z</time>
      </trkpt>
      <trkpt lat="42.07587" lon="9.15012">
        <ele>1625.5999755859</ele>
        <time>2014-05-15T09:17:17.000Z</time>
      </trkpt>
      <trkpt lat="42.07592" lon="9.15004">
        <ele>1624.4000244141</ele>
        <time>2014-05-15T09:17:24.000Z</time>
      </trkpt>
      <trkpt lat="42.07596" lon="9.15005">
        <ele>1622.8000488281</ele>
        <time>2014-05-15T09:17:29.000Z</time>
      </trkpt>
      <trkpt lat="42.07599" lon="9.15005">
        <ele>1621.4000244141</ele>
        <time>2014-05-15T09:17:34.000Z</time>
      </trkpt>
      <trkpt lat="42.076" lon="9.15006">
        <ele>1621.1999511719</ele>
        <time>2014-05-15T09:17:35.000Z</time>
      </trkpt>
      <trkpt lat="42.07602" lon="9.15005">
        <ele>1620.5999755859</ele>
        <time>2014-05-15T09:17:39.000Z</time>
      </trkpt>
      <trkpt lat="42.07604" lon="9.15002">
        <ele>1620.1999511719</ele>
        <time>2014-05-15T09:17:42.000Z</time>
      </trkpt>
      <trkpt lat="42.07605" lon="9.15003">
        <ele>1619.5999755859</ele>
        <time>2014-05-15T09:17:44.000Z</time>
      </trkpt>
      <trkpt lat="42.07606" lon="9.15005">
        <ele>1619.1999511719</ele>
        <time>2014-05-15T09:17:46.000Z</time>
      </trkpt>
      <trkpt lat="42.07608" lon="9.1501">
        <ele>1618</ele>
        <time>2014-05-15T09:17:51.000Z</time>
      </trkpt>
      <trkpt lat="42.07611" lon="9.15009">
        <ele>1617</ele>
        <time>2014-05-15T09:17:57.000Z</time>
      </trkpt>
      <trkpt lat="42.07616" lon="9.15001">
        <ele>1615.4000244141</ele>
        <time>2014-05-15T09:18:04.000Z</time>
      </trkpt>
      <trkpt lat="42.07621" lon="9.15">
        <ele>1613.8000488281</ele>
        <time>2014-05-15T09:18:09.000Z</time>
      </trkpt>
      <trkpt lat="42.07622" lon="9.15">
        <ele>1613.4000244141</ele>
        <time>2014-05-15T09:18:10.000Z</time>
      </trkpt>
      <trkpt lat="42.07624" lon="9.15003">
        <ele>1612.5999755859</ele>
        <time>2014-05-15T09:18:13.000Z</time>
      </trkpt>
      <trkpt lat="42.07629" lon="9.15006">
        <ele>1610.8000488281</ele>
        <time>2014-05-15T09:18:17.000Z</time>
      </trkpt>
      <trkpt lat="42.07631" lon="9.15008">
        <ele>1609.8000488281</ele>
        <time>2014-05-15T09:18:20.000Z</time>
      </trkpt>
      <trkpt lat="42.07632" lon="9.15007">
        <ele>1609.5999755859</ele>
        <time>2014-05-15T09:18:22.000Z</time>
      </trkpt>
      <trkpt lat="42.07632" lon="9.15006">
        <ele>1609.5999755859</ele>
        <time>2014-05-15T09:18:23.000Z</time>
      </trkpt>
      <trkpt lat="42.07632" lon="9.15">
        <ele>1609.8000488281</ele>
        <time>2014-05-15T09:18:27.000Z</time>
      </trkpt>
      <trkpt lat="42.07636" lon="9.15001">
        <ele>1608.8000488281</ele>
        <time>2014-05-15T09:18:31.000Z</time>
      </trkpt>
      <trkpt lat="42.07638" lon="9.15003">
        <ele>1608</ele>
        <time>2014-05-15T09:18:33.000Z</time>
      </trkpt>
      <trkpt lat="42.07641" lon="9.15008">
        <ele>1606.4000244141</ele>
        <time>2014-05-15T09:18:38.000Z</time>
      </trkpt>
      <trkpt lat="42.07646" lon="9.15016">
        <ele>1604.4000244141</ele>
        <time>2014-05-15T09:18:45.000Z</time>
      </trkpt>
      <trkpt lat="42.07651" lon="9.15024">
        <ele>1602.4000244141</ele>
        <time>2014-05-15T09:18:52.000Z</time>
      </trkpt>
      <trkpt lat="42.07652" lon="9.15025">
        <ele>1601.8000488281</ele>
        <time>2014-05-15T09:18:54.000Z</time>
      </trkpt>
      <trkpt lat="42.07655" lon="9.15026">
        <ele>1600.8000488281</ele>
        <time>2014-05-15T09:18:57.000Z</time>
      </trkpt>
      <trkpt lat="42.07658" lon="9.15025">
        <ele>1599.8000488281</ele>
        <time>2014-05-15T09:19:00.000Z</time>
      </trkpt>
      <trkpt lat="42.07659" lon="9.15024">
        <ele>1599.8000488281</ele>
        <time>2014-05-15T09:19:04.000Z</time>
      </trkpt>
      <trkpt lat="42.07661" lon="9.15019">
        <ele>1600.5999755859</ele>
        <time>2014-05-15T09:19:09.000Z</time>
      </trkpt>
      <trkpt lat="42.07664" lon="9.15011">
        <ele>1602</ele>
        <time>2014-05-15T09:19:15.000Z</time>
      </trkpt>
      <trkpt lat="42.07664" lon="9.15008">
        <ele>1602.5999755859</ele>
        <time>2014-05-15T09:19:17.000Z</time>
      </trkpt>
      <trkpt lat="42.07666" lon="9.15006">
        <ele>1603</ele>
        <time>2014-05-15T09:19:20.000Z</time>
      </trkpt>
      <trkpt lat="42.07667" lon="9.15005">
        <ele>1603.1999511719</ele>
        <time>2014-05-15T09:19:22.000Z</time>
      </trkpt>
      <trkpt lat="42.07671" lon="9.15004">
        <ele>1603.5999755859</ele>
        <time>2014-05-15T09:19:25.000Z</time>
      </trkpt>
      <trkpt lat="42.07677" lon="9.15004">
        <ele>1604</ele>
        <time>2014-05-15T09:19:30.000Z</time>
      </trkpt>
      <trkpt lat="42.07678" lon="9.15005">
        <ele>1604</ele>
        <time>2014-05-15T09:19:31.000Z</time>
      </trkpt>
      <trkpt lat="42.07682" lon="9.15009">
        <ele>1603.5999755859</ele>
        <time>2014-05-15T09:19:35.000Z</time>
      </trkpt>
      <trkpt lat="42.07688" lon="9.15011">
        <ele>1603.4000244141</ele>
        <time>2014-05-15T09:19:40.000Z</time>
      </trkpt>
      <trkpt lat="42.07695" lon="9.15015">
        <ele>1603.1999511719</ele>
        <time>2014-05-15T09:19:46.000Z</time>
      </trkpt>
      <trkpt lat="42.07697" lon="9.15017">
        <ele>1603</ele>
        <time>2014-05-15T09:19:48.000Z</time>
      </trkpt>
      <trkpt lat="42.07699" lon="9.15021">
        <ele>1602.4000244141</ele>
        <time>2014-05-15T09:19:51.000Z</time>
      </trkpt>
      <trkpt lat="42.07702" lon="9.15028">
        <ele>1601.5999755859</ele>
        <time>2014-05-15T09:19:57.000Z</time>
      </trkpt>
      <trkpt lat="42.07705" lon="9.1503">
        <ele>1601.5999755859</ele>
        <time>2014-05-15T09:20:01.000Z</time>
      </trkpt>
      <trkpt lat="42.07706" lon="9.1503">
        <ele>1601.5999755859</ele>
        <time>2014-05-15T09:20:02.000Z</time>
      </trkpt>
      <trkpt lat="42.07712" lon="9.15027">
        <ele>1602.4000244141</ele>
        <time>2014-05-15T09:20:09.000Z</time>
      </trkpt>
      <trkpt lat="42.07717" lon="9.15025">
        <ele>1602.8000488281</ele>
        <time>2014-05-15T09:20:15.000Z</time>
      </trkpt>
      <trkpt lat="42.07718" lon="9.15025">
        <ele>1603</ele>
        <time>2014-05-15T09:20:17.000Z</time>
      </trkpt>
      <trkpt lat="42.07724" lon="9.15026">
        <ele>1603.1999511719</ele>
        <time>2014-05-15T09:20:24.000Z</time>
      </trkpt>
      <trkpt lat="42.07723" lon="9.15027">
        <ele>1603</ele>
        <time>2014-05-15T09:20:31.000Z</time>
      </trkpt>
    </trkseg>
  </trk>
</gpx>